     2              OBSERVATION DATA    GPS                 RINEX VERSION / TYPE
ASRINEXO V2.4.4 UX USGS 24-FEB-96 17:13                     PGM / RUN BY / DATE
                                                            COMMENT
Contact: kwendt@isdmnl.wr.usgs.gov (Ph: 415-329-4866)       COMMENT
Contact: kwendt@isdmnl.wr.usgs.gov (Ph: 415-329-4866)       COMMENT
Contact: kwendt@isdmnl.wr.usgs.gov (Ph: 415-329-4866)       COMMENT
Contact: kwendt@isdmnl.wr.usgs.gov (Ph: 415-329-4866)       COMMENT
Contact: kwendt@isdmnl.wr.usgs.gov (Ph: 415-329-4866)       COMMENT
Contact: kwendt@isdmnl.wr.usgs.gov (Ph: 415-329-4866)       COMMENT
Original Marker Name: clai Claim_1991_YM_Caltech            COMMENT
Campaign Name: USGS Yucca Profile                           COMMENT
4-Character Station Name: CLAI                              COMMENT
6-Character Antenna Code: ASHGD3                            COMMENT
Vertical Measurement Point: EGP                             COMMENT
Vertical Offset to Rinex Ref. Point: 0.0594                 COMMENT
Radial Measurement Point: EGP                               COMMENT
Radial Offset to Rinex Ref. Point: 0.1837                   COMMENT
Antenna Height from Field Measurement: 1.1950 m             COMMENT
Additional Antenna Identification Info.:                    COMMENT
The Whopper (700718AB)                                      COMMENT
Original XYZ: -2367610.5200 -4707861.2700 3582847.4000      COMMENT
New XYZ position is based on association with SCEC monument COMMENT
E1G0K4O1+0011. Position of that monument is believed to be  COMMENT
valid to within 1 m horizontally; vertical accuracy         COMMENT
should be no worse than 3-times this value.                 COMMENT
                                                            COMMENT
Revised Rinex header created by UCSD GPS archive for        COMMENT
GSAC on 11-Aug-2000 (2000:224) 19:04:26 GMT                 COMMENT
For assistance contact dagnew@ucsd.edu                      COMMENT
or anderson@python.ucsd.edu                                 COMMENT
                                                            COMMENT
CLAIM 1991 YM                                               MARKER NAME
GDH US GEOLOGICAL SURVEY                                    OBSERVER / AGENCY
707 ASHTECH Z-XII3 1F00                                     REC # / TYPE / VERS
11404 ASHTECH GEODETIC III                                  ANT # / TYPE
 -2293808.2474 -4564522.8902  3808387.9082                  APPROX POSITION XYZ
        1.1214        0.0000        0.0000                  ANTENNA: DELTA H/E/N
     1     1     0                                          WAVELENGTH FACT L1/2
     5    C1    L1    L2    P1    P2                        # / TYPES OF OBSERV
    30                                                      INTERVAL
  1996     2    12     0    18    0.000000                  TIME OF FIRST OBS
  1996     2    12    23    52   60.000000                  TIME OF LAST OBS
                                                            END OF HEADER
 96  2 12  0 18  0.0000000  0  1  7
  19578638.915       -3783.90119
 96  2 12  0 18 30.0000000  0  1  7
  19577783.325       -8288.066 9
 96  2 12  0 19  0.0000000  0  1  7
  20476368.653      -12433.715 9
 96  2 12  0 19 30.0000000  0  1  7
  20475648.417      -16234.364 9     -1781.54059                  20475654.2634
 96  2 12  0 20  0.0000000  0  1  7
  20474986.982      -19704.66859     -4485.66049  20474988.7014   20474993.8194
 96  2 12  0 20 30.0000000  0  1  7
  20474389.397      -22847.70949     -6934.78149  20474390.7904   20474395.8214
 96  2 12  0 21  0.0000000  0  1  7
  20473857.534      -25643.96149     -9113.67449  20473858.4144   20473863.7904
 96  2 12  0 21 30.0000000  0  2  7 26
  20473400.857      -28043.92649    -10983.76549  20473401.9504   20473406.9834
  23279222.013       85309.76059     62321.97159  23279224.9664   23279231.0564
 96  2 12  0 22  0.0000000  0  2  7 26
  20473016.018      -30061.53349    -12555.92249  20473017.9724   20473023.1294
  23285486.190      118242.70259     87983.99859  23285492.1954   23285497.5064
 96  2 12  0 22 30.0000000  0  2  7 26
  20472703.849      -31708.72949    -13839.43949  20472704.5214   20472709.8034
  23291831.663      151564.66849    113949.15849  23291832.6524   23291839.3644
 96  2 12  0 23  0.0000000  0  2  7 26
  20472464.245      -32968.93049    -14821.40649  20472464.8364   20472469.6864
  23298250.829      185293.35449    140231.23649  23298251.9434   23298256.9074
 96  2 12  0 23 30.0000000  0  2  7 26
  20472300.463      -33827.33949    -15490.28349  20472301.6874   20472306.4344
  23304747.509      219439.22849    166838.38949  23304749.4874   23304755.5104
 96  2 12  0 24  0.0000000  0  4  2 12  7 26
  21560979.277       18786.77419     11228.32859                  21560985.5784
  20975937.081       -1931.50519     -1289.70719  20975941.204    20975947.064
  20472220.072      -34251.35849    -15820.67349  20472220.7864   20472225.6754
  23311331.830      254030.33049    193792.50149  23311331.5864   23311338.2224
 96  2 12  0 24 30.0000000  0  4  2 12  7 26
  21565072.029       40287.89059     27982.44549  21565072.4144   21565077.1884
  20975962.408       -1811.89819     -1196.50519  20975964.068    20975969.936
  20472233.532      -34179.18849    -15764.42449  20472234.5654   20472239.1234
  23318005.261      289106.18049    221124.31049  23318006.5864   23318011.9514
 96  2 12  0 25  0.0000000  0  6  2 12 27  7 26  4
  21569229.839       62132.02349     45003.84949  21569229.0604   21569233.9824
  20976072.840       -1235.146 9      -747.080 9  20976073.820    20976079.639
  22827592.568       87073.12119
  20472349.970      -33568.90249    -15288.86949  20472350.8254   20472355.6574
  23324774.852      324681.23949    248845.12349  23324775.6514   23324782.0244
  23436042.600     -246002.74959   -174164.52659  23436041.4044   23436047.5034
 96  2 12  0 25 30.0000000  0  6  2 12 27  7 26  4
  21573454.545       84348.21759     62315.16859  21573456.5504   21573461.5074
  20976274.091        -168.022 9        84.453 9  20976276.966    20976282.529
  22845899.114      183310.173 9    125552.27159                  22845905.9804
  20472576.853      -32378.36449    -14361.16349  20472577.3384   20472582.3474
  23331645.492      360786.74449    276979.27649  23331646.3334   23331652.2084
  23415653.716     -353116.51859   -257629.71359  23415656.6904   23415662.0724
 96  2 12  0 26  0.0000000  0  6  2 12 27  7 26  4
  21577751.313      106924.01449     79906.69849  21577752.7094   21577757.6664
  20976572.861        1393.674 9      1301.360 9  20976574.205    20976579.942
  22864291.242      279954.70159    200859.67149  22864290.1554   22864295.3584
  20472916.508      -30595.35649    -12971.79749  20472916.4454   20472921.5604
  23338620.441      397430.82749    305533.07849  23338620.3014   23338626.3784
  23395331.456     -459932.45049   -340862.94149  23395331.7364   23395336.4014
 96  2 12  0 26 30.0000000  0  6  2 12 27  7 26  4
  21582129.818      129929.60149     97833.13349  21582130.7834   21582135.5694
  20976983.092        3544.574 9      2977.394 9  20976983.529    20976989.157
  22882772.607      377093.95259    276552.56259  22882774.6794   22882781.1984
  20473383.189      -28136.54049    -11055.82349  20473384.2714   20473389.1514
  23345713.921      434720.26449    334589.77049  23345716.3054   23345721.9764
  23375075.828     -566368.34149   -423799.92149  23375077.4274   23375082.9484
 96  2 12  0 27  0.0000000  0  7  2  9 12 27  7 26  4
  21586582.976      153333.69849    116070.09849  21586584.3344   21586588.9224
  23407754.587     -285099.09059   -201076.42059  23407757.8924   23407764.1874
  20977499.815        6268.849 9      5100.214 9  20977501.783    20977507.721
  22901350.532      474709.11749    352616.30749  22901348.9384   22901355.8904
  20473974.756      -25029.01149     -8634.36149  20473975.6744   20473980.6714
  23352932.498      472655.93749    364150.02949  23352935.5604   23352940.8794
  23354891.584     -672437.23649   -506451.02149  23354892.7564   23354899.1484
 96  2 12  0 27 30.0000000  0  7  2  9 12 27  7 26  4
  21591108.463      177110.80249    134597.72349  21591108.8094   21591113.6344
  23389567.420     -380681.22959   -275555.98659  23389568.8544   23389574.1324
  20978124.505        9548.065 9      7655.454 9  20978125.960    20978131.635
  22920010.533      572782.54349    429037.11149  22920011.6274   22920019.2204
  20474684.882      -21300.57949     -5729.07549  20474684.8704   20474689.9824
  23360272.618      511225.36949    394204.13249  23360274.4354   23360280.1954
  23334771.785     -778162.43349   -588834.18849  23334773.3284   23334781.0424
 96  2 12  0 28  0.0000000  0  7  2  9 12 27  7 26  4
  21595695.213      201214.24549    153379.63349  21595695.9254   21595700.5814
  23371452.402     -475891.63349   -349745.88249  23371450.8034   23371456.3384
  20978843.605       13325.148 9     10598.642 9  20978844.691    20978850.453
  22938750.078      671259.68349    505772.53449  22938753.0604   22938758.0194
  20475497.552      -17032.59349     -2403.36049  20475497.4894   20475502.2024
  23367722.893      550370.64549    424706.95249  23367723.3574   23367728.8344
  23314710.839     -883586.34849   -670982.67449  23314712.9134   23314715.6194
 96  2 12  0 28 30.0000000  0  7  2  9 12 27  7 26  4
  21600348.532      225665.51549    172432.57449  21600348.7644   21600353.5124
  23353400.359     -570737.16549   -423651.46849  23353402.9894   23353407.7734
  20979657.447       17600.137 9     13929.809 9  20979658.310    20979663.987
  22957572.440      770150.56349    582830.35649  22957571.8934   22957575.4694
  20476407.812      -12245.39049      1326.93649  20476408.3224   20476413.1634
  23375278.508      590076.58649    455646.63149  23375279.3694   23375285.3764
  23294707.897     -988702.09149   -752890.99249  23294710.1904   23294717.2064
 96  2 12  0 29  0.0000000  0  7  2  9 12 27  7 26  4
  21605068.523      250473.83349    191763.73649  21605069.5754   21605074.5484
  23335417.271     -665254.47549   -497301.29449  23335415.4904   23335421.2864
  20980561.758       22352.582 9     17633.020 9  20980562.612    20980568.517
  22976464.191      869439.57649    660198.39449  22976465.5624   22976470.7624
  20477412.510       -6963.68549      5442.56449  20477413.0964   20477418.3104
  23382934.083      630309.21349    486996.72849  23382935.1904   23382941.8114
  23274759.842    -1093522.98349   -834569.52749  23274762.8464   23274771.3024
 96  2 12  0 29 30.0000000  0  7  2  9 12 27  7 26  4
  21609853.222      275618.08349    211356.65749  21609854.3484   21609859.2694
  23317482.991     -759482.32849   -570725.57949  23317485.1214   23317490.0924
  20981550.745       27550.550 9     21683.386 9  20981551.843    20981557.814
  22995430.062      969098.44649    737854.67149  22995429.5994   22995437.5024
  20478503.482       -1230.61049      9909.90149  20478504.3324   20478509.4874
  23390683.290      671026.55549    518724.52249  23390684.3134   23390689.7974
  23254861.164    -1198084.89249   -916046.30649  23254864.8964   23254866.8274
 96  2 12  0 30  0.0000000  0  7  2  9 12 27  7 26  4
  21614706.977      301117.73149    231226.51949  21614706.5724   21614711.6114
  23299616.698     -853387.97849   -643898.78949  23299615.8754   23299620.4944
  20982627.456       33210.969 9     26094.110 9  20982628.842    20982634.821
  23014465.593     1069129.83349    815801.19549  23014464.3474   23014467.6324
  20479684.413        4974.69349     14745.21649  20479685.2494   20479690.4534
  23398525.912      712246.67649    550844.08049  23398528.1554   23398532.2944
  23235017.960    -1302366.39049   -997304.53449  23235019.1304   23235030.1384
 96  2 12  0 30 30.0000000  0  7  2  9 12 27  7 26  4
  21619616.402      326921.70949    251333.51949  21619616.9154   21619622.1474
  23281804.176     -946986.51949   -716832.68749  23281804.3884   23281810.0034
  20983786.131       39296.881 9     30836.385 9  20983787.000    20983792.915
  23033558.309     1169481.98049    893997.62249  23033560.4764   23033568.8534
  20480950.844       11631.63549     19932.45349  20480951.6824   20480956.8794
  23406457.343      753930.52149    583324.99149  23406460.7264   23406465.2544
  23215217.570    -1406418.49149  -1078384.08949  23215218.9294   23215224.5494
 96  2 12  0 31  0.0000000  0  8  2  9 12 27  7 15 26  4
  21624576.780      352991.02249    271647.27349  21624578.0474   21624582.8444
  23264047.521    -1040289.49249   -789536.27849  23264049.5414   23264053.9804
  20985020.062       45784.133 9     35891.394 9  20985021.460    20985027.297
  23052710.435     1270119.64549    972416.56149  23052710.3064   23052716.4524
  20482302.326       18733.99149     25466.76949  20482303.6134   20482308.8244
  24475889.050       44979.51519
  23414473.777      796048.96849    616144.55449  23414474.5214   23414481.4254
  23195460.303    -1510263.86949  -1159302.51549  23195458.0704   23195467.2564
 96  2 12  0 31 30.0000000  0  8  2  9 12 27  7 15 26  4
  21629584.558      379306.93349    292153.18249  21629585.6144   21629590.4944
  23246353.561    -1133276.31849   -861993.52849  23246353.9614   23246359.7874
  20986331.699       52678.848 9     41263.904 9  20986333.387    20986339.328
  23071915.740     1371043.60649   1051058.55749  23071915.2264   23071923.3604
  20483743.408       26302.09749     31364.00349  20483743.7984   20483748.7484
  24488209.850      109729.925 9
  23422568.173      838590.57349    649293.85249  23422569.7924   23422575.5894
  23175736.461    -1613898.55949  -1240056.78649  23175737.6324   23175741.3464
 96  2 12  0 32  0.0000000  0  8  2  9 12 27  7 15 26  4
  21634633.143      405831.70049    312821.83649  21634633.1514   21634637.9744
  23228716.740    -1225974.47549   -934225.83349  23228714.8844   23228719.6294
  20987717.223       59957.137 9     46935.305 9  20987718.440    20987724.315
  23091170.460     1472223.46849   1129899.99249  23091170.2434   23091176.9134
  20485267.433       34315.98249     37608.60349  20485268.6224   20485273.7414
  24500619.055      174952.50059    125161.64359  24500621.1734   24500628.3034
  23430738.177      881526.12249    682750.11549  23430740.1094   23430746.1264
  23156050.968    -1717336.19549  -1320657.52149  23156053.6874   23156062.1304
 96  2 12  0 32 30.0000000  0  8  2  9 12 27  7 15 26  4
  21639723.266      432586.04249    333669.37349  21639724.4254   21639729.4154
  23211128.136    -1318388.36849  -1006236.63749  23211129.2364   23211133.2044
  20989179.792       67643.948 9     52925.032 9  20989181.227    20989187.093
  23110478.196     1573694.69449   1208968.43149  23110480.0674   23110486.4534
  20486880.152       42790.00449     44211.74749  20486881.0874   20486886.6284
  24513133.422      240668.78059    176369.14759  24513126.8794   24513131.9324
  23438986.845      924865.39649    716520.97349  23438987.7664   23438994.0674
  23136412.756    -1820552.12049  -1401085.48149  23136414.0134   23136419.4444
 96  2 12  0 33  0.0000000  0  8  2  9 12 27  7 15 26  4
  21644857.594      459561.58149    354689.27649  21644857.7834   21644862.5234
  23193589.455    -1410566.63349  -1078063.83849  23193588.1104   23193593.3534
  20990716.302       75718.336 9     59216.767 9  20990717.722    20990723.653
  23129840.565     1675445.88749   1288255.04849  23129841.7904   23129848.5174
  20488573.190       51686.93849     51144.43149  20488574.3284   20488579.5184
  24525718.786      306854.50549    227942.45049  24525723.0524   24525727.7444
  23447304.912      968581.41749    750585.39749  23447306.5974   23447312.3824
  23116812.603    -1923549.15949  -1481342.89549  23116814.1324   23116821.7294
 96  2 12  0 33 30.0000000  0  8  2  9 12 27  7 15 26  4
  21650035.606      486773.65549    375893.48849  21650035.7944   21650040.7434
  23176092.918    -1502504.90649  -1149704.01649  23176093.1584   23176097.9364
  20992328.202       84190.711 9     65818.621 9  20992329.916    20992335.799
  23149261.024     1777489.40549   1367769.46149  23149261.2634   23149266.3454
  20490344.014       60990.68149     58394.11549  20490344.7584   20490349.9544
  24538405.364      373516.86549    279887.12949  24538406.5954   24538413.4594
  23455701.033     1012693.24249    784958.23949  23455701.1704   23455706.3234
  23097259.574    -2026301.76149  -1561409.79149  23097261.0334   23097266.2924
 96  2 12  0 34  0.0000000  0  8  2  9 12 27  7 15 26  4
  21655260.046      514227.60449    397286.17749  21655260.2634   21655264.9944
  23158639.224    -1594226.27549  -1221175.19749  23158639.2294   23158644.6004
  20994012.248       93040.632 9     72714.669 9  20994014.182    20994019.886
  23168728.638     1879796.40449   1447489.19549  23168729.7884   23168734.9534
  20492186.184       70667.79449     65934.73149  20492186.1064   20492191.2874
  24551177.407      440631.99349    332184.66049  24551178.9534   24551185.0234
  23464167.553     1057189.61649    819630.71849  23464168.6864   23464174.0334
  23077749.386    -2128828.75749  -1641300.92149  23077750.3724   23077754.9174
 96  2 12  0 34 30.0000000  0  8  2  9 12 27  7 15 26  4
  21660529.594      541930.36049    418872.74149  21660531.9254   21660536.7894
  23141227.282    -1685724.41049  -1292472.42649  23141227.3694   23141231.9154
  20995767.581      102264.503 9     79902.102 9  20995769.315    20995775.309
  23188245.771     1982354.82949   1527404.86049  23188246.3914   23188250.3014
  20494098.739       80724.20249     73770.90649  20494099.7224   20494104.7034
  24564033.537      508193.77649    384830.21249  24564035.5424   24564040.7804
  23472706.854     1102063.21449    854597.15049  23472707.1884   23472713.1964
  23058281.107    -2231134.46749  -1721019.62349  23058283.3834   23058288.6354
 96  2 12  0 35  0.0000000  0  8  2  9 12 27  7 15 26  4
  21665855.946      569911.45549    440676.19249  21665856.2814   21665861.4444
  23123869.193    -1776940.15149  -1363549.60649  23123869.8274   23123874.6194
  20997598.565      111887.251 9     87400.351 9  20997600.385    20997606.348
  23207811.526     2085182.28949   1607530.11949  23207814.0234   23207819.8684
  20496090.433       91192.67749     81928.17049  20496091.6994   20496096.9494
  24576979.486      576223.78149    437840.64449  24576980.2794   24576986.4844
  23481321.374     1147333.53949    889872.72149  23481321.6984   23481327.4444
  23038860.107    -2333186.33649  -1800540.55349  23038863.0104   23038869.6894
 96  2 12  0 35 30.0000000  0  8  2  9 12 27  7 15 26  4
  21671230.022      598154.21049    462683.53449  21671230.7204   21671236.0244
  23106565.838    -1867860.82949  -1434396.86249  23106568.0644   23106572.7834
  20999504.857      121904.605 9     95206.083 9  20999506.626    20999512.612
  23227424.842     2188261.88249   1687851.85249  23227427.2074   23227434.4314
  20498163.875      102083.87849     90414.83149  20498164.5514   20498169.4744
  24590014.203      644714.50749    491210.03549  24590014.6114   24590021.6284
  23490009.429     1192997.59649    925455.08849  23490012.1564   23490017.7994
  23019487.146    -2435005.06649  -1879879.81149  23019487.0924   23019491.5644
 96  2 12  0 36  0.0000000  0  8  2  9 12 27  7 15 26  4
  21676653.188      626650.34549    484888.31249  21676653.1864   21676658.7414
  23089321.369    -1958484.94649  -1505013.03249  23089322.6144   23089328.2894
  21001486.966      132319.228 9    103321.375 9  21001488.610    21001494.449
  23247091.228     2291599.59949   1768374.72149  23247092.4834   23247099.8204
  20500320.527      113421.93149     99249.69049  20500321.9804   20500327.1464
  24603134.752      713665.45949    544938.07649  24603133.8584   24603140.7724
  23498775.230     1239051.38349    961341.14749  23498776.0404   23498780.9324
  23000150.915    -2536597.90549  -1959042.99549  23000155.3004   23000161.1454
 96  2 12  0 36 30.0000000  0  8  2  9 12 27  7 15 26  4
  21682117.677      655370.65349    507267.76749  21682118.6264   21682123.9304
  23072130.756    -2048826.66549  -1575409.15449  23072130.9454   23072136.2614
  21003542.446      143118.009 9    111736.011 9  21003543.707    21003549.463
  23266805.663     2395195.00049   1849098.36749  23266807.1364   23266812.8054
  20502558.792      125183.61749    108414.64549  20502560.0854   20502565.3074
  24616338.591      783060.05449    599011.79249  24616340.7624   24616346.5024
  23507610.417     1285481.08749    997520.12449  23507610.4284   23507616.4204
  22980865.519    -2637960.28049  -2038026.64449  22980865.9014   22980870.7364
 96  2 12  0 37  0.0000000  0  8  2  9 12 27  7 15 26  4
  21687625.083      684313.47849    529820.62349  21687626.3854   21687631.4604
  23054992.102    -2138890.57649  -1645588.79249  23054992.3964   23054997.9194
  21005670.954      154305.280 9    120453.366 9  21005672.372    21005678.270
  23286569.815     2499056.53649   1930029.38749  23286570.8884   23286577.0764
  20504875.105      137354.76649    117898.66949  20504876.0944   20504881.2384
  24629629.237      852899.40249    653432.08349  24629631.1464   24629635.2954
  23516518.461     1332295.94649   1033999.22349  23516519.0924   23516524.8404
  22961619.852    -2739089.59349  -2116828.64949  22961621.7474   22961626.6764
 96  2 12  0 37 30.0000000  0  8  2  9 12 27  7 15 26  4
  21693177.797      713493.21549    552558.07949  21693179.3514   21693184.3404
  23037904.525    -2228679.17249  -1715553.91749  23037906.5184   23037911.6014
  21007877.819      165903.043 9    129490.583 9  21007879.294    21007885.411
  23306386.109     2603195.28349   2011176.44149  23306386.7534   23306392.6044
  20507271.080      149949.15949    127712.49249  20507272.8574   20507277.9804
  24643008.327      923202.17649    708213.49349  24643008.4984   24643014.2564
  23525506.653     1379534.75049   1070808.67149  23525508.5154   23525514.8364
  22942424.076    -2839964.12249  -2195432.13349  22942425.5384   22942431.2064
 96  2 12  0 38  0.0000000  0  8  2  9 12 27  7 15 26  4
  21698774.320      742899.46249    575472.03949  21698775.1524   21698780.0434
  23020870.198    -2318209.93949  -1785318.13349  23020869.6774   23020874.7814
  21010160.334      177896.263 9    138835.951 9  21010161.497    21010167.609
  23326254.276     2707594.75749   2092526.69449  23326253.8064   23326260.1224
  20509743.817      162936.37949    137832.41149  20509744.3954   20509749.2184
  24656471.095      993950.33749    763341.90749  24656472.1044   24656476.1154
  23534573.243     1427173.98949   1107930.14849  23534574.8284   23534579.2804
  22923277.411    -2940577.13649  -2273831.83149  22923279.8684   22923285.1894
 96  2 12  0 38 30.0000000  0  8  2  9 12 27  7 15 26  4
  21704411.561      772519.41649    598552.52649  21704411.6234   21704416.7784
  23003880.721    -2407488.42049  -1854885.77149  23003880.6284   23003885.4984
  21012514.702      190269.624 9    148477.532 9  21012516.194    21012522.271
  23346162.254     2812216.42849   2174050.03649  23346164.3944   23346168.9594
  20512283.933      176287.29249    148235.72249  20512284.9634   20512289.9774
  24670016.108     1065125.42149    818803.08049  24670015.9414   24670020.7114
  23543708.837     1475192.00549   1145346.76349  23543711.1484   23543716.7344
  22904180.356    -3040938.78349  -2352035.67749  22904181.6744   22904188.4674
 96  2 12  0 39  0.0000000  0  8  2  9 12 27  7 15 26  4
  21710091.981      802376.40249    621817.71349  21710092.8564   21710098.2264
  22986944.397    -2496488.99949  -1924236.84949  22986944.3304   22986949.1184
  21014946.521      203046.757 9    158433.745 9  21014947.610    21014953.879
  23366115.665     2917061.12349   2255747.17849  23366114.8404   23366120.3104
  20514899.355      190035.51549    158948.63049  20514900.7654   20514905.7864
  24683644.217     1136747.70949    874612.63249  24683645.6854   24683650.6554
  23552921.111     1523595.96549   1183064.13349  23552922.6004   23552927.7424
  22885129.088    -3141039.63249  -2430036.29749  22885132.4064   22885138.5074
 96  2 12  0 39 30.0000000  0  7  2  9 12 27  7 26  4
  21715818.502      832467.70749    645265.48349  21715819.4234   21715824.3964
  22970059.190    -2585212.53649  -1993372.05849  22970060.5704   22970065.2394
  21017451.250      216215.258 9    168694.918 9  21017453.410    21017459.614
  23386104.456     3022114.27849   2337606.75949  23386104.5144   23386111.2054
  20517589.541      204170.17649    169962.65449  20517590.5064   20517595.3234
  23562200.163     1572356.47649   1221059.31949  23562201.4874   23562206.9824
  22866130.699    -3240884.22349  -2507837.23049  22866133.9204   22866139.7554
 96  2 12  0 40  0.0000000  0  7  2  9 12 27  7 26  4
  21721593.232      862812.02849    668910.41249  21721593.9154   21721598.6414
  22953238.139    -2673621.47149  -2062262.12149  22953237.0174   22953241.8234
  21020035.730      229788.499 9    179271.475 9  21020036.413    21020042.414
  23406137.969     3127397.47049   2419645.57349  23406140.5484   23406145.8164
  20520353.418      218694.97649    181280.68849  20520354.9164   20520359.7704
  23571547.783     1621470.06549   1259329.64249  23571547.7824   23571552.8814
  22847183.031    -3340465.18649  -2585432.77949  22847184.7084   22847188.6554
 96  2 12  0 40 30.0000000  0  7  2  9 12 27  7 26  4
  21727422.160      893442.49649    692778.31049  21727422.6214   21727427.5244
  22936475.477    -2761682.11049  -2130880.78249  22936479.0844   22936484.3774
  21022700.171      243797.494 9    190187.577 9  21022702.143    21022708.240
  23426226.975     3232941.83549   2501887.88049  23426223.7564   23426231.9854
  20523197.719      233638.21149    192924.77249  20523198.5834   20523203.3884
  23580964.680     1670961.90449   1297894.70749  23580965.9514   23580970.6174
  22828285.823    -3439762.66949  -2662807.40549  22828287.4244   22828293.1694
 96  2 12  0 41  0.0000000  0  7  2  9 12 27  7 26  4
  21733302.986      924346.19849    716859.12249  21733303.1704   21733308.4984
  22919782.782    -2849420.43649  -2199248.29649  22919783.5374   22919788.6864
  21025446.105      258224.959 9    201429.764 9  21025447.685    21025453.700
  23446357.214     3338743.83249   2584330.97349  23446357.8304   23446364.0784
  20526119.442      248990.19849    204887.36249  20526120.0404   20526124.8714
  23590450.911     1720815.73749   1336741.83349  23590452.2144   23590458.9944
  22809440.926    -3538795.02949  -2739975.46349  22809443.3804   22809446.9404
 96  2 12  0 41 30.0000000  0  7  2  9 12 27  7 26  4
  21739232.315      955512.83149    741144.80649  21739234.0804   21739239.1674
  22903146.539    -2936844.41949  -2267370.86149  22903147.3194   22903152.0624
  21028270.602      273071.991 9    212998.880 9  21028272.890    21028278.990
  23466541.161     3444809.32549   2666979.38149  23466541.5324   23466548.6084
  20529116.571      264744.93049    217163.78349  20529117.8334   20529122.9134
  23600010.489     1771045.70149   1375882.04149  23600011.4544   23600016.7034
  22790647.936    -3637556.21649  -2816932.22549  22790649.5974   22790653.1444
 96  2 12  0 42  0.0000000  0  7  2  9 12 27  7 26  4
  21745199.389      986858.99449    765570.38949  21745199.1804   21745204.2944
  22886553.135    -3024037.42849  -2335313.45349  22886554.5914   22886560.3314
  21031163.192      288268.497 9    224840.318 9  21031164.840    21031170.872
  23486757.438     3551061.29949   2749773.06649  23486760.6064   23486768.0734
  20532179.429      280835.06749    229701.55749  20532179.5844   20532184.8224
  23609624.984     1821579.62149   1415259.11049  23609627.6964   23609632.4204
  22771890.768    -3736116.35149  -2893732.28249  22771893.3184   22771898.4954
 96  2 12  0 42 30.0000000  0  7  2  9 12 27  7 26  4
  21751201.773     1018412.89749    790157.84649  21751203.5414   21751208.6334
  22870004.858    -3110988.81549  -2403067.76149  22870008.2914   22870013.7154
  21034126.498      303841.909 9    236975.443 9  21034128.293    21034134.301
  23507020.949     3657516.97349   2832725.48549  23507019.8964   23507024.8494
  20535312.197      297306.02349    242536.07649  20535313.7814   20535318.9084
  23619303.498     1872438.86849   1454889.66449  23619305.1464   23619310.9374
  22753183.546    -3834432.92149  -2970342.57549  22753184.7024   22753189.4894
 96  2 12  0 43  0.0000000  0  7  2  9 12 27  7 26  4
  21757238.858     1050135.18249    814876.50749  21757239.9614   21757245.3404
  22853501.409    -3197733.24949  -2470660.81149  22853501.4124   22853506.6074
  21037155.908      319756.809 9    249376.665 9  21037156.756    21037162.815
  23527305.282     3764135.23349   2915804.60449  23527307.0804   23527314.3574
  20538512.997      314120.88849    255638.57349  20538513.6804   20538518.6104
  23629037.073     1923588.85549   1494746.77649  23629038.6004   23629043.9854
  22734515.838    -3932529.66149  -3046781.54949  22734517.4514   22734522.2924
 96  2 12  0 43 30.0000000  0  7  2  9 12 27  7 26  4
  21763319.181     1082088.42449    839775.13749  21763320.6454   21763325.7524
  22837048.267    -3284197.76049  -2538035.74849  22837047.8234   22837052.8954
  21040259.281      336066.583 9    262085.582 9  21040260.554    21040266.589
  23547631.439     3870964.53849   2999048.13249  23547636.5814   23547643.5904
  20541785.716      331319.70449    269040.25349  20541786.5624   20541791.6554
  23638834.794     1975073.10549   1534864.35549  23638836.8134   23638841.8994
  22715902.416    -4030346.66049  -3123002.57049  22715903.5624   22715907.8224
 96  2 12  0 44  0.0000000  0  7  2  9 12 27  7 26  4
  21769439.790     1114253.78349    864839.05249  21769441.4244   21769446.3944
  22820641.043    -3370400.90849  -2605207.01649  22820643.8254   22820648.9414
  21043428.581      352726.796 9    275067.564 9  21043430.854    21043436.864
  23567996.609     3977956.01249   3082418.09849  23567997.4664   23568001.2364
  20545124.195      348863.63349    282710.85349  20545125.0384   20545130.0954
  23648685.025     2026835.82449   1575198.93349  23648685.5534   23648691.7704
  22697334.231    -4127915.37849  -3199030.11549  22697336.8834   22697342.0824
 96  2 12  0 44 30.0000000  0  7  2  9 12 27  7 26  4
  21775608.217     1146665.38849    890094.84349  21775609.2424   21775614.3834
  22804294.105    -3456300.06149  -2672141.40249  22804297.9574   22804302.6114
  21046671.460      369762.204 9    288341.910 9  21046672.609    21046678.662
  23588388.816     4085131.10149   3165931.12949  23588390.1344   23588396.8494
  20548531.877      366770.42949    296664.20649  20548532.7734   20548537.5964
  23658596.449     2078917.94449   1615782.37749  23658598.1124   23658602.9864
  22678820.085    -4225205.59449  -3274840.65049  22678822.0314   22678827.8024
 96  2 12  0 45  0.0000000  0  7  2  9 12 27  7 26  4
  21781826.754     1179341.56549    915556.80249  21781827.2494   21781832.3224
  22788016.709    -3541861.31549  -2738812.49649  22788016.2524   22788021.0224
  21049987.435      387189.952 9    301921.975 9  21049989.058    21049994.997
  23608824.262     4192511.62249   3249604.23849  23608824.6154   23608831.7814
  20552008.471      385043.44649    310902.92849  20552009.9064   20552015.0504
  23668571.702     2131341.98749   1656632.26649  23668572.9514   23668579.5744
  22660362.525    -4322202.42949  -3350422.54949  22660365.3894   22660369.9554
 96  2 12  0 45 30.0000000  0  7  2  9 12 27  7 26  4
  21788097.487     1212294.64149    941234.52549  21788098.1114   21788103.3294
  22771796.379    -3627080.77749  -2805217.25749  22771799.3364   22771804.4004
  21053379.696      405013.882 9    315810.753 9  21053380.770    21053386.807
  23629296.890     4300094.63249   3333435.14049  23629296.9424   23629303.9514
  20555557.197      403689.93649    325432.66549  20555558.1904   20555563.1694
  23678611.787     2184109.90649   1697750.11249  23678613.9594   23678619.6234
  22641960.851    -4418907.47149  -3425777.10749  22641961.7004   22641966.6724
 96  2 12  0 46  0.0000000  0  7  2  9 12 27  7 26  4
  21794415.336     1245498.09849    967107.34349  21794416.5624   21794421.8324
  22755643.184    -3711983.89049  -2871375.50149  22755643.1214   22755647.7084
  21056844.182      423224.068 9    330000.512 9  21056846.068    21056852.095
  23649803.800     4407868.46349   3417414.71549  23649806.7114   23649814.4304
  20559173.885      422694.79149    340241.64949  20559174.7834   20559179.7254
  23688718.362     2237208.47449   1739125.60149  23688717.9034   23688723.5854
  22623613.094    -4515334.11949  -3500914.71549  22623613.9134   22623618.0584
 96  2 12  0 46 30.0000000  0  7  2  9 12 27  7 26  4
  21800772.441     1278902.54949    993136.78249  21800773.1714   21800778.3624
  22739536.488    -3796608.39249  -2937316.65749  22739539.5514   22739543.9464
  21060376.322      441792.511 9    344469.430 9  21060379.508    21060385.655
  23670345.912     4515809.96049   3501524.93449  23670345.8914   23670353.1844
  20562849.897      442014.30449    355295.81849  20562851.2824   20562856.0994
  23698876.396     2290597.51049   1780727.41349  23698878.0354   23698882.4434
  22605306.875    -4611518.71449  -3575863.68549  22605310.1834   22605315.8604
 96  2 12  0 47  0.0000000  0  7  2  9 12 27  7 26  4
  21807171.310     1312533.97649   1019343.09149  21807172.7744   21807178.0224
  22723494.160    -3880925.12449  -3003017.98549  22723494.4434   22723498.9574
  21063985.540      460750.078 9    359241.559 9  21063987.023    21063993.148
  23690923.078     4623941.53049   3585783.26949  23690923.8704   23690928.7094
  20566592.471      461680.49349    370620.12349  20566593.7204   20566598.4174
  23709091.673     2344274.87249   1822553.91549  23709093.2484   23709098.9914
  22587054.225    -4707438.57549  -3650606.41649  22587055.7514   22587062.8594
 96  2 12  0 47 30.0000000  0  7  2  9 12 27  7 26  4
  21813609.983     1346366.28149   1045705.92449  21813611.1314   21813616.3184
  22707502.857    -3964947.14549  -3068489.66749  22707505.2364   22707510.3724
  21067665.975      480087.781 9    374309.900 9  21067666.962    21067672.894
  23711531.686     4732245.16049   3670175.70649  23711530.8444   23711538.3564
  20570398.066      481676.61349    386201.52049  20570398.6744   20570403.6774
  23719357.412     2398222.92049   1864591.33749  23719359.6194   23719364.2724
  22568849.942    -4803102.99849  -3725150.10349  22568852.0324   22568858.4814
 96  2 12  0 48  0.0000000  0  7  2  9 12 27  7 26  4
  21820081.883     1380376.92049   1072207.71849  21820083.0664   21820088.4884
  22691572.976    -4048668.48349  -3133727.06249  22691574.0204   22691578.7924
  21071415.604      499801.178 9    389670.986 9  21071418.261    21071424.199
  23732172.797     4840720.01049   3754701.51149  23732175.4714   23732180.1344
  20574263.999      501993.46449    402032.83549  20574264.6444   20574269.8784
  23729674.664     2452438.84249   1906837.47849  23729676.4384   23729681.3124
  22550696.459    -4898506.02749  -3799490.08549  22550698.5784   22550703.0464
 96  2 12  0 48 30.0000000  0  7  2  9 12 27  7 26  4
  21826589.123     1414568.38149   1098850.41249  21826589.8954   21826595.0214
  22675701.123    -4132075.46249  -3198719.49049  22675701.6984   22675706.6104
  21075239.349      519892.425 9    405326.504 9  21075241.428    21075247.402
  23752846.661     4949355.91949   3839352.85449  23752847.9614   23752852.8334
  20578192.412      522642.21149    418122.76849  20578194.1404   20578198.9904
  23740044.381     2506933.86249   1949301.10349  23740045.6444   23740051.4564
  22532593.487    -4993637.52449  -3873618.51649  22532594.9734   22532600.3694
 96  2 12  0 49  0.0000000  0  7  2  9 12 27  7 26  4
  21833139.342     1448988.95549   1125671.63449  21833139.7864   21833144.8394
  22659896.427    -4215126.80749  -3263434.81649  22659898.0554   22659902.7344
  21079142.323      540404.713 9    421310.104 9  21079144.789    21079150.766
  23773558.804     5058184.28549   3924154.15849  23773557.1864   23773562.1654
  20582193.890      543668.09749    434506.57949  20582195.2334   20582200.3234
  23750480.253     2561770.42549   1992030.88349  23750480.6414   23750487.1114
  22514551.300    -5088449.88349  -3947498.22449  22514552.6234   22514557.7034
 96  2 12  0 49 30.0000000  0  7  2  9 12 27  7 26  4
  21839720.795     1483586.30649   1152630.60949  21839723.1524   21839728.4834
  22644147.636    -4297877.23549  -3327915.65049  22644151.1274   22644155.4074
  21083115.248      561280.690 9    437577.098 9  21083117.387    21083123.306
  23794290.841     5167151.69649   4009063.78249  23794292.5604   23794298.4814
  20586257.027      565015.97649    451141.28849  20586257.6574   20586262.7104
  23760972.083     2616911.69349   2034998.07749  23760973.9534   23760979.7504
  22496562.390    -5182983.85649  -4021161.02849  22496564.3634   22496568.0144
 96  2 12  0 50  0.0000000  0  7  2  9 12 27  7 26  4
  21846341.289     1518365.63949   1179731.38749  21846341.8214   21846346.4594
  22628457.355    -4380346.58549  -3392177.46449  22628457.7344   22628462.5604
  21087153.844      582506.115 9    454116.388 9  21087156.416    21087162.385
  23815052.531     5276240.03849   4094067.63449  23815053.4194   23815057.2674
  20590379.312      586678.18549    468020.93249  20590379.9324   20590384.9724
  23771519.579     2672337.35849   2078186.89749  23771520.9284   23771527.6884
  22478622.420    -5277252.41449  -4094617.00449  22478624.8534   22478629.3914
 96  2 12  0 50 30.0000000  0  7  2  9 12 27  7 26  4
  21853005.595     1553392.98349   1207025.41849  21853007.0474   21853012.1464
  22612819.959    -4462501.21749  -3456194.04449  22612823.7794   22612828.6984
  21091268.943      604125.967 9    470963.023 9  21091270.519    21091276.552
  23835838.971     5385486.66649   4179194.85949  23835841.6484   23835846.6514
  20594569.357      608700.24449    485180.97949  20594570.6324   20594575.7414
  23782126.203     2728079.01149   2121621.92149  23782128.8234   23782134.8904
  22460742.033    -5371213.66149  -4167833.54149  22460744.2814   22460749.5984
 96  2 12  0 51  0.0000000  0  7  2  9 12 27  7 26  4
  21859720.400     1588672.59949   1234516.02349  21859720.7104   21859725.8234
  22597245.345    -4544352.91749  -3519974.57549  22597248.0484   22597252.7684
  21095455.254      626128.164 9    488107.594 9  21095457.442    21095463.467
  23856655.411     5494881.50749   4264437.54249  23856656.8954   23856663.7484
  20598826.066      631062.46549    502606.08649  20598826.0084   20598830.9654
  23792787.337     2784104.03949   2165277.76849  23792788.9014   23792796.6564
  22442917.222    -5464879.86849  -4240820.17249  22442920.3394   22442925.4284
 96  2 12  0 51 30.0000000  0  7  2  9 12 27  7 26  4
  21866483.072     1624210.57749   1262207.95049  21866483.1654   21866488.4004
  22581730.185    -4625900.92449  -3583518.45949  22581730.2714   22581735.2114
  21099715.101      648513.186 9    505550.470 9  21099717.062    21099723.192
  23877503.103     5604431.31949   4349800.96849  23877505.3754   23877509.8294
  20603144.256      653762.19349    520294.18849  20603145.6504   20603150.6404
  23803497.903     2840386.08349   2209133.90049  23803499.4744   23803506.4164
  22425149.873    -5558254.73749  -4313579.77549  22425152.3684   22425157.1184
 96  2 12  0 52  0.0000000  0  7  2  9 12 27  7 26  4
  21873299.720     1660038.96849   1290126.17349  21873300.9644   21873306.0704
  22566272.473    -4707119.61049  -3646805.72349  22566275.1304   22566279.7454
  21104053.692      671313.863 9    523317.231 9  21104055.958    21104061.987
  23898381.766     5714161.05549   4435304.64949  23898387.0964   23898391.8114
  20607532.895      676821.61649    538262.57049  20607533.7754   20607538.6024
  23814262.794     2896954.12649   2253212.88349  23814264.4534   23814271.1774
  22407441.543    -5651310.21549  -4386090.51449  22407444.2034   22407448.9964
 96  2 12  0 52 30.0000000  0  7  2  9 12 27  7 26  4
  21880169.803     1696137.04349   1318254.54249  21880170.4954   21880175.6304
  22550881.354    -4788008.91949  -3709836.32949  22550881.6274   22550886.7254
  21108470.300      694517.946 9    541398.336 9  21108471.487    21108477.609
  23919295.056     5824055.42149   4520936.62049  23919299.3794   23919303.4604
  20611985.116      700222.73649    556497.21649  20611986.4284   20611991.4904
  23825080.196     2953798.56249   2297507.22349  23825080.9684   23825087.9294
  22389795.405    -5744050.61049  -4458355.72549  22389796.2164   22389801.4704
 96  2 12  0 53  0.0000000  0  7  2  9 12 27  7 26  4
  21887089.571     1732504.48349   1346592.79649  21887090.7884   21887096.3374
  22535552.773    -4868551.46949  -3772596.73349  22535555.1554   22535560.4214
  21112963.487      718134.796 9    559801.074 9  21112965.491    21112971.817
  23940246.006     5934129.21949   4606708.40649  23940245.0504   23940250.7264
  20616503.890      723969.60849    575001.27649  20616505.6224   20616510.3644
  23835952.440     3010934.50249   2342028.71449  23835954.1344   23835958.8334
  22372207.266    -5836466.22149  -4530367.84349  22372210.0814   22372215.1164
 96  2 12  0 53 30.0000000  0  7  2  9 12 27  7 26  4
  21894051.946     1769088.01849   1375099.44449  21894052.4904   21894057.7864
  22520287.609    -4948781.66649  -3835113.76449  22520287.9064   22520292.6894
  21117531.548      742138.314 9    578505.113 9  21117533.232    21117539.402
  23961218.524     6044352.78849   4692596.87349  23961218.5634   23961225.7834
  20621084.965      748039.28049    593756.86749  20621085.8824   20621090.8694
  23846879.390     3068353.03549   2386770.41949  23846881.4134   23846885.6554
  22354679.626    -5928575.37849  -4602141.16249  22354682.1514   22354688.0114
 96  2 12  0 54  0.0000000  0  7  2  9 12 27  7 26  4
  21901049.506     1805863.83549   1403755.92749  21901050.7144   21901056.0214
  22505079.666    -5028698.90149  -3897386.92449  22505080.4234   22505085.2874
  21122169.970      766514.580 9    597499.606 9  21122171.907    21122178.150
  23982214.713     6154705.90249   4778586.28249  23982218.3064   23982226.6284
  20625723.817      772418.97849    612754.03949  20625725.0474   20625730.2004
  23857858.865     3126049.48649   2431728.68849  23857859.6404   23857865.4354
  22337210.619    -6020380.25249  -4673677.38949  22337211.6744   22337217.5274
 96  2 12  0 54 30.0000000  0  7  2  9 12 27  7 26  4
  21908087.290     1842849.12249   1432575.62449  21908088.9834   21908094.1174
  22489938.651    -5108257.70349  -3959380.77149  22489940.6154   22489945.5644
  21126885.756      791292.865 9    616807.356 9  21126887.082    21126893.350
  24003250.375     6265234.35949   4864712.31249  24003252.5804   24003259.3134
  20630427.585      797139.39449    632016.70349  20630429.4364   20630434.3704
  23868892.394     3184032.24149   2476910.01349  23868893.5924   23868900.7734
  22319803.464    -6111854.72549  -4744956.16349  22319805.4664   22319810.2924
 96  2 12  0 55  0.0000000  0  7  2  9 12 27  7 26  4
  21915163.147     1880036.34949   1461552.67949  21915165.0454   21915170.4264
  22474865.629    -5187471.75849  -4021106.00249  22474866.3994   22474871.1234
  21131675.572      816465.152 9    636422.122 9  21131677.355    21131683.468
  24024313.874     6375935.28349   4950972.74049  24024317.3074   24024324.2814
  20635195.025      822190.66749    651537.17649  20635196.1944   20635201.4044
  23879976.245     3242285.12649   2522301.85049  23879979.7384   23879985.4614
  22302458.601    -6203003.86849  -4815981.42749  22302460.4904   22302465.1514
 96  2 12  0 55 30.0000000  0  7  2  9 12 27  7 26  4
  21922278.905     1917425.80949   1490687.31849  21922280.2984   21922285.4554
  22459854.958    -5266342.41949  -4082563.64449  22459857.8244   22459862.9734
  21136539.614      842025.917 9    656339.599 9  21136541.357    21136547.541
  24045413.273     6486786.37449   5037350.17849  24045412.0594   24045417.7284
  20640024.851      847568.28249    671311.94549  20640025.2964   20640030.6254
  23891108.998     3300785.51149   2567886.52549  23891111.1694   23891117.6194
  22285175.293    -6293825.84249  -4886751.73249  22285177.1384   22285181.9084
 96  2 12  0 56  0.0000000  0  7  2  9 12 27  7 26  4
  21929440.689     1955060.23049   1520012.84449  21929441.9594   21929447.1094
  22444917.002    -5344852.16049  -4143740.05049  22444917.9884   22444922.7634
  21141479.776      867984.782 9    676567.280 9  21141481.264    21141487.408
  24066533.461     6597789.67249   5123846.22949  24066535.5534   24066541.2064
  20644916.584      873279.84449    691346.92749  20644918.3234   20644923.5734
  23902284.910     3359515.93449   2613650.49849  23902286.8634   23902291.7234
  22267955.712    -6384314.25549  -4957262.12549  22267957.6954   22267962.8444
 96  2 12  0 56 30.0000000  0  7  2  9 12 27  7 26  4
  21936650.157     1992942.26149   1549531.30949  21936650.4344   21936655.7834
  22430042.497    -5423013.91449  -4204645.30149  22430044.1284   22430048.9324
  21146494.618      894343.383 9    697106.448 9  21146497.127    21146503.349
  24087682.927     6708924.17549   5210444.53949  24087684.0054   24087690.0154
  20649874.563      899329.77449    711645.57649  20649875.4644   20649880.5354
  23913505.160     3418473.16149   2659591.17849  23913507.7744   23913511.5754
  22250801.567    -6474458.82849  -5027504.60849  22250803.8004   22250808.7504
 96  2 12  0 57  0.0000000  0  7  2  9 12 27  7 26  4
  21943910.054     2031095.48949   1579261.09449  21943911.2914   21943916.1074
  22415238.461    -5500816.37949  -4265270.59049  22415239.3294   22415244.0054
  21151590.075      921114.990 9    717967.437 9  21151591.612    21151597.675
  24108851.708     6820172.01449   5297131.14649  24108853.3884   24108859.8274
  20654897.765      925731.91149    732218.67249  20654899.4224   20654904.3694
  23924769.916     3477680.57649   2705726.80049  23924772.5044   23924779.0434
  22233719.274    -6564231.29349  -5097457.13249  22233720.9124   22233725.8134
 96  2 12  0 57 30.0000000  0  7  2  9 12 27  7 26  4
  21951219.244     2069504.71849   1609190.36249  21951219.9674   21951225.1674
  22400501.877    -5578258.46549  -4325615.05349  22400502.3464   22400507.1854
  21156761.324      948291.008 9    739143.552 9  21156762.996    21156769.174
  24130038.954     6931516.80549   5383893.31249  24130041.5244   24130048.3474
  20659986.790      952473.18349    753056.02949  20659988.2334   20659993.1064
  23936083.150     3537127.54749   2752049.07449  23936086.8954   23936090.9424
  22216704.185    -6653641.03049  -5167127.02249  22216706.7394   22216712.3244
 96  2 12  0 58  0.0000000  0  7  2  9 12 27  7 26  4
  21958572.902     2108156.74849   1639308.81949  21958575.3234   21958580.2944
  22385835.662    -5655332.20149  -4385672.50649  22385835.7364   22385840.4444
  21162009.264      975870.120 9    760633.765 9  21162011.048    21162017.118
  24151246.772     7042970.02249   5470739.96449  24151250.3104   24151255.4744
  20665139.538      979550.57449    774155.29749  20665141.0434   20665145.6554
  23947444.247     3596826.20849   2798567.50449  23947445.3794   23947451.8334
  22199758.689    -6742689.47649  -5236515.38349  22199760.8174   22199766.4114
 96  2 12  0 58 30.0000000  0  7  2  9 12 27  7 26  4
  21965972.660     2147039.47149   1669607.04249  21965974.3974   21965979.5634
  22371240.833    -5732023.93549  -4445432.27749  22371241.7004   22371246.4364
  21167335.928     1003861.939 9    782445.571 9  21167337.862    21167343.885
  24172480.297     7154553.05649   5557687.78549  24172482.9674   24172487.8964
  20670356.103     1006960.56849    795513.73649  20670356.9434   20670361.8764
  23958857.152     3656797.50649   2845298.35949  23958858.4154   23958862.1444
  22182884.085    -6831362.89849  -5305611.50149  22182887.0644   22182892.0614
 96  2 12  0 59  0.0000000  0  7  2  9 12 27  7 26  4
  21973420.019     2186177.34249   1700104.08349  21973422.2744   21973427.3584
  22356721.870    -5808312.64049  -4504878.00249  22356724.3594   22356729.3184
  21172743.920     1032279.881 9    804589.415 9  21172745.610    21172751.844
  24193747.742     7266304.13449   5644766.52949  24193749.7734   24193754.8404
  20675634.568     1034702.30649    817130.67849  20675635.8454   20675640.9394
  23970320.397     3717043.90849   2892243.60649  23970322.0704   23970327.0204
  22166083.385    -6919657.99549  -5374412.82249  22166084.9274   22166090.4764
 96  2 12  0 59 30.0000000  0  7  2  9 12 27  7 26  4
  21980909.176     2225529.17549   1730767.84049  21980910.5434   21980915.5074
  22342271.146    -5884255.70449  -4564054.41449  22342272.9074   22342277.7654
  21178224.295     1061079.417 9    827030.610 9  21178225.797    21178231.989
  24215038.693     7378195.54849   5731954.64549  24215041.6074   24215047.3364
  20680967.724     1062725.49849    838966.93649  20680968.7654   20680973.5894
  23981826.513     3777514.72549   2939363.68349  23981830.3194   23981834.8054
  22149342.493    -7007631.23849  -5442963.35749  22149344.1594   22149349.4134
 96  2 12  1  0  0.0000000  0  7  2  9 12 27  7 26  4
  21988446.329     2265130.86249   1761626.29649  21988446.4744   21988451.4194
  22327889.374    -5959836.59049  -4622948.59349  22327890.3234   22327895.2084
  21183781.553     1090287.463 9    849790.120 9  21183783.930    21183790.221
  24236364.195     7490242.32549   5819263.85049  24236363.8384   24236369.4344
  20686357.338     1091052.93849    861040.26549  20686359.1654   20686364.1504
  23993383.789     3838237.01749   2986679.74449  23993385.3874   23993391.4364
  22132668.916    -7095250.20249  -5511237.83849  22132670.6014   22132675.5804
 96  2 12  1  0 30.0000000  0  7  2  9 12 27  7 26  4
  21996027.193     2304978.04749   1792676.04649  21996029.0324   21996034.2404
  22313572.323    -6035068.64149  -4681570.95249  22313574.0114   22313578.6814
  21189415.978     1119895.853 9    872861.592 9  21189418.305    21189424.388
  24257707.074     7602423.98349   5906678.08949  24257710.8534   24257716.9734
  20691801.782     1119661.33549    883332.53049  20691803.1374   20691807.9014
  24004980.186     3899186.77949   3034173.03249  24004983.1054   24004990.1524
  22116060.929    -7182522.94249  -5579242.52949  22116063.0554   22116068.3524
 96  2 12  1  1  0.0000000  0  7  2  9 12 27  7 26  4
  22003659.983     2345082.31649   1823926.11449  22003660.9034   22003665.9424
  22299325.377    -6109945.53649  -4739916.57649  22299325.5204   22299330.0164
  21195127.308     1149909.225 9    896248.629 9  21195129.692    21195135.799
  24279080.616     7714739.13149   5994196.35349  24279083.7624   24279089.5444
  20697303.491     1148569.48849    905858.37049  20697304.1964   20697309.3524
  24016622.886     3960362.70049   3081842.54749  24016624.8654   24016630.4004
  22099517.996    -7269452.78249  -5646980.01049  22099520.9024   22099526.1454
 96  2 12  1  1 30.0000000  0  7  2  9 12 27  7 26  4
  22011338.645     2385439.32249   1855373.13049  22011340.5654   22011345.3544
  22285146.095    -6184448.32449  -4797970.67549  22285148.4124   22285153.2864
  21200916.214     1180332.214 9    919954.848 9  21200919.047    21200925.063
  24300480.334     7827177.22549   6081810.45949  24300479.4384   24300486.1004
  20702864.144     1177793.69349    928630.48149  20702865.0934   20702870.1384
  24028310.538     4021776.61649   3129697.54249  24028310.6924   24028317.4574
  22083042.812    -7356035.44649  -5714446.98349  22083044.5814   22083050.0414
 96  2 12  1  2  0.0000000  0  8  2  9 12 27 24  7 26  4
  22019062.247     2426022.95149   1886996.73149  22019063.1224   22019068.4814
  22271040.737    -6258577.27749  -4855733.48449  22271041.9684   22271047.2614
  21206779.889     1211143.722 9    943963.807 9  21206782.278    21206788.322
  24321888.909     7939703.82249   6169493.48749  24321892.5454   24321898.8484
  24517006.965     -337936.25919   -238523.63959                  24517014.6164
  20708482.948     1207321.12249    951638.87049  20708484.1764   20708489.2164
  24040038.300     4083411.37649   3177724.57849  24040039.9634   24040046.0284
  22066630.534    -7442279.42249  -5781650.03749  22066633.1934   22066638.7844
 96  2 12  1  2 30.0000000  0  8  2  9 12 27 24  7 26  4
  22026832.290     2466852.72649   1918812.13349  22026832.6954   22026838.3344
  22257011.112    -6332302.72949  -4913181.86149  22257012.5594   22257017.2564
  21212722.473     1242366.765 9    968293.444 9  21212723.823    21212730.049
  24343329.464     8052355.46349   6257273.95249  24343330.1384   24343336.4744
  24495238.443     -452304.29559   -327641.55249  24495243.5644   24495251.0014
  20714166.122     1237185.66349    974909.94649  20714167.2434   20714172.1924
  24051812.011     4145288.36949   3225940.39249  24051814.6784   24051819.4684
  22050289.009    -7528158.89449  -5848569.07849  22050290.6324   22050296.5594
 96  2 12  1  3  0.0000000  0  8  2  9 12 27 24  7 26  4
  22034648.401     2507933.77449   1950823.32249  22034650.1854   22034655.6054
  22243057.001    -6405622.18249  -4970313.88949  22243060.5154   22243065.0734
  21218742.372     1274005.188 9    992946.750 9  21218744.469    21218750.575
  24364792.757     8165133.99349   6345153.29649  24364790.6614   24364797.3904
  24473483.942     -566642.61449   -416736.32759  24473485.6714   24473492.5874
  20719916.395     1267404.72149    998457.26449  20719917.7784   20719922.7254
  24063636.097     4207424.76549   3274358.35149  24063640.1194   24063644.8154
  22034018.468    -7613655.62849  -5915189.87649  22034021.2024   22034026.6214
 96  2 12  1  3 30.0000000  0  8  2  9 12 27 24  7 26  4
  22042509.548     2549244.89749   1983013.80349  22042511.5394   22042516.5794
  22229181.348    -6478560.47149  -5027148.91349  22229180.5814   22229185.2604
  21224838.674     1306038.334 9   1017907.637 9  21224840.110    21224846.296
  24386270.778     8278015.81549   6433113.12849  24386270.9504   24386277.0894
  24451726.240     -680976.87059   -505827.91849  24451728.6434   24451735.3014
  20725726.567     1297936.58149   1022248.32149  20725727.6034   20725732.8724
  24075507.010     4269802.03249   3322963.99649  24075509.4824   24075514.5304
  22017823.651    -7698764.77149  -5981508.66349  22017825.3654   22017830.7544
 96  2 12  1  4  0.0000000  0  8  2  9 12 27 24  7 26  4
  22050417.482     2590799.05549   2015393.66449  22050418.9384   22050424.3184
  22215373.242    -6551122.03649  -5083690.37749  22215372.5224   22215377.5894
  21231011.486     1338480.140 9   1043186.959 9  21231013.512    21231019.809
  24407774.813     8391016.98149   6521165.97349  24407775.5254   24407781.8014
  24429972.347     -795300.98349   -594911.53749  24429973.2224   24429980.6244
  20731593.537     1328774.91549   1046278.19649  20731595.9664   20731601.1124
  24087422.982     4332423.15249   3371759.63249  24087425.5584   24087431.2204
  22001705.661    -7783467.09649  -6047510.42649  22001707.3294   22001712.3124
 96  2 12  1  4 30.0000000  0  8  2  9 12 27 24  7 26  4
  22058367.432     2632575.84349   2047946.99549  22058368.9364   22058373.9434
  22201633.032    -6623321.15349  -5139949.41749  22201633.5544   22201638.0654
  21237261.005     1371318.328 9   1068775.150 9  21237262.465    21237268.782
  24429295.140     8504129.19749   6609305.32349  24429299.6154   24429304.4324
  24408217.251     -909619.03449   -683990.45349  24408218.8374   24408226.1454
  20737514.859     1359884.77549   1070519.64749  20737516.2924   20737521.0534
  24099381.134     4395254.79149   3420719.32749  24099383.0644   24099388.7234
  21985659.560    -7867779.10349  -6113208.05349  21985663.2874   21985668.6574
 96  2 12  1  5  0.0000000  0  8  2  9 12 27 24  7 26  4
  22066361.173     2674582.85149   2080679.72349  22066362.6894   22066367.7504
  22187965.176    -6695143.43549  -5195914.82749  22187965.9444   22187970.5794
  21243584.672     1404557.515 9   1094675.809 9  21243587.620    21243594.004
  24450842.912     8617344.20649   6697524.83049  24450842.8534   24450851.2304
  24386466.643    -1023918.11849   -773054.54049  24386469.0164   24386476.4364
  20743483.095     1391245.84349   1094956.84349  20743483.8164   20743488.8824
  24111375.952     4458284.50949   3469833.35949  24111377.3794   24111383.0754
  21969691.286    -7951700.78749  -6178601.55249  21969693.6194   21969698.7114
 96  2 12  1  5 30.0000000  0  8  2  9 12 27 24  7 26  4
  22074400.071     2716826.40249   2113596.76549  22074401.2024   22074406.5384
  22174372.507    -6766564.05549  -5251567.24749  22174375.1044   22174380.1284
  21249989.281     1438206.464 9   1120895.762 9  21249990.793    21249997.282
  24472407.081     8730661.21749   6785823.77649  24472407.1014   24472412.4364
  24364722.496    -1138180.92049   -862090.38049  24364725.6414   24364732.8394
  20749498.172     1422860.40549   1119591.56549  20749500.0844   20749504.9434
  24123404.341     4521503.14649   3519094.62449  24123406.5854   24123412.8154
  21953795.035    -8035234.87449  -6243693.01449  21953797.3914   21953802.7184
 96  2 12  1  6  0.0000000  0  8  2  9 12 27 24  7 26  4
  22082483.108     2759298.07849   2146691.57249  22082483.5624   22082488.7684
  22160860.771    -6837574.16649  -5306899.79649  22160862.7364   22160867.0224
  21256468.426     1472259.162 9   1147430.326 9  21256470.816    21256477.321
  24493983.004     8844052.12049   6874180.31649  24493985.3034   24493990.6064
  24342985.701    -1252404.50049   -951095.62549  24342989.3464   24342996.6794
  20755564.685     1454738.70849   1144431.80349  20755566.3484   20755571.1714
  24135469.033     4584899.14949   3568494.06149  24135470.0654   24135475.2994
  21937970.998    -8118390.61849  -6308489.65049  21937973.1044   21937978.8054
 96  2 12  1  6 30.0000000  0  8  2  9 12 27 24  7 26  4
  22090611.036     2802013.94549   2179976.65649  22090612.2854   22090617.0044
  22147430.000    -6908153.45749  -5361896.63949  22147432.1384   22147436.0264
  21263027.496     1506723.027 9   1174285.282 9  21263029.182    21263035.696
  24515572.892     8957509.78649   6962588.88449  24515575.3274   24515579.9184
  24321260.679    -1366564.61449  -1040051.49549  24321264.8194   24321272.4564
  20761686.367     1486909.31449   1169499.80949  20761688.1504   20761692.9644
  24147568.140     4648480.74649   3618038.14649  24147570.3394   24147575.9564
  21922223.637    -8201147.83149  -6372975.73949  21922224.8814   21922230.1854
 96  2 12  1  7  0.0000000  0  8  2  9 12 27 24  7 26  4
  22098793.898     2845017.34649   2213485.79349  22098795.2554   22098800.6004
  22134083.363    -6978287.96949  -5416546.89749  22134085.2864   22134089.9774
  21269667.434     1541617.961 9   1201476.136 9  21269669.382    21269675.840
  24537179.833     9071046.55449   7051059.04949  24537181.0734   24537186.3704
  24299559.239    -1480628.60049  -1128932.44249  24299559.7594   24299565.3854
  20767874.345     1519420.79949   1194833.43349  20767874.9974   20767879.9044
  24159709.360     4712279.99149   3667751.80749  24159710.8964   24159715.9584
  21906556.236    -8283479.49649  -6437130.25849  21906557.5944   21906563.4364
 96  2 12  1  7 30.0000000  0  8  2  9 12 27 24  7 26  4
  22107026.471     2888281.45449   2247198.07949  22107027.9674   22107033.1514
  22120814.211    -7048017.96549  -5470881.95349  22120816.4824   22120821.2344
  21276384.562     1576917.322 9   1228982.124 9  21276386.665    21276393.111
  24558792.658     9184633.07649   7139568.04149  24558794.6854   24558799.9024
  24277865.713    -1594629.92649  -1217764.53849  24277866.1834   24277872.7204
  20774124.114     1552269.87549   1220430.11949  20774125.8004   20774130.7244
  24171890.029     4776287.96149   3717628.11549  24171889.4304   24171896.3324
  21890966.165    -8365405.54749  -6500968.70249  21890967.8724   21890972.8754
 96  2 12  1  8  0.0000000  0  8  2  9 12 27 24  7 26  4
  22115312.356     2931828.43349   2281130.77549  22115315.0124   22115319.9354
  22107620.064    -7117352.10649  -5524908.53749  22107622.5014   22107627.1774
  21283180.945     1612632.604 9   1256812.212 9  21283183.102    21283189.382
  24580419.895     9298284.82049   7228127.84249  24580422.6254   24580428.4844
  24256183.358    -1708557.66249  -1306539.36049  24256186.5934   24256192.6074
  20780441.958     1585470.26949   1246300.56049  20780443.6984   20780448.6284
  24184112.092     4840515.76549   3767675.73049  24184112.8934   24184118.9644
  21875456.669    -8446907.12049  -6564476.38949  21875458.7374   21875463.8704
 96  2 12  1  8 30.0000000  0  8  2  9 12 27 24  7 26  4
  22123653.410     2975649.93849   2315277.39549  22123653.6214   22123659.0074
  22094499.316    -7186307.49449  -5578640.00149  22094500.6364   22094505.3314
  21290053.803     1648747.736 9   1284953.867 9  21290055.535    21290061.824
  24602064.823     9412008.28249   7316743.51549  24602062.9374   24602069.5724
  24234512.994    -1822433.29549  -1395273.57849  24234515.6334   24234522.8774
  20786822.264     1618993.70449   1272422.72249  20786822.9874   20786827.7434
  24196370.582     4904941.44649   3817877.55549  24196372.4994   24196378.7134
  21860023.163    -8528010.66549  -6627673.92749  21860025.1664   21860029.8104
 96  2 12  1  9  0.0000000  0  8  2  9 12 27 24  7 26  4
  22132046.653     3019762.81249   2349651.05049  22132048.1734   22132053.5954
  22081454.891    -7254859.62749  -5632057.23149  22081455.7134   22081460.6614
  21297006.930     1685285.144 9   1313424.566 9  21297008.354    21297014.664
  24623722.934     9525842.75349   7405445.66849  24623724.4064   24623731.6474
  24212855.643    -1936246.63349  -1483959.23149  24212858.5944   24212864.7754
  20793263.278     1652847.38949   1298802.22149  20793264.9794   20793270.0454
  24208672.907     4969587.70149   3868251.22049  24208674.2444   24208680.5514
  21844669.382    -8608699.25349  -6690548.12649  21844670.4724   21844675.7104
 96  2 12  1  9 30.0000000  0  8  2  9 12 27 24  7 26  4
  22140489.022     3064123.15449   2384217.54749  22140489.7604   22140494.8914
  22068483.036    -7323019.84949  -5685169.08549  22068485.2204   22068490.0334
  21304034.772     1722221.770 9   1342206.346 9  21304037.160    21304043.527
  24645402.926     9639770.04849   7494220.15449  24645405.3654   24645412.2734
  24191203.615    -2050026.94249  -1572619.17149  24191206.4744   24191212.2544
  20799758.678     1686979.96449   1325399.03949  20799760.3094   20799765.3244
  24221010.079     5034417.28249   3918767.74949  24221010.7504   24221016.4844
  21829389.364    -8688990.54849  -6753112.72349  21829391.4064   21829396.8344
 96  2 12  1 10  0.0000000  0  8  2  9 12 27 24  7 26  4
  22148978.259     3108733.22449   2418978.62949  22148978.5694   22148983.8664
  22055593.890    -7390762.24149  -5737955.34849  22055594.0024   22055599.3524
  21311141.415     1759565.552 9   1371305.390 9  21311143.288    21311149.827
  24667102.174     9753798.45349   7583073.45849  24667102.7304   24667110.4314
  24169565.652    -2163745.94049  -1661231.33549  24169566.0484   24169573.4494
  20806306.338     1721386.86749   1352209.62049  20806307.7334   20806312.7384
  24233379.808     5099422.64849   3969421.23249  24233381.5494   24233386.2244
  21814189.211    -8768874.28449  -6815359.75549  21814190.6084   21814195.3964
 96  2 12  1 10 30.0000000  0  8  2  9 12 27 24  7 26  4
  22157517.164     3153613.86549   2453950.54749  22157519.3414   22157524.6024
  22042787.575    -7458044.67349  -5790383.19749  22042790.8914   22042795.4274
  21318329.812     1797342.755 9   1400742.166 9  21318332.183    21318338.600
  24688823.937     9867958.60649   7672029.33949  24688829.1404   24688833.8954
  24147942.954    -2277373.73149  -1749772.41349  24147944.2744   24147951.0414
  20812908.642     1756088.88649   1379250.16549  20812911.2974   20812916.3194
  24245788.300     5164631.12349   4020233.01449  24245789.7724   24245795.4594
  21799070.733    -8848312.18549  -6877259.37049  21799073.5924   21799078.5984
 96  2 12  1 11  0.0000000  0  7  2  9 12 24  7 26  4
  22166102.168     3198725.56249   2489102.51949  22166103.6634   22166108.8024
  22030069.384    -7524892.47249  -5842472.38049  22030070.2854   22030074.7834
  21325596.151     1835525.936 9   1430495.285 9  21325598.240    21325604.656
  24126333.441    -2390930.05749  -1838257.81549  24126335.1694   24126340.6154
  20819564.812     1791064.30949   1406503.75149  20819566.8864   20819571.8264
  24258231.049     5230016.81149   4071182.86049  24258231.2954   24258238.9154
  21784036.793    -8927319.59449  -6938823.55649  21784038.9984   21784043.9614
 96  2 12  1 11 30.0000000  0  7  2  9 12 24  7 26  4
  22174733.218     3244071.61549   2524437.09549  22174732.6024   22174737.9134
  22017433.296    -7591288.34849  -5894209.40849  22017435.2904   22017439.8944
  21332941.757     1874125.026 9   1460572.489 9  21332943.560    21332949.840
  24104740.635    -2504396.73749  -1926673.33249  24104742.8944   24104748.1124
  20826274.543     1826319.16949   1433975.07549  20826275.6014   20826280.3784
  24270710.241     5295597.65549   4122284.80649  24270711.4574   24270717.5834
  21769085.193    -9005892.14949  -7000048.89949  21769087.1834   21769092.3274
 96  2 12  1 12  0.0000000  0  7  2  9 12 24  7 26  4
  22183404.137     3289651.97149   2559954.25149  22183406.1624   22183411.4424
  22004881.552    -7657243.39749  -5945602.93549  22004884.3834   22004889.5734
  21340363.905     1913128.918 9   1490965.126 9  21340365.664    21340372.067
  24083164.298    -2617788.03049  -2015030.11749  24083166.0614   24083171.0364
  20833037.315     1861856.48849   1461666.50249  20833038.1714   20833043.3534
  24283225.896     5361369.30449   4173535.41349  24283228.5694   24283233.3754
  21754212.852    -9084046.42749  -7060948.30049  21754214.9684   21754220.0144
 96  2 12  1 12 30.0000000  0  7  2  9 12 24  7 26  4
  22192124.546     3335474.23449   2595659.91449  22192126.3454   22192131.4814
  21992419.424    -7722746.43549  -5996644.24949  21992419.2944   21992424.2244
  21347863.724     1952544.157 9   1521678.288 9  21347866.171    21347872.497
  24061596.336    -2731114.42049  -2103336.32049  24061600.0074   24061607.3894
  20839853.522     1897674.00049   1489576.25649  20839853.9604   20839858.8494
  24295780.162     5427338.82649   4224940.19649  24295781.6234   24295786.7994
  21739422.806    -9161774.66449  -7121515.73249  21739423.9464   21739428.7934
 96  2 12  1 13  0.0000000  0  7  2  9 12 24  7 26  4
  22200884.881     3381504.45049   2631527.61149  22200885.5904   22200890.6144
  21980033.770    -7787828.70949  -6047357.69849  21980034.9144   21980039.9634
  21355437.853     1992342.493 9   1552689.971 9  21355439.515    21355445.742
  24040040.019    -2844408.32549  -2191617.24649  24040040.7414   24040048.1524
  20846714.399     1933731.34349   1517672.89449  20846715.4144   20846720.1884
  24308364.169     5493467.43649   4276468.96349  24308365.1544   24308370.6994
  21724703.810    -9239118.91149  -7181783.94849  21724705.7214   21724710.3174
 96  2 12  1 13 30.0000000  0  7  2  9 12 24  7 26  4
  22209690.221     3427775.15049   2667582.68949  22209690.3174   22209695.7214
  21967731.005    -7852476.96349  -6097732.95249  21967732.6854   21967737.4364
  21363088.108     2032549.443 9   1584020.056 9  21363090.468    21363096.792
  24018491.672    -2957639.31349  -2279849.14049  24018494.2764   24018500.0854
  20853625.117     1970044.71449   1545969.02949  20853625.5434   20853630.3834
  24320978.155     5559758.78849   4328124.50849  24320980.0234   24320985.3404
  21710065.453    -9316043.61449  -7241725.24649  21710067.2144   21710072.2434
 96  2 12  1 14  0.0000000  0  7  2  9 12 24  7 26  4
  22218545.307     3474314.55349   2703847.15249  22218546.4904   22218551.9364
  21955512.216    -7916685.49649  -6147765.56049  21955514.1994   21955519.0844
  21370821.263     2073183.774 9   1615683.161 9  21370822.998    21370829.509
  23996957.619    -3070789.50849  -2368018.06149  23996962.3134   23996968.6164
  20860587.449     2006635.15749   1574481.06549  20860588.6874   20860593.6264
  24333622.138     5626209.03049   4379903.89749  24333624.6624   24333631.6114
  21695514.139    -9392505.43249  -7301305.85449  21695516.9904   21695521.6264
 96  2 12  1 14 30.0000000  0  7  2  9 12 24  7 26  4
  22227446.419     3521086.42349   2740292.75749  22227447.1734   22227452.5364
  21943370.359    -7980501.95049  -6197492.66049  21943369.8574   21943375.1544
  21378628.573     2114212.574 9   1647653.651 9  21378630.485    21378637.238
  23975438.395    -3183883.93549  -2456143.50849  23975441.6764   23975445.7224
  20867594.147     2043456.40849   1603172.95249  20867595.3734   20867600.1944
  24346292.463     5692776.95749   4431774.99649  24346293.4844   24346299.4904
  21681049.651    -9468525.15349  -7360541.97649  21681051.1424   21681055.6874
 96  2 12  1 15  0.0000000  0  7  2  9 12 24  7 26  4
  22236391.028     3568103.62449   2776929.52349  22236394.0814   22236399.4314
  21931299.207    -8043930.04749  -6246917.13849  21931300.0854   21931305.4424
  21386512.467     2155644.312 9   1679938.112 9  21386514.637    21386521.477
  23953930.029    -3296910.29449  -2544215.88249  23953932.7104   23953936.8244
  20874648.645     2080530.96349   1632062.21949  20874650.4394   20874655.1744
  24358981.376     5759462.86649   4483737.98449  24358983.0034   24358987.2174
  21666669.373    -9544088.67349  -7419422.62249  21666671.7894   21666676.3144
 96  2 12  1 15 30.0000000  0  7  2  9 12 24  7 26  4
  22245388.410     3615377.27149   2813766.11749  22245389.4694   22245395.2144
  21919304.122    -8106958.49849  -6296030.20449  21919306.6504   21919311.3114
  21394475.109     2197488.165 9   1712543.699 9  21394477.293    21394484.045
  23932438.830    -3409847.31849  -2632218.63049  23932441.1874   23932445.0874
  20881757.674     2117884.26549   1661168.69349  20881758.7344   20881763.3314
  24371697.691     5826283.08149   4535805.65749  24371697.8004   24371705.1584
  21652378.930    -9619183.69449  -7477938.19249  21652381.5924   21652386.2854
 96  2 12  1 16  0.0000000  0  7  2  9 12 24  7 26  4
  22254431.721     3662900.98549   2850797.55949  22254433.0824   22254438.9544
  21907389.504    -8169579.98849  -6344826.16249  21907390.3684   21907394.8494
  21402514.133     2239732.825 9   1745461.606 9  21402516.162    21402522.736
  23910963.467    -3522700.60349  -2720156.18649  23910965.9384   23910970.9514
  20888916.377     2155505.08849   1690483.62749  20888917.5524   20888922.5514
  24384438.189     5893247.13349   4587985.40249  24384441.2084   24384447.4494
  21638172.373    -9693838.63049  -7536110.84949  21638175.2184   21638180.1624
 96  2 12  1 16 30.0000000  0  7  2  9 12 24  7 26  4
  22263523.744     3710685.25349   2888032.03649  22263526.0844   22263532.0784
  21895555.596    -8231763.98649  -6393281.20749  21895556.8684   21895561.8384
  21410632.076     2282389.866 9   1778700.852 9  21410633.666    21410640.006
  23889508.788    -3635444.57349  -2808008.62649  23889511.5424   23889516.8474
  20896129.416     2193409.57849   1720019.59549  20896130.6654   20896135.6344
  24397212.547     5960365.79549   4640285.65149  24397213.4034   24397219.4054
  21624047.629    -9768065.20149  -7593949.70849  21624050.7354   21624055.2454
 96  2 12  1 17  0.0000000  0  7  2  9 12 24  7 26  4
  22272667.398     3758721.98349   2925463.24249  22272667.5194   22272673.1864
  21883806.844    -8293497.05949  -6441384.89349  21883809.6974   21883813.7064
  21418825.740     2325451.412 9   1812255.296 9  21418828.130    21418834.273
  23868077.464    -3748073.79849  -2895771.58649  23868077.2874   23868084.8854
  20903396.892     2231600.12149   1749778.46449  20903397.9814   20903403.0164
  24410010.499     6027629.32949   4692698.73249  24410013.6394   24410019.1754
  21610003.009    -9841870.88649  -7651460.60549  21610005.4324   21610010.3694
 96  2 12  1 17 30.0000000  0  7  2  9 12 24  7 26  4
  22281853.831     3807008.72049   2963089.25549  22281856.3474   22281861.8634
  21872146.133    -8354773.67249  -6489132.88849  21872148.8114   21872153.3744
  21427095.855     2368910.029 9   1846119.147 9  21427097.961    21427104.266
  23846667.231    -3860577.71549  -2983436.92449  23846669.5534   23846674.6294
  20910716.942     2270063.45149   1779749.89549  20910717.1904   20910722.3844
  24422842.285     6095041.31449   4745227.52649  24422841.7254   24422846.6254
  21596039.276    -9915256.41049  -7708644.10149  21596040.8494   21596045.4404
 96  2 12  1 18  0.0000000  0  8  2  9 12 24  7  5 26  4
  22291098.824     3855584.04349   3000940.14149  22291099.8464   22291104.9544
  21860582.037    -8415555.10549  -6536495.02949  21860582.5254   21860587.2384
  21435446.802     2412793.828 9   1880314.306 9  21435448.716    21435455.044
  23825285.553    -3972933.88149  -3070987.14949  23825289.8184   23825295.7624
  20918091.207     2308821.11049   1809950.67549  20918092.6274   20918097.5354
  24897127.505    -5233813.56559  -4060356.40559  24897132.2064   24897136.6124
  24435699.566     6162623.00749   4797888.56149  24435701.5204   24435708.0224
  21582163.285    -9988172.99049  -7765462.18849  21582165.4884   21582170.0184
 96  2 12  1 18 30.0000000  0  8  2  9 12 24  7  5 26  4
  22300392.606     3904425.10549   3038998.09649  22300394.0894   22300399.5014
  21849103.034    -8475872.45049  -6583495.54649  21849104.8664   21849109.6674
  21443874.019     2457079.659 9   1914822.734 9  21443876.046    21443882.588
  23803929.777    -4085174.94049  -3158447.69449  23803931.2404   23803935.7204
  20925518.654     2347855.33849   1840366.96249  20925520.8684   20925525.7024
  24880044.430    -5323595.29749  -4130316.11749  24880047.1134   24880052.9074
  24448586.692     6230342.58849   4850657.03749  24448588.3444   24448593.9244
  21568376.255   -10060626.27749  -7821919.26749  21568377.5554   21568382.4674
 96  2 12  1 19  0.0000000  0  8  2  9 12 24  7  5 26  4
  22309742.487     3953557.64549   3077283.17549  22309743.8344   22309749.1394
  21837718.410    -8535706.89049  -6630119.77849  21837718.4374   21837723.1564
  21452381.956     2501789.117 9   1949661.261 9  21452384.012    21452390.617
  23782593.452    -4197285.98449  -3245806.90249  23782596.9334   23782602.3374
  20933002.949     2387181.45449   1871010.69549  20933004.3784   20933009.3434
  24862957.489    -5413380.78749  -4200278.76049  24862961.1124   24862967.2934
  24461503.148     6298223.85649   4903551.47249  24461506.2754   24461511.4104
  21554683.150   -10132582.70149  -7877989.18549  21554684.7144   21554689.6474
 96  2 12  1 19 30.0000000  0  8  2  9 12 24  7  5 26  4
  22319140.462     4002939.99549   3115762.91649  22319140.6784   22319146.3074
  21826414.586    -8595100.38249  -6676400.40249  21826416.0404   21826420.8484
  21460963.306     2546884.401 9   1984800.433 9  21460965.437    21460972.006
  23761276.749    -4309307.98449  -3333096.72649  23761278.1244   23761285.5864
  20940531.864     2426747.04549   1901841.03549  20940533.1484   20940538.1034
  24845860.328    -5503235.14749  -4270295.08249  24845861.9574   24845865.9824
  24474445.357     6366225.27249   4956539.56749  24474447.1604   24474452.4764
  21541076.183   -10204088.40849  -7933707.88449  21541077.6294   21541082.5554
 96  2 12  1 20  0.0000000  0  8  2  9 12 24  7  5 26  4
  22328584.141     4052570.18449   3154435.77249  22328585.0934   22328591.2244
  21815199.492    -8654042.28149  -6722329.14349  21815199.6824   21815204.7794
  21469620.752     2592377.761 9   2020249.797 9  21469622.580    21469629.037
  23739978.038    -4421232.62749  -3420310.67749  23739979.9684   23739987.4814
  20948107.967     2466560.39749   1932864.43349  20948109.4204   20948114.4714
  24828748.712    -5593155.04149  -4340362.44049  24828749.8614   24828756.2114
  24487404.697     6434332.91349   5009610.42549  24487406.7904   24487412.2384
  21527555.159   -10275138.68449  -7989071.71349  21527557.1324   21527562.1694
 96  2 12  1 20 30.0000000  0  8  2  9 12 24  7  5 26  4
  22338076.047     4102449.73549   3193302.93149  22338076.7984   22338082.4434
  21804070.039    -8712514.11049  -6767891.59249  21804072.9434   21804077.4904
  21478356.010     2638287.035 9   2056023.246 9  21478358.740    21478365.297
  23718704.035    -4533030.39149  -3507425.79549  23718706.5384   23718713.8024
  20955733.107     2506625.37149   1964083.89849  20955733.5334   20955738.5864
  24811626.063    -5683133.07649  -4410475.15149  24811627.9734   24811635.1554
  24500386.260     6502549.08349   5062765.86749  24500388.2144   24500394.0134
  21514122.058   -10345730.25549  -8044078.11149  21514124.1054   21514129.3874
 96  2 12  1 21  0.0000000  0  8  2  9 12 24  7  5 26  4
  22347613.075     4152569.30449   3232357.13049  22347614.3424   22347620.0124
  21793036.546    -8770505.46149  -6813079.64349  21793037.5144   21793042.0894
  21487172.211     2684613.226 9   2092121.563 9  21487174.399    21487180.861
  23697455.280    -4644688.81649  -3594432.33949  23697456.7974   23697464.8444
  20963401.857     2546937.27549   1995495.77849  20963404.5704   20963409.5384
  24794493.087    -5773164.32549  -4480629.32549  24794494.3844   24794500.3944
  24513385.953     6570864.37749   5115998.50449  24513387.1904   24513393.2184
  21500778.131   -10415853.62349  -8098719.68349  21500779.9284   21500784.8974
 96  2 12  1 21 30.0000000  0  8  2  9 12 24  7  5 26  4
  22357190.480     4202896.19949   3271572.88449  22357191.1184   22357196.5474
  21782084.878    -8828052.59149  -6857921.55249  21782086.6994   21782091.5174
  21496061.913     2731325.556 9   2128520.771 9  21496063.391    21496069.808
  23676230.064    -4756237.56649  -3681353.43549  23676231.1344   23676237.0864
  20971115.377     2587460.68749   2027072.47149  20971115.8564   20971120.6444
  24777349.989    -5863258.57549  -4550832.57849  24777350.0314   24777355.8734
  24526399.527     6639250.14549   5169286.11449  24526400.2034   24526405.4024
  21487519.756   -10485525.66349  -8153009.58249  21487521.8824   21487526.8064
 96  2 12  1 22  0.0000000  0  8  2  9 12 24  7  5 26  4
  22366811.528     4253460.38749   3310973.53249  22366813.4024   22366818.5814
  21771222.282    -8885136.48149  -6902402.49149  21771224.1134   21771228.6914
  21505027.079     2778444.156 9   2165236.554 9  21505029.773    21505036.440
  23655026.466    -4867663.13649  -3768178.52549  23655027.5664   23655033.1724
  20978871.274     2628221.50449   2058834.15949  20978872.4834   20978877.1154
  24760202.194    -5953368.79049  -4621048.27149  24760201.9464   24760210.6444
  24539429.553     6707731.35049   5222648.02249  24539432.5624   24539439.2704
  21474353.476   -10554716.05649  -8206924.15249  21474355.3664   21474360.2134
 96  2 12  1 22 30.0000000  0  8  2  9 12 24  7  5 26  4
  22376483.763     4304280.14849   3350573.33549  22376484.3214   22376489.8004
  21760445.464    -8941769.73149  -6946532.27949  21760447.0624   21760451.9464
  21514070.052     2825964.416 9   2202265.319 9  21514072.685    21514079.222
  23633843.280    -4978967.41749  -3854909.11549  23633846.7384   23633853.3124
  20986672.393     2669215.88249   2090777.83649  20986673.4844   20986678.3064
  24743053.313    -6043492.00949  -4691274.07149  24743055.2484   24743060.7614
  24552484.910     6776325.88749   5276098.31849  24552485.4424   24552491.7264
  21461279.128   -10623416.97449  -8260457.32049  21461282.1734   21461287.0464
 96  2 12  1 23  0.0000000  0  8  2  9 12 24  7  5 26  4
  22386202.499     4355361.81849   3390377.22849  22386204.7354   22386210.1304
  21749752.436    -8997962.89149  -6990319.14649  21749754.0144   21749758.5544
  21523189.712     2873881.334 9   2239603.165 9  21523190.898    21523197.476
  23612683.641    -5090162.03049  -3941554.21249  23612686.5074   23612693.5234
  20994520.633     2710457.58749   2122914.23849  20994521.5434   20994526.5294
  24725902.885    -6133615.17149  -4761499.86849  24725905.5684   24725911.0954
  24565563.197     6845057.94749   5329655.72449  24565564.9674   24565570.4484
  21448299.996   -10691626.33849  -8313607.45449  21448302.3174   21448307.1614
 96  2 12  1 23 30.0000000  0  8  2  9 12 24  7  5 26  4
  22395976.494     4406724.66549   3430400.21749  22395978.7104   22395984.3474
  21739145.387    -9053701.91249  -7033752.14049  21739147.1864   21739151.7474
  21532386.065     2922212.472 9   2277263.784 9  21532387.949    21532394.655
  23591549.748    -5201229.84949  -4028100.53849  23591551.0964   23591557.5374
  21002417.208     2751959.64149   2155253.50549  21002419.2554   21002423.9784
  24708753.923    -6223724.88649  -4831715.18049  24708756.4764   24708760.3614
  24578672.904     6913954.97649   5383341.66749  24578676.0004   24578681.6334
  21435414.803   -10759336.88449  -8366368.90649  21435417.2564   21435422.0944
 96  2 12  1 24  0.0000000  0  8  2  9 12 24  7  5 26  4
  22405803.388     4458358.71849   3470634.53349  22405804.6444   22405809.8774
  21728627.443    -9108972.41749  -7076820.05249  21728629.5364   21728634.3884
  21541660.726     2970953.015 9   2315243.419 9  21541663.126    21541669.729
  23570435.731    -5312172.53049  -4114549.32249  23570440.3524   23570445.9114
  21010365.232     2793723.62649   2187796.88049  21010366.4604   21010371.3394
  24691606.854    -6313832.15249  -4901928.52849  24691608.9514   24691614.7354
  24591813.603     6983005.61249   5437147.32149  24591815.5504   24591821.4314
  21422623.436   -10826560.76849  -8418751.12849  21422625.2974   21422630.1954
 96  2 12  1 24 30.0000000  0  8  2  9 12 24  7  5 26  4
  22415675.572     4510238.41049   3511060.27249  22415676.4424   22415681.4564
  21718200.964    -9163767.88649  -7119517.81049  21718202.1434   21718207.0014
  21551011.145     3020090.319 9   2353532.217 9  21551013.549    21551020.106
  23549350.754    -5422997.07749  -4200906.12449  23549350.8484   23549357.5144
  21018359.213     2835733.72149   2220532.02549  21018360.7514   21018365.3774
  24674459.318    -6403956.26849  -4972155.07849  24674459.3894   24674465.5664
  24604981.094     7052196.18349   5491062.02549  24604981.4964   24604987.9954
  21409921.520   -10893306.73949  -8470760.95449  21409923.8904   21409928.7224
 96  2 12  1 25  0.0000000  0  8  2  9 12 24  7  5 26  4
  22425589.877     4562348.14649   3551665.25149  22425593.2114   22425598.1134
  21707867.947    -9218071.01649  -7161831.92949  21707868.6914   21707873.5804
  21560438.812     3069630.830 9   2392135.203 9  21560440.798    21560447.246
  23528282.657    -5533699.12249  -4287167.35249  23528284.3104   23528290.7914
  21026399.848     2877983.90849   2253454.25649  21026400.4814   21026405.2534
  24657306.247    -6494089.69549  -5042388.86549  24657307.6874   24657312.2194
  24618171.003     7121512.30349   5545074.52649  24618172.3744   24618179.6994
  21397311.971   -10959572.23949  -8522396.39949  21397313.7584   21397318.6204
 96  2 12  1 25 30.0000000  0  8  2  9 12 24  7  5 26  4
  22435554.068     4614697.50549   3592456.94749  22435554.6244   22435559.8524
  21697629.234    -9271867.75849  -7203751.45249  21697631.2994   21697636.4874
  21569942.556     3119578.768 9   2431055.666 9  21569945.438    21569952.250
  23507243.756    -5644264.96449  -4373322.56349  23507244.5464   23507248.6744
  21034482.776     2920465.62949   2286556.90249  21034484.8664   21034489.2704
  24640152.267    -6584237.17949  -5112633.59049  24640154.9854   24640160.5234
  24631378.223     7190922.55849   5599160.43949  24631380.9244   24631385.9204
  21384794.741   -11025351.02049  -8573652.57749  21384796.1814   21384801.1784
 96  2 12  1 26  0.0000000  0  8  2  9 12 24  7  5 26  4
  22445561.538     4667301.14049   3633446.78549  22445564.4534   22445570.1374
  21687491.902    -9325142.88349  -7245264.52549  21687493.3764   21687498.0774
  21579526.908     3169938.641 9   2470297.113 9  21579528.711    21579535.426
  23486231.907    -5754678.36749  -4459358.92349  23486233.9604   23486238.7564
  21042611.372     2963178.41749   2319839.59849  21042612.7404   21042617.2634
  24622996.580    -6674383.29949  -5182877.29949  24622999.9214   24623005.3904
  24644603.248     7260419.36649   5653313.76949  24644604.4764   24644612.1924
  21372371.721   -11090633.62649  -8624522.10949  21372373.5084   21372378.1324
 96  2 12  1 26 30.0000000  0  8  2  9 12 24  7  5 26  4
  22455617.698     4720134.87749   3674615.92149  22455618.5134   22455623.9654
  21677445.033    -9377938.22549  -7286403.73849  21677447.1384   21677451.5314
  21589182.602     3220684.978 9   2509839.699 9  21589185.466    21589192.026
  23465246.641    -5864955.60449  -4545289.16849  23465249.7484   23465255.5314
  21050776.939     3006089.48849   2353276.80449  21050778.4284   21050783.2384
  24605837.562    -6764553.19449  -5253139.46349  24605839.2884   24605844.7314
  24657837.833     7329966.36449   5707506.18749  24657840.3674   24657846.4904
  21360038.664   -11155441.40549  -8675021.65649  21360041.2444   21360045.7784
 96  2 12  1 27  0.0000000  0  8  2  9 12 24  7  5 26  4
  22465720.742     4773229.62649   3715988.44249  22465721.9394   22465727.4194
  21667489.591    -9430256.35649  -7327171.09949  21667491.1664   21667495.8674
  21598915.070     3271823.992 9   2549688.280 9  21598916.792    21598923.352
  23444292.394    -5975076.56549  -4631097.66849  23444292.2384   23444300.6114
  21058982.414     3049215.83949   2386881.76149  21058984.9564   21058989.4654
  24588674.950    -6854741.10049  -5323415.72849  24588676.7354   24588684.6834
  24671079.683     7399545.47049   5761723.68949  24671080.1044   24671086.0574
  21347798.635   -11219763.25349  -8725142.55749  21347801.1054   21347805.7684
 96  2 12  1 27 30.0000000  0  8  2  9 12 24  7  5 26  4
  22475877.937     4826606.51949   3757580.81149  22475879.5004   22475884.6934
  21657630.265    -9482071.33349  -7367546.39949  21657630.9614   21657635.7484
  21608722.997     3323368.370 9   2589852.720 9  21608725.344    21608732.118
  23423370.615    -6085012.40449  -4716761.90049  23423373.7914   23423379.4974
  21067234.174     3092573.14049   2420666.67549  21067235.6364   21067240.4394
  24571510.059    -6944943.95349  -5393703.61449  24571511.7974   24571517.8914
  24684328.230     7469174.09949   5815979.70149  24684330.3614   24684336.4424
  21335653.795   -11283587.96949  -8774876.07949  21335655.5124   21335660.6574
 96  2 12  1 28  0.0000000  0  8  2  9 12 24  7  5 26  4
  22486082.865     4880240.19249   3799373.26649  22486085.7054   22486091.5714
  21647860.925    -9533398.95349  -7407541.93449  21647863.6394   21647868.6954
  21618606.054     3375305.927 9   2630323.530 9  21618608.887    21618615.381
  23402484.092    -6194782.41949  -4802296.92649  23402485.2354   23402490.5914
  21075525.022     3136141.49749   2454616.04849  21075526.5234   21075531.2294
  24554341.302    -7035174.65549  -5464013.13649  24554343.8114   24554346.5854
  24697586.647     7538844.29149   5870268.17749  24697589.1324   24697593.9874
  21323601.037   -11346923.03949  -8824228.05649  21323603.3614   21323607.9734
 96  2 12  1 28 30.0000000  0  8  2  9 12 24  7  5 26  4
  22496342.452     4934145.93949   3841377.74349  22496343.7644   22496349.1004
  21638187.106    -9584238.14149  -7447156.87349  21638189.4304   21638194.1624
  21628566.566     3427648.268 9   2671109.768 9  21628569.192    21628575.948
  23381627.817    -6304373.27449  -4887692.35049  23381630.3884   23381635.3984
  21083859.250     3179940.27749   2488744.97349  21083861.0774   21083865.9164
  24537166.095    -7125429.76549  -5534341.74349  24537167.7904   24537174.1374
  24710853.852     7608563.56749   5924594.82849  24710856.5304   24710862.2474
  21311645.314   -11409751.29249  -8873185.11449  21311647.8924   21311652.7144
 96  2 12  1 29  0.0000000  0  8  2  9 12 24  7  5 26  4
  22506654.022     4988332.25649   3883600.85449  22506654.7844   22506660.4124
  21628607.664    -9634583.06949  -7486386.68249  21628609.0654   21628613.7894
  21638604.478     3480397.524 9   2712213.079 9  21638607.069    21638613.708
  23360808.372    -6413784.17049  -4972947.56149  23360810.2344   23360815.4874
  21092239.014     3223970.36549   2523054.14049  21092239.5824   21092244.3174
  24519986.704    -7215701.08949  -5604682.99849  24519989.9194   24519996.7064
  24724132.689     7678348.85949   5978972.96349  24724135.6304   24724141.6794
  21299787.279   -11472068.10749  -8921743.65149  21299789.0104   21299793.6634
 96  2 12  1 29 30.0000000  0  8  2  9 12 24  7  5 26  4
  22517008.281     5042744.65649   3926000.12949  22517009.4974   22517014.6514
  21619115.326    -9684473.21449  -7525262.10949  21619115.2894   21619119.9024
  21648714.885     3533526.738 9   2753612.459 9  21648717.244    21648723.910
  23340013.650    -6523051.55949  -5058090.93749  23340016.9334   23340023.9584
  21100653.315     3268195.05749   2557514.94849  21100655.1274   21100659.9214
  24502800.481    -7306017.96849  -5675059.74449  24502803.1374   24502808.7534
  24737425.755     7748201.28449   6033403.38649  24737427.3744   24737433.2324
  21288019.737   -11533904.23949  -8969927.62749  21288022.2214   21288026.5594
 96  2 12  1 30  0.0000000  0  8  2  9 12 24  7  5 26  4
  22527408.289     5097394.35349   3968584.31049  22527408.5444   22527413.8764
  21609704.970    -9733922.15549  -7563793.73649  21609705.3114   21609710.2714
  21658898.127     3587040.418 9   2795311.422 9  21658900.608    21658907.348
  23319251.424    -6632175.46849  -5143122.48449  23319251.6794   23319258.7814
  21109109.804     3312630.25549   2592139.78649  21109111.3054   21109115.8794
  24485608.404    -7396363.59649  -5745458.86449  24485611.0644   24485615.7344
  24750732.991     7818132.86249   6087895.52249  24750734.4224   24750741.3784
  21276349.549   -11595237.64749  -9017719.87249  21276350.9504   21276355.2454
 96  2 12  1 30 30.0000000  0  8  2  9 12 24  7  5 26  4
  22537859.241     5152318.74149   4011382.53549  22537861.0354   22537865.6964
  21600383.263    -9782902.27749  -7601960.05849  21600384.7644   21600389.4954
  21669159.483     3640961.782 9   2837328.061 9  21669161.499    21669168.125
  23298519.050    -6741116.79749  -5228011.80249  23298519.6834   23298525.4274
  21117611.818     3357309.65949   2626954.91249  21117613.3144   21117618.1054
  24468414.763    -7486714.42949  -5815862.05449  24468416.1284   24468422.4174
  24764062.836     7888179.60349   6142477.36149  24764065.3764   24764070.3554
  21264776.748   -11656050.40749  -9065106.41949  21264778.3584   21264783.1624
 96  2 12  1 31  0.0000000  0  8  2  9 12 24  7  5 26  4
  22548357.395     5207491.24949   4054374.10649  22548360.1164   22548364.7494
  21591153.169    -9831406.04749  -7639755.19649  21591155.0344   21591159.7604
  21679496.230     3695280.970 9   2879654.685 9  21679498.202    21679504.835
  23277820.241    -6849885.29449  -5312766.42949  23277823.1284   23277829.1054
  21126158.845     3402220.66049   2661950.50749  21126159.5414   21126164.1614
  24451218.796    -7577077.88549  -5886275.08849  24451219.8654   24451227.0784
  24777414.355     7958341.59949   6197149.03849  24777415.1094   24777421.4744
  21253301.712   -11716351.24549  -9112094.07849  21253303.3124   21253308.3484
 96  2 12  1 31 30.0000000  0  8  2  9 12 24  7  5 26  4
  22558902.499     5262899.02749   4097548.99949  22558903.0334   22558908.1804
  21582016.897    -9879423.47349  -7677171.35749  21582017.5334   21582022.2644
  21689906.870     3749990.061 9   2922285.139 9  21689908.905    21689915.650
  23257157.008    -6958475.62949  -5397382.22649  23257158.1564   23257165.2154
  21134745.995     3447352.20649   2697117.95749  21134747.7234   21134752.1974
  24434017.617    -7667473.54349  -5956713.20449  24434017.8884   24434026.0744
  24790782.536     8028588.79449   6251887.07949  24790783.8154   24790788.8954
  21241922.906   -11776145.47549  -9158686.96649  21241924.9374   21241930.0694
 96  2 12  1 32  0.0000000  0  8  2  9 12 24  7  5 26  4
  22569493.792     5318555.82649   4140917.92849  22569494.6444   22569499.3414
  21572973.314    -9926938.08449  -7714195.71949  21572975.7754   21572980.6394
  21700389.931     3805083.833 9   2965215.340 9  21700393.065    21700399.731
  23236527.885    -7066883.21449  -5481855.61149  23236529.7424   23236535.0744
  21143373.875     3492695.21049   2732450.18049  21143376.2044   21143380.5104
  24416810.149    -7757905.08349  -6027179.29149  24416809.1694   24416817.0714
  24804158.328     8098887.92949   6306665.56549  24804161.2464   24804166.5694
  21230639.406   -11835437.74849  -9204888.71249  21230642.1804   21230646.9714
 96  2 12  1 32 30.0000000  0  8  2  9 12 24  7  5 26  4
  22580132.797     5374473.62149   4184490.24249  22580135.2904   22580140.5224
  21564035.790    -9973912.43449  -7750799.10049  21564036.7824   21564041.4214
  21710952.060     3860582.068 9   3008460.710 9  21710953.959    21710960.552
  23215938.013    -7175078.99349  -5566163.98849  23215941.0494   23215944.5164
  21152046.653     3538267.71849   2767961.24049  21152048.4444   21152052.5344
  24399592.514    -7848367.89449  -6097669.74149  24399596.1304   24399603.0374
  24817546.983     8169239.51949   6361484.98649  24817549.6574   24817554.6474
  21219454.787   -11894222.89149  -9250695.28049  21219455.7414   21219460.3974
 96  2 12  1 33  0.0000000  0  8  2  9 12 24  7  5 26  4
  22590818.218     5430619.56549   4228240.32749  22590819.4934   22590824.6854
  21555194.770   -10020370.89349  -7787000.48449  21555196.0894   21555200.7044
  21721585.908     3916464.481 9   3052005.433 9  21721588.048    21721594.611
  23195384.932    -7283081.79749  -5650321.96949  23195387.5804   23195395.7474
  21160758.947     3584047.90049   2803634.12249  21160759.9074   21160764.5704
  24382370.812    -7938882.78749  -6168200.80249  24382371.5714   24382376.5884
  24830936.519     8239605.22649   6416315.38349  24830939.0024   24830944.3394
  21208361.548   -11952512.33249  -9296115.59949  21208363.6044   21208368.1334
 96  2 12  1 33 30.0000000  0  8  2  9 12 24  7  5 26  4
  22601550.806     5487020.31849   4272188.97449  22601551.8874   22601557.1684
  21546449.776   -10066318.15349  -7822803.53949  21546452.4764   21546457.2324
  21732294.914     3972739.194 9   3095855.848 9  21732296.597    21732303.391
  23174871.272    -7390890.71249  -5734328.87849  23174873.3084   23174878.4934
  21169511.480     3630041.11049   2839472.99949  21169512.3384   21169516.8914
  24365138.043    -8029435.18049  -6238761.04849  24365139.5604   24365143.3404
  24844329.381     8309981.12849   6471153.71849  24844331.0454   24844336.7504
  21197364.307   -12010301.49649  -9341146.09049  21197366.6154   21197371.0254
 96  2 12  1 34  0.0000000  0  8  2  9 12 24  7  5 26  4
  22612333.810     5543682.11049   4316341.00749  22612334.3314   22612339.9094
  21537801.555   -10111767.25049  -7858218.40849  21537803.7434   21537808.3914
  21743078.007     4029407.393 9   3140012.876 9  21743080.272    21743086.959
  23154390.070    -7498511.66349  -5818189.31949  23154393.3154   23154397.8004
  21178306.096     3676260.64149   2875488.23149  21178307.2554   21178312.1044
  24347901.164    -8120009.53649  -6309338.39749  24347904.1104   24347907.9944
  24857725.434     8380385.88349   6526014.55949  24857728.5744   24857735.4134
  21186464.053   -12067585.47849  -9385782.93049  21186465.8094   21186470.5134
 96  2 12  1 34 30.0000000  0  8  2  9 12 24  7  5 26  4
  22623162.573     5600594.03249   4360687.95149  22623164.3194   22623169.6254
  21529245.926   -10156732.80249  -7893256.49349  21529247.0534   21529251.6734
  21753934.884     4086460.789 9   3184470.056 9  21753937.196    21753943.868
  23133944.572    -7605957.05349  -5901912.98049  23133946.4434   23133952.1264
  21187143.110     3722697.13449   2911672.52349  21187144.1904   21187148.8114
  24330664.406    -8210596.67949  -6379925.71249  24330666.7264   24330670.4454
  24871132.383     8450831.23949   6580906.98949  24871134.0834   24871140.0594
  21175659.763   -12124363.10849  -9430025.21549  21175661.3484   21175666.1004
 96  2 12  1 35  0.0000000  0  8  2  9 12 24  7  5 26  4
  22634048.189     5657796.73049   4405261.48849  22634050.0744   22634055.2064
  21520787.625   -10201177.19949  -7927888.47549  21520789.7524   21520794.4904
  21764870.437     4143927.043 9   3229248.947 9  21764872.674    21764879.230
  23113533.341    -7713214.57449  -5985490.21949  23113535.3504   23113543.3114
  21196024.105     3769366.72549   2948038.45349  21196025.2104   21196029.6814
  24313431.343    -8301147.77149  -6450484.96349  24313434.3574   24313441.1104
  24884550.886     8521355.09649   6635860.62349  24884553.7424   24884559.9474
  21164959.747   -12180588.21049  -9473836.96349  21164961.9354   21164966.6374
 96  2 12  1 35 30.0000000  0  8  2  9 12 24  7  5 26  4
  22644986.393     5715274.55649   4450049.41649  22644987.3804   22644992.6834
  21512426.545   -10245118.12149  -7962128.14549  21512427.9304   21512432.4934
  21775879.953     4201777.403 9   3274327.135 9  21775881.258    21775887.751
  23093150.992    -7820314.80349  -6068944.91149  23093155.9954   23093161.6204
  21204942.857     3816239.86249   2984562.98549  21204944.9634   21204949.5564
  24296205.044    -8391684.69349  -6521033.17349  24296206.3404   24296212.0804
  24897981.229     8591927.59649   6690852.16549  24897983.4814   24897988.6484
  21154362.761   -12236280.79049  -9517233.75849  21154363.9674   21154368.6664
 96  2 12  1 36  0.0000000  0  8  2  9 12 24  7  5 26  4
  22655977.653     5773027.41149   4495051.63449  22655977.8504   22655982.9624
  21504166.116   -10288530.49549  -7995955.95949  21504166.7014   21504171.5014
  21786960.503     4260014.965 9   3319707.047 9  21786963.413    21786970.014
  23072805.256    -7927239.13549  -6152262.53849  23072809.4614   23072814.7094
  21213900.615     3863314.55749   3021244.57849  21213902.8504   21213907.2804
  24278979.525    -8482205.09049  -6591568.50249  24278981.3424   24278986.8384
  24911419.717     8662541.56749   6745876.00649  24911422.1394   24911426.8794
  21143867.144   -12291429.23949  -9560206.54149  21143869.6394   21143874.3604
 96  2 12  1 36 30.0000000  0  8  2  9 12 24  7  5 26  4
  22667019.328     5831053.24449   4540266.57349  22667019.6414   22667025.0254
  21496007.958   -10331397.15149  -8029358.53749  21496009.7354   21496014.0464
  21798116.836     4318637.947 9   3365387.280 9  21798118.939    21798125.557
  23052494.391    -8033985.67649  -6235441.65749  23052495.8394   23052501.7364
  21222894.269     3910570.11649   3058067.10649  21222895.0374   21222899.8614
  24261756.771    -8572715.00449  -6662095.66649  24261756.4714   24261762.7544
  24924863.337     8733182.07149   6800920.52949  24924863.9074   24924869.6114
  21133477.155   -12346030.23849  -9602752.74749  21133479.3394   21133484.3274
 96  2 12  1 37  0.0000000  0  8  2  9 12 24  7  5 26  4
  22678111.458     5889356.66849   4585697.80649  22678114.1844   22678119.6164
  21487956.698   -10373702.92949  -8062324.06949  21487959.1314   21487963.6624
  21809347.363     4377655.639 9   3411375.077 9  21809349.736    21809356.431
  23032221.648    -8140522.76949  -6318457.54949  23032222.9774   23032227.7314
  21231923.022     3958017.10249   3095038.79649  21231923.7434   21231928.7994
  24244533.615    -8663216.29149  -6732616.09349  24244535.0934   24244540.1874
  24938308.130     8803846.37149   6855983.62849  24938311.0734   24938317.5314
  21123192.954   -12400078.08249  -9644867.92349  21123194.3464   21123199.1064
 96  2 12  1 37 30.0000000  0  8  2  9 12 24  7  5 26  4
  22689257.881     5947919.50449   4631331.17549  22689258.1034   22689263.8734
  21480009.722   -10415466.48849  -8094867.08849  21480011.5454   21480016.2194
  21820652.525     4437062.254 9   3457665.928 9  21820654.432    21820661.180
  23011990.044    -8246833.51149  -6401297.05849  23011993.1604   23011998.1734
  21240985.772     4005647.57449   3132153.45949  21240987.8164   21240992.5354
  24227310.022    -8753724.75249  -6803142.09449  24227312.4464   24227317.1384
  24951759.000     8874530.32349   6911061.96149  24951761.1284   24951767.9834
  21113010.727   -12453583.48549  -9686560.41349  21113012.5074   21113017.3124
 96  2 12  1 38  0.0000000  0  8  2  9 12 24  7  5 26  4
  22700447.982     6006729.34949   4677157.02549  22700448.9744   22700454.2614
  21472166.520   -10456689.41549  -8126988.84149  21472167.3414   21472171.9414
  21832029.932     4496852.346 9   3504255.591 9  21832032.109    21832038.872
  22991803.022    -8352919.60649  -6483961.53549  22991805.4114   22991812.0304
  21250083.527     4053451.32949   3169403.14749  21250084.6604   21250089.2414
  24210084.688    -8844249.17749  -6873680.56149  24210085.1824   24210092.1244
  24965215.193     8945235.95149   6966157.24849  24965215.5984   24965222.6554
  21102929.751   -12506558.78849  -9727839.85049  21102931.6404   21102936.3404
 96  2 12  1 38 30.0000000  0  8  2  9 12 24  7  5 26  4
  22711687.649     6065798.19249   4723184.69749  22711689.7104   22711695.2764
  21464425.028   -10497371.57549  -8158689.21349  21464425.7584   21464430.2164
  21843482.916     4557041.467 9   3551156.190 9  21843485.694    21843492.360
  22971660.564    -8458765.33049  -6566438.68449  22971661.9924   22971666.7324
  21259219.181     4101457.90049   3206810.87549  21259220.1114   21259224.7554
  24192858.168    -8934773.44049  -6944218.89549  24192859.4474   24192864.2844
  24978679.280     9015991.88949   7021291.75449  24978680.6154   24978687.8414
  21092952.944   -12558987.39549  -9768693.28049  21092954.6664   21092959.5584
 96  2 12  1 39  0.0000000  0  8  2  9 12 24  7  5 26  4
  22722976.762     6125133.52249   4769420.01449  22722981.1964   22722986.1324
  21456783.064   -10537520.41349  -8189974.01049  21456785.7134   21456790.0364
  21855014.881     4617638.251 9   3598374.453 9  21855017.088    21855023.718
  22951567.004    -8564352.16849  -6648714.10649  22951569.9244   22951577.5644
  21268396.243     4149690.95649   3244395.08349  21268398.3604   21268402.6844
  24175636.483    -9025276.72549  -7014740.87749  24175636.6214   24175641.7154
  24992153.577     9086796.03949   7076463.76049  24992153.9154   24992160.0924
  21083080.908   -12610863.65549  -9809116.31249  21083082.8944   21083087.6984
 96  2 12  1 39 30.0000000  0  8  2  9 12 24  7  5 26  4
  22734320.502     6184722.70749   4815853.16849  22734320.8164   22734326.0124
  21449240.749   -10577155.77849  -8220858.70449  21449243.2034   21449247.8794
  21866621.090     4678629.677 9   3645900.223 9  21866623.304    21866630.051
  22931517.796    -8669710.95849  -6730811.81749  22931522.0424   22931525.0794
  21277616.990     4198140.58549   3282148.05249  21277618.0784   21277622.7154
  24158417.000    -9115763.83249  -7085250.26349  24158418.3664   24158424.4954
  25005630.861     9157623.82149   7131654.21449  25005632.5114   25005638.5704
  21073311.828   -12662198.14049  -9849117.18249  21073314.1454   21073319.1664
 96  2 12  1 40  0.0000000  0  8  2  9 12 24  7  5 26  4
  22745700.001     6244532.61149   4862458.29049  22745701.9914   22745708.0924
  21441790.166   -10616318.65349  -8251375.21949  21441790.8764   21441795.4344
  21878295.573     4739979.853 9   3693705.539 9  21878297.821    21878304.541
  22911505.241    -8774886.53349  -6812766.79949  22911507.4934   22911513.4194
  21286873.290     4246778.98749   3320048.11249  21286873.6934   21286878.2794
  24141193.889    -9206266.21449  -7155771.56949  24141196.0354   24141202.1594
  25019104.656     9228427.19949   7186825.66049  25019106.4894   25019111.1454
  21063640.135   -12713025.26349  -9888722.71149  21063642.3804   21063646.8914
 96  2 12  1 40 30.0000000  0  7  2  9 12 24  7  5  4
  22757128.319     6304585.55349   4909252.79249  22757129.4664   22757135.1074
  21434432.229   -10654981.41649  -8281502.03649  21434433.4674   21434438.0704
  21890046.046     4801726.122 9   3741819.497 9  21890048.039    21890054.393
  22891534.460    -8879827.24649  -6894538.75749  22891537.3544   22891540.5744
  21296169.727     4295638.19549   3358120.23249  21296171.1254   21296175.6704
  24123977.977    -9296743.16649  -7226273.03849  24123980.1634   24123985.1294
  21054073.588   -12763298.10149  -9927896.32849  21054075.7514   21054080.4014
 96  2 12  1 41  0.0000000  0  7  2  9 12 24  7  5  4
  22768599.438     6364858.51049   4956218.73649  22768598.7244   22768605.1144
  21427166.972   -10693164.38749  -8311254.99549  21427167.6444   21427172.2694
  21901866.112     4863841.270 9   3790220.893 9  21901868.160    21901874.451
  22871607.400    -8984553.15749  -6976143.33149  22871608.5974   22871614.8194
  21305502.042     4344678.72149   3396333.64149  21305503.1784   21305507.8364
  24106761.409    -9387223.02449  -7296776.80749  24106760.3804   24106766.7734
  21044607.453   -12813043.54749  -9966658.99349  21044609.4894   21044614.4154
 96  2 12  1 41 30.0000000  0  7  2  9 12 24  7  5  4
  22780112.408     6425373.39349   5003373.18349  22780114.8414   22780120.3994
  21419997.902   -10730837.61849  -8340610.74749  21419998.3694   21420003.0814
  21913759.521     4926344.934 9   3838925.030 9  21913762.250    21913768.510
  22851718.670    -9089054.15549  -7057572.64949  22851723.0304   22851728.9704
  21314868.894     4393907.22849   3434693.52449  21314870.9614   21314875.6664
  24089539.786    -9477713.48949  -7367288.80449  24089541.8794   24089548.5114
  21035247.493   -12862231.05549 -10004986.89949  21035249.4114   21035254.1104
 96  2 12  1 42  0.0000000  0  7  2  9 12 24  7  5  4
  22791676.908     6486131.54349   5050717.17049  22791676.6304   22791682.0494
  21412927.228   -10767985.91049  -8369557.45649  21412929.5694   21412934.0704
  21925726.912     4989232.328 9   3887928.183 9  21925729.235    21925735.314
  22831878.352    -9193316.69549  -7138816.15849  22831882.1594   22831886.4834
  21324272.933     4443320.40149   3473197.30949  21324274.2124   21324278.7024
  24072317.658    -9568226.78249  -7437818.61549  24072318.2774   24072323.8564
  21025993.207   -12910860.91549 -10042880.27349  21025995.6354   21026000.2194
 96  2 12  1 42 30.0000000  0  7  2  9 12 24  7  5  4
  22803285.940     6547145.97849   5098260.87149  22803287.0474   22803292.6474
  21405961.702   -10804590.95249  -8398080.86049  21405964.0564   21405967.9914
  21937767.440     5052504.366 9   3937231.063 9  21937769.511    21937775.803
  22812082.667    -9297333.73349  -7219868.36649  22812087.5214   22812094.0264
  21333711.898     4492921.22849   3511847.31449  21333712.7444   21333717.5114
  24055088.079    -9658750.45749  -7508356.49049  24055090.9004   24055096.0204
  21016847.247   -12958928.82649 -10080335.76949  21016848.5994   21016853.2994
 96  2 12  1 43  0.0000000  0  7  2  9 12 24  7  5  4
  22814943.865     6608411.79249   5146000.44649  22814946.0464   22814951.3734
  21399097.941   -10840665.60049  -8426190.96449  21399099.0984   21399103.3954
  21949875.494     5116133.169 9   3986811.941 9  21949877.643    21949884.077
  22792331.174    -9401146.69149  -7300761.55549  22792332.1624   22792338.4444
  21343180.718     4542685.03649   3550624.31749  21343182.5604   21343187.6604
  24037856.288    -9749306.22949  -7578919.41149  24037859.0644   24037864.3264
  21007801.237   -13006459.95149 -10117372.99149  21007803.5834   21007808.3334
 96  2 12  1 43 30.0000000  0  7  2  9 12 24  7  5  4
  22826657.217     6669951.89649   5193953.77049  22826657.0794   22826661.7264
  21392339.637   -10876172.90149  -8453858.98549  21392341.9744   21392346.5384
  21962058.357     5180150.908 9   4036695.886 9  21962059.799    21962066.179
  22772620.217    -9504716.70149  -7381465.44449  22772624.5034   22772630.9554
  21352689.931     4592650.61249   3589558.54349  21352690.7044   21352695.2234
  24020627.150    -9839856.23949  -7649477.81749  24020627.7244   24020632.5544
  20998865.498   -13053421.67749 -10153966.52049  20998866.9144   20998871.7144
 96  2 12  1 44  0.0000000  0  7  2  9 12 24  7  5  4
  22838416.798     6731758.16649   5242114.49149  22838417.7324   22838423.7684
  21385690.442   -10911122.48149  -8481092.41149  21385691.4974   21385695.5824
  21974310.905     5244545.259 9   4086873.294 9  21974313.602    21974320.125
  22752961.576    -9608039.55049  -7461976.76349  22752964.4464   22752968.0444
  21362234.777     4642812.38949   3628645.65049  21362235.8774   21362240.6914
  24003399.603    -9930377.46349  -7720013.79649  24003402.5344   24003406.5094
  20990032.664   -13099836.09649 -10190133.57249  20990034.7504   20990039.0994
 96  2 12  1 44 30.0000000  0  7  2  9 12 24  7  5  4
  22850230.821     6793831.34749   5290483.20249  22850230.5474   22850235.4024
  21379143.740   -10945530.57049  -8507903.90049  21379143.9314   21379148.1914
  21986636.637     5309313.308 9   4137341.887 9  21986638.629    21986645.100
  22733345.702    -9711120.28949  -7542299.39149  22733347.2564   22733353.5814
  21371814.499     4693151.31849   3667870.79849  21371815.1694   21371820.1474
  23986182.370   -10020863.61349  -7790522.42549  23986182.4014   23986188.5324
  20981303.918   -13145705.60449 -10225876.01849  20981306.0174   20981310.2564
 96  2 12  1 45  0.0000000  0  7  2  9 12 24  7  5  4
  22862092.194     6856178.28949   5339065.23049  22862094.0244   22862099.6904
  21372700.022   -10979384.40949  -8534283.50549  21372701.7564   21372706.1054
  21999034.690     5374469.017 9   4188112.561 9  21999037.336    21999043.897
  22713782.072    -9813925.89049  -7622407.61349  22713782.9084   22713790.6384
  21381427.255     4743672.17349   3707237.71049  21381428.9264   21381433.7394
  23968970.199   -10111313.17049  -7861002.56949  23968970.7374   23968976.5654
  20972682.273   -13191014.18849 -10261181.38149  20972683.7514   20972688.3654
 96  2 12  1 45 30.0000000  0  7  2  9 12 24  7  5  4
  22874007.167     6918774.01849   5387841.11649  22874005.8484   22874010.6624
  21366356.567   -11012713.99549  -8560254.60349  21366359.0714   21366363.8094
  22011501.999     5439985.056 9   4239164.012 9  22011504.463    22011511.037
  22694267.018    -9916473.86749  -7702315.12049  22694269.7474   22694274.2704
  21391070.924     4794355.65149   3746731.34449  21391074.0384   21391078.6694
  23951757.682   -10201763.02049  -7931482.92649  23951759.8264   23951765.4334
  20964161.748   -13235784.53749 -10296067.33749  20964164.3744   20964168.8364
 96  2 12  1 46  0.0000000  0  7  2  9 12 24  7  5  4
  22885967.148     6981639.94649   5436827.56349  22885968.4624   22885974.4894
  21360114.881   -11045508.95249  -8585809.11049  21360118.4984   21360123.0324
  22024041.437     5505875.564 9   4290507.253 9  22024042.989    22024049.578
  22674802.928   -10018756.76849  -7782016.03549  22674804.9994   22674811.1984
  21400750.141     4845205.28549   3786354.44649  21400750.1724   21400754.6214
  23934547.692   -10292199.64049  -8001952.95749  23934549.4554   23934556.1814
  20955751.228   -13279988.06149 -10330511.61249  20955752.8254   20955757.3394
 96  2 12  1 46 30.0000000  0  7  2  9 12 24  7  5  4
  22897981.595     7044783.81549   5486030.55549  22897984.0934   22897989.6064
  21353979.362   -11077757.57049  -8610937.89949  21353981.7734   21353985.9924
  22036652.846     5572154.332 9   4342153.031 9  22036655.461    22036662.110
  22655393.103   -10120754.35249  -7861494.63449  22655395.4004   22655401.8744
  21410456.567     4896230.57949   3826114.43149  21410459.7604   21410464.3474
  23917340.736   -10382626.18249  -8072415.13949  23917342.2984   23917347.5594
  20947450.742   -13323602.10449 -10364496.55549  20947453.3604   20947457.8654
 96  2 12  1 47  0.0000000  0  7  2  9 12 24  7  5  4
  22910040.793     7108156.92949   5535412.17949  22910043.9114   22910049.9504
  21347940.116   -11109497.60749  -8635670.39249  21347941.7664   21347946.2444
  22049331.544     5638776.685 9   4394066.535 9  22049333.352    22049340.003
  22636028.961   -10222520.44449  -7940792.85749  22636031.2764   22636037.3554
  21420195.613     4947399.59549   3865986.40549  21420197.2264   21420201.7144
  23900124.352   -10473086.73249  -8142903.83449  23900127.7574   23900132.7644
  20939256.908   -13366664.11349 -10398051.34249  20939258.8354   20939263.1044
 96  2 12  1 47 30.0000000  0  7  2  9 12 24  7  5  4
  22922148.506     7171769.11849   5584980.09449  22922149.5234   22922154.2784
  21341998.519   -11140722.52649  -8660001.48949  21341999.8104   21342004.4234
  22062076.242     5705749.925 9   4446253.467 9  22062077.925    22062084.558
  22616705.592   -10324064.97249  -8019918.42749  22616707.3174   22616714.6594
  21429961.166     4998727.05349   3905981.83449  21429964.2824   21429969.1354
  23882909.426   -10563564.38349  -8213405.85249  23882909.6474   23882915.9834
  20931169.649   -13409164.97749 -10431168.87049  20931171.1544   20931175.4504
 96  2 12  1 48  0.0000000  0  7  2  9 12 24  7  5  4
  22934303.337     7235636.29249   5634746.71249  22934302.9084   22934307.9524
  21336158.878   -11171410.06049  -8683913.85149  21336160.0264   21336164.5904
  22074892.271     5773099.569 9   4498733.695 9  22074894.098    22074900.847
  22597430.166   -10425355.07449  -8098845.74149  22597432.5304   22597438.7434
  21439763.845     5050228.38749   3946112.75249  21439764.8154   21439769.6794
  23865694.563   -10654021.18449  -8283891.63449  23865696.7334   23865702.3284
  20923190.389   -13451095.28349 -10463841.80849  20923191.9914   20923196.5484
 96  2 12  1 48 30.0000000  0  7  2  9 12 24  7  5  4
  22946500.236     7299747.45849   5684703.44049  22946502.7654   22946508.0974
  21330420.473   -11201566.10349  -8707412.05949  21330421.9964   21330426.5814
  22087775.775     5840808.889 9   4551494.194 9  22087778.740    22087785.599
  22578201.846   -10526407.47349  -8177587.84449  22578203.0244   22578209.3504
  21449598.012     5101908.97849   3986383.35149  21449599.3474   21449604.3014
  23848483.249   -10744474.36149  -8354374.58249  23848483.6164   23848491.1094
  20915314.128   -13492484.69049 -10496093.26649  20915315.8784   20915320.3274
 96  2 12  1 49  0.0000000  0  7  2  9 12 24  7  5  4
  22958752.134     7364118.40049   5734862.59349  22958752.3514   22958757.3604
  21324788.246   -11231168.88649  -8730479.16349  21324788.5674   21324793.3774
  22100732.820     5908892.964 9   4604546.704 9  22100734.708    22100741.549
  22559018.755   -10627210.21849  -8256135.38049  22559019.7654   22559025.4644
  21459470.312     5153790.95649   4026810.87349  21459472.1174   21459476.8874
  23831274.017   -10834909.48549  -8424843.46649  23831275.9964   23831280.3714
  20907544.030   -13533313.76449 -10527908.10849  20907546.0754   20907550.8424
 96  2 12  1 49 30.0000000  0  7  2  9 12 24  7  5  4
  22971044.763     7428727.41749   5785207.28249  22971047.1514   22971052.5524
  21319256.183   -11260230.16549  -8753124.31049  21319258.4164   21319263.0614
  22113757.553     5977336.087 9   4657878.990 9  22113759.022    22113765.763
  22539886.784   -10727750.78849  -8334478.65249  22539889.1094   22539893.4854
  21469374.890     5205849.65649   4067376.09949  21469378.5844   21469383.1054
  23814061.856   -10925349.85049  -8495316.44649  23814063.5154   23814070.1794
  20899877.653   -13573602.96249 -10559302.26249  20899879.3864   20899884.0574
 96  2 12  1 50  0.0000000  0  7  2  9 12 24  7  5  4
  22983387.854     7493583.14649   5835744.21849  22983388.1884   22983394.0824
  21313832.604   -11288733.33949  -8775334.57049  21313834.2944   21313839.1054
  22126850.649     6046148.470 9   4711499.013 9  22126853.622    22126860.277
  22520809.601   -10828005.14149  -8412598.89849  22520810.3014   22520815.1094
  21479318.667     5258086.96249   4108080.50449  21479318.8674   21479323.5204
  23796854.310   -11015783.53549  -8565784.20349  23796855.4284   23796861.7874
  20892316.036   -13613339.15749 -10590265.51149  20892317.8404   20892322.5704
 96  2 12  1 50 30.0000000  0  7  2  9 12 24  7  5  4
  22995778.151     7558706.14349   5886489.39949  22995780.9564   22995786.1474
  21308518.522   -11316658.63849  -8797094.54549  21308520.5244   21308524.9024
  22140018.526     6115339.250 9   4765413.890 9  22140020.166    22140026.995
  22501788.185   -10927958.89949  -8490484.90149  22501790.1164   22501795.6094
  21489293.308     5310511.11849   4148930.50449  21489295.0914   21489299.4834
  23779650.472   -11106196.79049  -8636236.06849  23779651.4514   23779656.7354
  20884864.957   -13652491.40249 -10620773.73449  20884867.2464   20884871.9884
 96  2 12  1 51  0.0000000  0  7  2  9 12 24  7  5  4
  23008217.601     7624065.85349   5937419.03749  23008218.5094   23008223.9634
  21303310.174   -11344034.86149  -8818426.66249  21303310.8934   21303315.2624
  22153251.916     6184884.768 9   4819605.171 9  22153254.174    22153261.166
  22482823.278   -11027627.44749  -8568148.68749  22482823.8014   22482828.9554
  21499296.464     5363071.61649   4189886.74849  21499296.8334   21499301.3704
  23762444.937   -11196598.10649  -8706678.61549  23762447.4244   23762453.4824
  20877524.779   -13691069.33549 -10650834.43849  20877526.5054   20877530.6084
 96  2 12  1 51 30.0000000  0  7  2  9 12 24  7  5  4
  23020702.532     7689674.16149   5988542.37549  23020703.0934   23020707.9224
  21298205.811   -11370850.26449  -8839321.77749  21298208.2854   21298212.6394
  22166555.839     6254795.189 9   4874080.798 9  22166557.858    22166564.523
  22463909.952   -11127006.00949  -8645586.47849  22463912.7254   22463917.9494
  21509323.820     5415769.49549   4230950.04049  21509324.8994   21509329.3114
  23745249.840   -11286961.94649  -8777091.96149  23745252.7894   23745257.2784
  20870292.874   -13729069.10349 -10680444.62449  20870294.9884   20870299.5514
 96  2 12  1 52  0.0000000  0  7  2  9 12 24  7  5  4
  23033235.712     7755541.28649   6039867.38949  23033237.1784   23033242.8604
  21293209.387   -11397113.54549  -8859786.66849  21293210.2714   21293214.7484
  22179928.190     6325066.698 9   4928837.798 9  22179929.888    22179936.642
  22445051.080   -11226111.09749  -8722811.20249  22445053.6364   22445058.6664
  21519380.058     5468615.65749   4272128.87449  21519381.2674   21519385.7834
  23728065.380   -11377272.04949  -8847463.42149  23728066.9334   23728071.9774
  20863173.364   -13766483.44749 -10709598.63549  20863175.3624   20863179.6384
 96  2 12  1 52 30.0000000  0  7  2  9 12 24  7  5  4
  23045820.263     7821660.37849   6091388.75449  23045820.0024   23045825.6214
  21288316.867   -11422828.88649  -8879824.59249  21288316.9464   21288321.3554
  22193367.561     6395694.814 9   4983872.668 9  22193370.223    22193376.825
  22426243.450   -11324947.16849  -8799826.28249  22426245.6904   22426250.7014
  21529463.372     5521605.31549   4313419.53149  21529464.9454   21529469.4164
  23710887.976   -11467538.64649  -8917800.99649  23710889.1364   23710894.4374
  20856165.242   -13803310.59249 -10738295.08949  20856167.4354   20856172.1084
 96  2 12  1 53  0.0000000  0  7  2  9 12 24  7  5  4
  23058447.676     7888028.42149   6143104.11849  23058448.5834   23058453.9384
  21283526.671   -11447989.50049  -8899430.25849  21283528.9054   21283533.1434
  22206878.802     6466688.662 9   5039192.530 9  22206879.700    22206886.495
  22407488.382   -11423504.05249  -8876623.82549  22407490.7064   22407496.1284
  21539576.914     5574757.25949   4354836.63949  21539579.3614   21539583.9224
  23693719.222   -11557758.64349  -8988102.24849  23693721.7484   23693727.0454
  20849269.370   -13839547.29649 -10766531.46049  20849271.9684   20849276.5514
 96  2 12  1 53 30.0000000  0  7  2  9 12 24  7  5  4
  23071124.294     7954636.75849   6195006.70649  23071124.1724   23071129.8674
  21278845.034   -11472597.62049  -8918605.41249  21278846.1894   21278850.4134
  22220454.470     6538033.331 9   5094785.752 9  22220456.318    22220463.092
  22388786.106   -11521785.27049  -8953206.57349  22388787.6934   22388793.6944
  21549723.555     5628071.99449   4396380.59449  21549724.7924   21549729.6264
  23676553.950   -11647954.93949  -9058385.05449  23676556.6364   23676562.9714
  20842483.688   -13875208.68849 -10794319.53349  20842485.7624   20842490.5714
 96  2 12  1 54  0.0000000  0  7  2  9 12 24  7  5  4
  23083844.605     8021482.64649   6247094.40749  23083844.9754   23083850.1564
  21274265.601   -11496659.85649  -8937355.20449  21274267.4374   21274271.8854
  22234094.374     6609712.642 9   5150639.738 9  22234096.314    22234103.272
  22370138.787   -11619785.41349  -9029570.29549  22370139.6314   22370144.7354
  21559896.985     5681533.18549   4438038.67349  21559898.0724   21559902.4994
  23659392.177   -11738157.44249  -9128672.68549  23659393.1794   23659397.8254
  20835806.193   -13910299.75249 -10821663.19749  20835808.0904   20835812.6874
 96  2 12  1 54 30.0000000  0  7  2  9 12 24  7  5  4
  23096607.925     8088563.81449   6299365.42749  23096609.6724   23096615.1794
  21269794.369   -11520154.83249  -8955662.97049  21269796.1264   21269800.7544
  22247799.705     6681734.598 9   5206760.713 9  22247801.611    22247808.479
  22351546.070   -11717482.30549  -9105697.70649  22351548.3964   22351553.7854
  21570098.030     5735141.52749   4479811.40949  21570099.4994   21570103.9884
  23642225.311   -11828370.26049  -9198968.34449  23642225.6104   23642230.2024
  20829235.464   -13944826.92749 -10848567.46549  20829237.7314   20829242.3234
 96  2 12  1 55  0.0000000  0  7  2  9 12 24  7  5  4
  23109421.278     8155894.15549   6351830.62249  23109421.9554   23109428.3464
  21265434.939   -11543068.54049  -8973517.80749  21265435.9934   21265440.5524
  22261571.871     6754111.559 9   5263158.327 9  22261574.636    22261581.482
  22333016.202   -11814855.13749  -9181572.62549  22333019.2354   22333024.2704
  21580331.311     5788915.14849   4521712.94049  21580332.3654   21580337.2334
  23625058.697   -11918567.57549  -9269251.91049  23625061.6034   23625066.4404
  20822773.484   -13978786.99749 -10875029.83249  20822775.2464   20822779.9424
 96  2 12  1 55 30.0000000  0  7  2  9 12 24  7  5  4
  23122285.367     8223497.66849   6404508.66849  23122286.8794   23122292.3954
  21261188.272   -11565382.70949  -8990905.46649  21261189.4524   21261193.7964
  22275415.908     6826855.258 9   5319841.702 9  22275417.326    22275424.200
  22314551.686   -11911886.55549  -9257181.49449  22314554.7924   22314559.5034
  21590594.744     5842852.37849   4563741.95649  21590596.3294   21590600.8004
  23607904.263   -12008734.42149  -9339511.78049  23607904.6374   23607908.3474
  20816421.117   -14012167.25649 -10901040.40049  20816423.1894   20816427.6764
 96  2 12  1 56  0.0000000  0  7  2  9 12 24  7  5  4
  23135200.065     8291356.12949   6457385.35849  23135199.5544   23135205.3974
  21257048.782   -11587125.38449  -9007847.80849  21257052.3694   21257056.8674
  22289324.734     6899948.287 9   5376797.292 9  22289326.416    22289333.348
  22296149.997   -12008596.27449  -9332539.69749  22296150.9274   22296156.6354
  21600886.696     5896930.44549   4605880.71749  21600886.6684   21600891.5444
  23590749.467   -12098879.72949  -9409754.83149  23590750.0814   23590753.7604
  20810175.920   -14044988.61249 -10926615.45949  20810177.6304   20810182.2284
 96  2 12  1 56 30.0000000  0  7  2  9 12 24  7  5  4
  23148149.060     8359430.87749   6510430.58049  23148154.6374   23148158.6994
  21253016.820   -11608328.83949  -9024369.97349  21253017.2254   21253021.9384
  22303295.617     6973370.144 9   5434009.100 9  22303298.224    22303305.215
  22277798.952   -12105021.63549  -9407676.30949  22277802.0404   22277807.6914
  21611197.967     5951129.87649   4648114.04849  21611200.7164   21611205.2384
  23573597.061   -12189010.03849  -9479986.20749  23573597.4824   23573603.6664
  20804031.614   -14077274.78049 -10951773.49049  20804034.0284   20804038.6344
 96  2 12  1 57  0.0000000  0  7  2  9 12 24  7  5  4
  23161155.854     8427751.02349   6563667.00749  23161155.2444   23161160.6794
  21249083.181   -11628988.08249  -9040468.08349  21249086.0484   21249090.4624
  22317334.064     7047140.370 9   5491492.369 9  22317336.031    22317342.952
  22259507.227   -12201151.52849  -9482582.70349  22259509.0414   22259515.0124
  21621535.074     6005454.78749   4690445.15649  21621538.0664   21621542.7524
  23556455.417   -12279096.42849  -9550183.36449  23556454.8014   23556461.2004
  20797997.728   -14108984.88849 -10976482.64449  20797999.4164   20798003.7934
 96  2 12  1 57 30.0000000  0  7  2  9 12 24  7  5  4
  23174205.950     8496343.86549   6617115.96149  23174207.5144   23174213.0234
  21245260.450   -11649085.84149  -9056128.66949  21245261.8404   21245266.4434
  22331440.681     7121274.765 9   5549259.408 9  22331443.393    22331450.555
  22241274.273   -12296969.63749  -9557246.12449  22241275.5824   22241281.5104
  21631902.230     6059923.21949   4732888.09749  21631903.0474   21631907.4614
  23539321.715   -12369122.32549  -9620333.36749  23539323.7754   23539329.6154
  20792077.826   -14140090.92649 -11000721.09249  20792080.2504   20792084.7184
 96  2 12  1 58  0.0000000  0  7  2  9 12 24  7  5  4
  23187311.389     8565198.69349   6670769.06649  23187309.8764   23187315.1814
  21241538.760   -11668636.40049  -9071362.86649  21241541.3964   21241545.6944
  22345616.750     7195767.382 9   5607305.587 9  22345618.899    22345625.931
  22223097.016   -12392484.24649  -9631673.05249  22223099.5904   22223105.6084
  21642296.245     6114547.53949   4775452.51449  21642297.9704   21642302.2704
  23522199.301   -12459089.51049  -9690437.63849  23522202.4564   23522208.2704
  20786273.720   -14170590.56649 -11024487.02749  20786276.2774   20786280.7394
 96  2 12  1 58 30.0000000  0  7  2  9 12 24  7  5  4
  23200456.002     8634293.71749   6724609.34849  23200458.8514   23200463.8854
  21237922.235   -11687653.04349  -9086181.02349  21237922.6374   21237927.1974
  22359856.629     7270598.854 9   5665615.804 9  22359858.893    22359866.054
  22204978.389   -12487700.15249  -9705867.22549  22204980.3404   22204986.9334
  21652718.864     6169310.84249   4818125.22749  21652719.1984   21652723.5404
  23505088.503   -12549020.26349  -9760513.52249  23505090.7354   23505096.1644
  20780582.971   -14200498.30949 -11047791.74549  20780585.1794   20780589.5544
 96  2 12  1 59  0.0000000  0  7  2  9 12 24  7  5  4
  23213652.889     8703642.71949   6778647.53049  23213656.2134   23213660.8604
  21234408.204   -11706113.42449  -9100565.73149  21234409.4684   21234414.0954
  22374162.244     7345771.140 9   5724191.596 9  22374163.966    22374170.598
  22186921.589   -12582591.64749  -9779808.62349  22186923.6224   22186929.4184
  21663167.355     6224221.42349   4860912.70049  21663168.1184   21663172.8074
  23487984.888   -12638908.77849  -9830556.49649  23487984.3904   23487989.8554
  20775005.626   -14229810.53449 -11070632.41849  20775007.3344   20775011.7684
 96  2 12  1 59 30.0000000  0  7  2  9 12 24  7  5  4
  23226898.390     8773240.81949   6832879.79749  23226898.9234   23226905.5184
  21231004.732   -11724001.88749  -9114504.78849  21231005.6314   21231009.9594
  22388531.937     7421282.651 9   5783031.710 9  22388533.086    22388540.286
  22168927.983   -12677148.40949  -9853489.17349  22168929.3674   22168935.8094
  21673648.589     6279301.55949   4903832.29249  21673649.7444   21673654.1164
  23470882.957   -12728765.56149  -9900574.71649  23470885.5414   23470890.9104
  20769538.905   -14258535.53149 -11093015.51049  20769540.9504   20769545.4684
 96  2 12  2  0  0.0000000  0  7  2  9 12 24  7  5  4
  23240190.802     8843092.14849   6887309.38949  23240191.2594   23240197.4224
  21227709.261   -11741310.89849  -9127992.32849  21227711.7294   21227716.3334
  22402967.766     7497144.340 9   5842144.685 9  22402969.099    22402976.144
  22151000.192   -12771355.34649  -9926897.12949  22151002.7044   22151008.8964
  21684162.184     6334554.28649   4946886.37149  21684163.8634   21684168.2834
  23453787.613   -12818594.56149  -9970571.30749  23453790.8744   23453795.7294
  20764185.225   -14286670.53349 -11114938.87449  20764187.0384   20764191.4084
 96  2 12  2  0 30.0000000  0  7  2  9 12 24  7  5  4
  23253527.440     8913178.15949   6941921.84749  23253528.1804   23253534.7584
  21224523.559   -11758051.58949  -9141037.01849  21224526.3354   21224530.6984
  22417465.263     7573335.860 9   5901514.666 9  22417467.983    22417474.965
  22133137.356   -12865230.33349 -10000046.44849  22133138.9454   22133144.7824
  21694702.816     6389948.10149   4990050.38949  21694704.8734   21694709.5384
  23436698.451   -12908418.52049 -10040563.97749  23436699.9474   23436704.2434
  20758938.797   -14314239.69949 -11136421.32449  20758940.9324   20758945.1904
 96  2 12  2  1  0.0000000  0  7  2  9 12 24  7  5  4
  23266910.669     8983511.83949   6996727.27549  23266912.3044   23266918.8454
  21221447.138   -11774223.27949  -9153638.33049  21221448.8094   21221453.3714
  22432028.523     7649858.430 9   5961142.622 9  22432029.849    22432036.755
  22115332.038   -12958787.97049 -10072948.46949  22115335.4794   22115341.2494
  21705273.278     6445491.97449   5033331.33249  21705274.5154   21705279.1544
  23419607.082   -12998235.59749 -10110551.25249  23419606.1124   23419612.6334
  20753801.153   -14341241.00149 -11157461.28149  20753802.6514   20753806.9194
 96  2 12  2  1 30.0000000  0  7  2  9 12 24  7  5  4
  23280342.171     9054093.40849   7051725.86049  23280343.9874   23280349.6524
  21218473.137   -11789852.38049  -9165816.84449  21218474.5074   21218479.1154
  22446653.799     7726713.201 9   6021029.433 9  22446654.806    22446661.896
  22097589.181   -13052038.71849 -10145611.36549  22097590.3074   22097596.2224
  21715872.338     6501187.50649   5076730.45249  21715872.8364   21715877.6174
  23402512.321   -13088052.85749 -10180538.69749  23402515.3774   23402519.7944
  20748771.658   -14367669.58849 -11178054.96249  20748773.3414   20748777.9154
 96  2 12  2  2  0.0000000  0  7  2  9 12 24  7  5  4
  23293821.718     9124933.29649   7106925.72749  23293824.3114   23293829.7254
  21215603.989   -11804930.99249  -9177566.40949  21215605.1734   21215609.9284
  22461342.160     7803910.288 9   6081182.975 9  22461345.073    22461351.962
  22079904.680   -13144967.46449 -10218023.32349  22079906.4674   22079912.4304
  21726496.747     6557027.52749   5120242.16449  21726498.9834   21726503.2724
  23385426.063   -13177843.54849 -10250505.44749  23385428.9844   23385433.3984
  20743852.952   -14393513.86349 -11198193.33449  20743855.3474   20743859.7594
 96  2 12  2  2 30.0000000  0  7  2  9 12 24  7  5  4
  23307357.233     9196047.40949   7162339.28749  23307356.8904   23307362.5024
  21212843.531   -11819435.66449  -9188868.75249  21212845.3344   21212849.4224
  22476101.160     7881464.857 9   6141615.103 9  22476103.100    22476109.885
  22062284.539   -13237561.58249 -10290174.55949  22062286.7124   22062292.1884
  21737154.039     6613018.55049   5163871.53849  21737153.6974   21737158.1954
  23368353.422   -13267566.75449 -10320419.58449  23368354.8444   23368359.2784
  20739052.311   -14418746.05349 -11217854.76549  20739053.8544   20739058.4394
 96  2 12  2  3  0.0000000  0  7  2  9 12 24  7  5  4
  23320937.593     9267414.81649   7217950.21149  23320938.2744   23320942.9444
  21210190.930   -11833375.58949  -9199731.02849  21210192.3404   21210196.6614
  22490923.986     7959358.612 9   6202311.541 9  22490925.812    22490932.502
  22044726.805   -13329828.36349 -10362070.71149  22044729.0964   22044734.7094
  21747830.720     6669132.86649   5207596.98249  21747831.6554   21747836.2774
  23351289.728   -13357233.74049 -10390289.94049  23351292.1264   23351295.8844
  20734365.414   -14443372.93749 -11237044.52749  20734367.5504   20734371.9744
 96  2 12  2  3 30.0000000  0  7  2  9 12 24  7  5  4
  23334562.078     9339010.27249   7273738.86349  23334562.1994   23334567.3854
  21207645.339   -11846747.88749  -9210151.00349  21207647.6754   21207651.9684
  22505807.637     8037576.661 9   6263260.676 9  22505810.339    22505816.751
  22027229.826   -13421763.86349 -10433708.72549  22027233.6044   22027239.5964
  21758525.408     6725343.70849   5251397.64149  21758528.3604   21758532.8484
  23334237.886   -13446852.59749 -10460122.79449  23334237.6744   23334242.6664
  20729792.075   -14467405.59049 -11255771.25249  20729794.1484   20729798.6144
 96  2 12  2  4  0.0000000  0  7  2  9 12 24  7  5  4
  23348228.035     9410826.33449   7329699.42549  23348228.1814   23348233.6064
  21205212.375   -11859539.55749  -9220118.53449  21205213.6324   21205217.8324
  22520753.186     8116112.497 9   6324457.423 9  22520755.227    22520761.722
  22009799.992   -13513368.43949 -10505088.87549  22009802.0654   22009807.8024
  21769238.816     6781641.91749   5295266.38249  21769241.6194   21769246.1754
  23317190.949   -13536422.98449 -10529917.86849  23317193.8154   23317198.6454
  20725331.105   -14490848.57949 -11274038.49949  20725333.2424   20725337.5494
 96  2 12  2  4 30.0000000  0  7  2  9 12 24  7  5  4
  23361937.538     9482877.85049   7385843.46749  23361939.7494   23361944.4254
  21202887.690   -11871745.29049  -9229629.49549  21202890.8464   21202894.9074
  22535760.349     8194972.121 9   6385906.467 9  22535761.653    22535768.270
  21992434.472   -13604626.90649 -10576199.34849  21992436.4794   21992442.0144
  21779974.109     6838045.62449   5339217.32849  21779974.8254   21779979.5364
  23300154.992   -13625944.18149 -10599674.62449  23300157.3174   23300162.4104
  20720984.164   -14513695.21049 -11291841.05049  20720985.6144   20720989.6404
 96  2 12  2  5  0.0000000  0  7  2  9 12 24  7  5  4
  23375698.767     9555189.31749   7442190.07549  23375700.4944   23375704.6714
  21200681.996   -11883350.11049  -9238672.20649  21200682.4794   21200686.7964
  22550831.479     8274171.979 9   6447620.634 9  22550832.901    22550839.582
  21975141.599   -13695499.96049 -10647009.48149  21975143.8814   21975149.5174
  21790734.184     6894591.43149   5383278.99949  21790735.2264   21790739.7194
  23283133.099   -13715409.79349 -10669388.06149  23283133.3534   23283138.5814
  20716752.384   -14535931.89849 -11309168.32349  20716754.1564   20716758.3094
 96  2 12  2  5 30.0000000  0  7  2  9 12 24  7  5  4
  23389509.337     9627764.44849   7498742.14149  23389509.3584   23389515.9244
  21198581.907   -11894377.94649  -9247265.32749  21198584.0864   21198588.4684
  22565964.888     8353703.650 9   6509593.347 9  22565967.113    22565974.025
  21957922.038   -13785992.88649 -10717523.41749  21957923.2924   21957928.6254
  21801523.423     6951286.56149   5427457.02649  21801523.9504   21801528.2484
  23266121.206   -13804819.25149 -10739057.73649  23266118.8404   23266124.3084
  20712632.646   -14557579.44549 -11326036.52549  20712634.5904   20712639.0404
 96  2 12  2  6  0.0000000  0  7  2  9 12 24  7  5  4
  23403369.309     9700603.50549   7555499.84649  23403371.0124   23403376.1544
  21196589.243   -11904853.86749  -9255428.38049  21196590.6234   21196594.6724
  22581160.353     8433558.482 9   6571817.870 9  22581163.180    22581169.827
  21940771.843   -13876111.57549 -10787745.74249  21940774.5044   21940780.0484
  21812338.625     7008131.36849   5471751.68549  21812340.7444   21812345.8914
  23249111.702   -13894177.55549 -10808687.56849  23249114.8484   23249120.3254
  20708624.776   -14578640.27349 -11342447.54549  20708626.9704   20708631.3094
 96  2 12  2  6 30.0000000  0  7  2  9 12 24  7  5  4
  23417281.395     9773697.60049   7612456.25749  23417281.0984   23417285.3464
  21194699.855   -11914779.95049  -9263162.99249  21194701.6674   21194706.0794
  22596416.448     8513729.485 9   6634288.780 9  22596419.008    22596425.852
  21923695.487   -13965855.91649 -10857676.37549  21923696.8514   21923702.3914
  21823182.631     7065117.46149   5516156.43449  21823185.1214   21823189.8854
  23232119.418   -13983480.45049 -10878274.20949  23232120.9214   23232125.3674
  20704728.684   -14599114.14749 -11358401.19849  20704730.7414   20704735.0874
 96  2 12  2  7  0.0000000  0  7  2  9 12 24  7  5  4
  23431235.938     9847044.79849   7669609.91249  23431237.5074   23431244.1484
  21192918.832   -11924146.62749  -9270461.69749  21192919.1814   21192923.7014
  22611733.741     8594223.274 9   6697011.184 9  22611736.454    22611743.611
  21906685.495   -14055238.16249 -10927324.85449  21906687.9254   21906693.0434
  21834055.605     7122249.93249   5560675.24749  21834057.0554   21834061.5524
  23215139.324   -14072713.66349 -10947806.55849  23215140.5954   23215145.0334
  20700947.152   -14618984.17549 -11373884.32249  20700949.6274   20700953.8624
 96  2 12  2  7 30.0000000  0  7  2  9 12 24  7  5  4
  23445235.996     9920604.44849   7726929.09549  23445234.6884   23445241.3074
  21191237.530   -11932975.41649  -9277341.27249  21191238.9934   21191243.3884
  22627108.085     8675018.981 9   6759968.857 9  22627111.594    22627118.608
  21889738.589   -14144295.42549 -10996720.08049  21889740.2074   21889746.1144
  21844949.219     7179492.34049   5605279.72649  21844950.1264   21844954.3824
  23198169.516   -14161893.43949 -11017297.28149  23198169.7684   23198174.7314
  20697277.212   -14638273.56249 -11388914.99249  20697279.1904   20697283.3134
 96  2 12  2  8  0.0000000  0  7  2  9 12 24  7  5  4
  23459273.712     9994389.01149   7784423.52049  23459276.8044   23459281.6504
  21189668.033   -11941231.41849  -9283774.52049  21189668.2364   21189672.5604
  22642546.111     8756139.920 9   6823179.966 9  22642548.412    22642555.204
  21872858.845   -14233003.80749 -11065843.47749  21872860.2904   21872865.4984
  21855864.180     7236855.07049   5649977.95349  21855865.5804   21855870.2454
  23181211.855   -14251003.83249 -11086733.92549  23181212.4924   23181217.2644
  20693722.818   -14656952.12149 -11403469.70049  20693724.9624   20693729.1044
 96  2 12  2  8 30.0000000  0  7  2  9 12 24  7  5  4
  23473356.235    10068384.29849   7842082.14849  23473357.5154   23473362.6404
  21188207.730   -11948905.17149  -9289754.07049  21188207.9904   21188212.5084
  22658042.915     8837578.466 9   6886638.546 9  22658045.861    22658052.283
  21856040.413   -14321378.71649 -11134707.01249  21856042.4784   21856048.1064
  21866799.558     7294320.00249   5694755.82649  21866800.6974   21866805.6894
  23164266.507   -14340046.17149 -11156117.54449  23164268.6234   23164273.4854
  20690282.241   -14675033.47949 -11417559.05549  20690283.8654   20690288.0064
 96  2 12  2  9  0.0000000  0  7  2  9 12 24  7  5  4
  23487478.917    10142589.23649   7899904.14849  23487477.9054   23487483.5804
  21186854.690   -11955998.69949  -9295281.49649  21186858.1904   21186862.5234
  22673600.155     8919330.556 9   6950341.463 9  22673602.508    22673609.331
  21839288.935   -14409414.85049 -11203306.57649  21839290.0504   21839295.8164
  21877753.049     7351885.87349   5739612.35749  21877755.2484   21877759.6404
  23147332.849   -14429037.69149 -11225461.55149  23147334.6234   23147339.7804
  20686952.166   -14692530.47849 -11431193.06749  20686954.5174   20686958.5844
 96  2 12  2  9 30.0000000  0  7  2  9 12 24  7  5  4
  23501639.082    10217013.85749   7957897.33949  23501641.2004   23501646.0184
  21185620.071   -11962500.71649  -9300347.99749  21185620.7354   21185625.4004
  22689217.704     9001402.680 9   7014293.751 9  22689220.349    22689227.278
  21822604.528   -14497089.00949 -11271624.07349  21822606.8404   21822611.6974
  21888730.520     7409560.67049   5784553.76649  21888730.2994   21888734.8394
  23130410.516   -14517970.11549 -11294759.52849  23130411.2494   23130415.9444
  20683733.607   -14709446.11349 -11444374.06549  20683735.5274   20683739.4434
 96  2 12  2 10  0.0000000  0  7  2  9 12 24  7  5  4
  23515852.547    10291701.94749   8016095.82149  23515853.7334   23515858.9344
  21184499.201   -11968382.41849  -9304931.14549  21184501.4234   21184505.9754
  22704899.587     9083812.054 9   7078508.825 9  22704902.459    22704909.225
  21805994.306   -14584378.00349 -11339641.44349  21805995.2144   21806001.1044
  21899732.504     7467374.64649   5829603.62249  21899732.3914   21899736.6994
  23113501.885   -14606815.82949 -11363989.92749  23113503.7014   23113508.5654
  20680630.872   -14725752.09649 -11457080.01249  20680632.5504   20680636.4634
 96  2 12  2 10 30.0000000  0  7  2  9 12 24  7  5  4
  23530108.397    10366620.00049   8074473.51049  23530110.6654   23530114.7084
  21183492.955   -11973685.55949  -9309063.46149  21183492.2954   21183496.9514
  22720638.292     9166514.810 9   7142952.516 9  22720640.203    22720647.454
  21789449.291   -14671319.40949 -11407387.96349  21789451.0274   21789456.3864
  21910753.178     7525292.55949   5874734.47449  21910753.2434   21910758.2054
  23096606.571   -14695610.00849 -11433180.17049  23096607.7634   23096612.2004
  20677636.338   -14741488.17149 -11469341.87449  20677637.6374   20677642.1324
 96  2 12  2 11  0.0000000  0  7  2  9 12 24  7  5  4
  23544414.468    10441801.11049   8133056.17449  23544415.8734   23544421.7424
  21182590.916   -11978409.09449  -9312744.13849  21182593.4944   21182597.8494
  22736435.654     9249530.860 9   7207640.320 9  22736437.688    22736444.669
  21772977.387   -14757883.54249 -11474840.49949  21772978.8484   21772984.0374
  21921800.148     7583344.44049   5919969.70249  21921800.1744   21921805.0414
  23079719.078   -14784336.77549 -11502317.86649  23079723.0084   23079727.9624
  20674754.524   -14756629.87449 -11481140.58849  20674756.6974   20674760.8844
 96  2 12  2 11 30.0000000  0  7  2  9 12 24  7  5  4
  23558772.717    10517251.79749   8191848.90649  23558774.9734   23558779.0224
  21181802.031   -11982557.89549  -9315976.96949  21181803.8814   21181808.1374
  22752292.738     9332855.852 9   7272568.870 9  22752293.882    22752301.189
  21756574.658   -14844076.68149 -11542003.95349  21756576.6384   21756581.8804
  21932871.336     7641523.83549   5965304.29849  21932871.4794   21932876.0244
  23062853.587   -14872982.12349 -11571392.14849  23062854.4224   23062858.9854
  20671985.893   -14771176.66649 -11492475.73549  20671988.4714   20671992.6554
 96  2 12  2 12  0.0000000  0  7  2  9 12 24  7  5  4
  23573178.533    10592954.51549   8250838.02049  23573179.8514   23573185.9364
  21181117.040   -11986153.85549  -9318779.02249  21181119.9634   21181124.3844
  22768204.418     9416474.789 9   7337726.459 9  22768205.805    22768213.393
  21740244.512   -14929898.77749 -11608878.28849  21740245.3314   21740250.5414
  21943961.223     7699814.14949   6010725.32149  21943964.1684   21943968.5564
  23045997.159   -14961557.34349 -11640411.75849  23045998.8424   23046004.0634
  20669331.952   -14785124.84149 -11503344.43349  20669334.1724   20669338.3864
 96  2 12  2 12 30.0000000  0  7  2  9 12 24  7  5  4
  23587634.031    10668911.78449   8310025.51449  23587633.6994   23587639.9224
  21180540.145   -11989194.39249  -9321148.26949  21180541.3184   21180545.5154
  22784174.726     9500404.194 9   7403125.974 9  22784177.388    22784183.814
  21723988.390   -15015318.76549 -11675439.28349  21723990.2204   21723995.5474
  21955079.172     7758236.26949   6056249.05849  21955081.1004   21955085.8214
  23029155.738   -15050058.36749 -11709373.57649  23029157.4204   23029163.0154
  20666794.803   -14798459.53949 -11513735.09249  20666796.6874   20666800.6004
 96  2 12  2 13  0.0000000  0  7  2  9 12 24  7  5  4
  23602128.442    10745088.74649   8369384.17349  23602130.7814   23602135.3624
  21180061.452   -11991705.16349  -9323104.71549  21180063.2424   21180067.6654
  22800202.051     9584625.551 9   7468752.991 9  22800204.087    22800210.667
  21707807.844   -15100351.15249 -11741698.26749  21707808.8194   21707814.5384
  21966219.777     7816778.11149   6101866.07649  21966221.7434   21966226.1824
  23012324.230   -15138506.76249 -11778294.37349  23012326.2654   23012331.3124
  20664369.113   -14811204.27749 -11523666.04549  20664371.2914   20664375.4514
 96  2 12  2 13 30.0000000  0  7  2  9 12 24  7  5  4
  23616669.663    10821495.52549   8428921.91049  23616669.7194   23616674.9224
  21179693.606   -11993640.63349  -9324612.87349  21179695.0284   21179699.5634
  22816289.424     9669166.415 9   7534628.975 9  22816291.433    22816298.548
  21691706.035   -15184959.87049 -11807627.10549  21691708.4654   21691714.0914
  21977387.338     7875466.28649   6147597.12849  21977389.4044   21977393.7834
  22995512.270   -15226864.41849 -11847144.47249  22995512.5424   22995517.4574
  20662061.752   -14823330.27049 -11533114.85949  20662063.7584   20662067.9474
 96  2 12  2 14  0.0000000  0  7  2  9 12 24  7  5  4
  23631244.215    10898087.89749   8488604.25449  23631244.6344   23631250.6644
  21179427.266   -11995036.06749  -9325700.22149  21179429.5794   21179434.0444
  22832429.552     9753987.884 9   7600723.605 9  22832432.662    22832439.879
  21675678.325   -15269187.19049 -11873258.74649  21675680.6294   21675686.0644
  21988576.409     7934264.24949   6193413.72649  21988578.3494   21988583.0484
  22978705.735   -15315178.21049 -11915960.37949  22978706.6384   22978711.8924
  20659864.382   -14834878.75649 -11542113.66749  20659866.2824   20659870.2654
 96  2 12  2 14 30.0000000  0  7  2  9 12 24  7  5  4
  23645861.922    10974907.20449   8548463.42549  23645863.8244   23645868.9584
  21179276.830   -11995836.37249  -9326323.84049  21179277.2794   21179281.7934
  22848632.407     9839125.136 9   7667064.315 9  22848633.856    22848640.884
  21659728.073   -15353008.05049 -11938573.67649  21659729.9294   21659735.6254
  21999792.420     7993205.21149   6239341.75449  21999794.7034   21999798.4804
  22961915.207   -15403416.74049 -11984717.64749  22961915.2674   22961921.5134
  20657778.512   -14845838.71049 -11550653.88349  20657780.6794   20657784.7334
 96  2 12  2 15  0.0000000  0  7  2  9 12 24  7  5  4
  23660521.422    11051943.46349   8608491.65249  23660523.2594   23660528.5464
  21179235.581   -11996044.65149  -9326486.13949  21179237.6694   21179241.6654
  22864888.994     9924552.557 9   7733631.107 9  22864890.427    22864897.003
  21643850.055   -15436448.78749 -12003592.41449  21643851.9184   21643857.1574
  22011027.926     8052244.51449   6285346.41249  22011029.1704   22011033.6514
  22945135.999   -15491587.15749 -12053421.83849  22945137.6594   22945142.6164
  20655801.141   -14856230.93849 -11558751.71449  20655803.1334   20655807.1774
 96  2 12  2 15 30.0000000  0  7  2  9 12 24  7  5  4
  23675226.205    11129218.43849   8668705.89749  23675227.8474   23675232.6314
  21179312.504   -11995644.41249  -9326174.26049  21179313.8624   21179318.2734
  22881199.213    10010271.921 9   7800425.408 9  22881202.017    22881208.800
  21628043.767   -15519510.55549 -12068315.84349  21628045.8114   21628050.8674
  22022278.165     8111365.79749   6331414.95049  22022279.7744   22022284.0054
  22928371.764   -15579684.67149 -12122069.21349  22928372.8764   22928378.1044
  20653934.719   -14866038.66149 -11566394.08049  20653936.6904   20653940.7854
 96  2 12  2 16  0.0000000  0  7  2  9 12 24  7  5  4
  23689979.483    11206748.83849   8729119.15549  23689981.1074   23689987.5304
  21179502.421   -11994641.31149  -9325392.62549  21179504.7124   21179508.7574
  22897569.372    10096291.681 9   7867453.767 9  22897570.879    22897578.140
  21612311.534   -15602185.34949 -12132737.73149  21612312.9274   21612318.4114
  22033545.890     8170576.95049   6377553.51449  22033547.1574   22033551.6814
  22911622.011   -15667705.93849 -12190657.19549  22911622.9944   22911628.0614
  20652181.431   -14875249.56049 -11573571.39449  20652183.7944   20652187.7974
 96  2 12  2 16 30.0000000  0  7  2  9 12 24  7  5  4
  23704784.083    11284543.60249   8789738.44049  23704785.0824   23704790.7554
  21179808.703   -11993037.33649  -9324142.77349  21179809.8704   21179814.1634
  22913995.394    10182622.108 9   7934724.198 9  22913999.100    22914006.180
  21596657.488   -15684442.77349 -12196834.38649  21596660.0654   21596665.7834
  22044832.252     8229894.20549   6423774.75949  22044835.1054   22044839.2684
  22894891.225   -15755621.89649 -12259163.11049  22894893.1254   22894898.0514
  20650547.177   -14883838.44349 -11580264.02049  20650549.4484   20650553.4674
 96  2 12  2 17  0.0000000  0  7  2  9 12 24  7  5  4
  23719630.278    11362564.65749   8850534.04749  23719631.2194   23719638.2534
  21180216.417   -11990887.55949  -9322467.62249  21180218.9094   21180223.1554
  22930478.644    10269228.464 9   8002209.661 9  22930479.362    22930486.807
  21581080.840   -15766301.73449 -12260620.56049  21581082.3614   21581088.1944
  22056134.946     8289287.05249   6470054.89549  22056136.9414   22056141.2414
  22878176.150   -15843456.26049 -12327605.44349  22878179.0104   22878183.6974
  20649030.496   -14891813.57049 -11586478.39549  20649031.9074   20649035.6634
 96  2 12  2 17 30.0000000  0  7  2  9 12 24  7  5  4
  23734521.946    11440816.76849   8911509.69749  23734522.8644   23734528.2214
  21180729.405   -11988199.00849  -9320372.64149  21180730.6134   21180734.8654
  22947014.092    10356128.480 9   8069923.923 9  22947016.353    22947022.910
  21565584.631   -15847731.63249 -12324072.40749  21565587.1254   21565592.5034
  22067458.914     8348793.30649   6516423.41149  22067460.6834   22067465.3064
  22861482.779   -15931190.47049 -12395969.73449  22861483.6354   22861488.4404
  20647630.809   -14899165.12849 -11592206.87349  20647632.8864   20647636.8694
 96  2 12  2 18  0.0000000  0  7  2  9 12 24  7  5  4
  23749455.571    11519294.65149   8972661.26549  23749456.8964   23749462.5504
  21181341.543   -11984980.34549  -9317864.59649  21181343.0574   21181347.2994
  22963606.572    10443314.356 9   8137860.947 9  22963606.885    22963614.722
  21550173.366   -15928719.76349 -12387180.01249  21550175.7404   21550181.2974
  22078805.495     8408422.56649   6562887.77549  22078807.5344   22078812.4384
  22844806.327   -16018819.70349 -12464252.21349  22844808.2814   22844813.3664
  20646345.249   -14905918.90249 -11597469.54549  20646347.5194   20646351.5774
 96  2 12  2 18 30.0000000  0  7  2  9 12 24  7  5  4
  23764432.796    11597988.84049   9033981.36749  23764431.3104   23764437.6924
  21182057.404   -11981222.51849  -9314936.42049  21182058.1594   21182062.4514
  22980247.170    10530771.400 9   8206009.276 9  22980250.104    22980256.423
  21534844.415   -16009275.82549 -12449950.95349  21534846.0004   21534851.8324
  22090173.302     8468154.36049   6609432.01949  22090174.3884   22090179.0354
  22828149.137   -16106357.58949 -12532463.52749  22828150.0414   22828155.3844
  20645170.083   -14912099.10749 -11602285.27549  20645171.5754   20645175.4284
 96  2 12  2 19  0.0000000  0  7  2  9 12 24  7  5  4
  23779450.449    11676921.58949   9095487.38649  23779452.0424   23779457.7224
  21182880.994   -11976888.64749  -9311559.38049  21182882.9974   21182887.2984
  22996947.739    10618521.196 9   8274385.745 9  22996948.079    22996954.405
  21519598.461   -16089393.41849 -12512380.21249  21519600.6204   21519605.7724
  22101560.698     8527996.53349   6656062.29149  22101561.9104   22101566.6864
  22811507.617   -16193809.83249 -12600608.10349  22811508.3164   22811513.6874
  20644104.628   -14917698.76149 -11606648.63349  20644106.2634   20644110.0204
 96  2 12  2 19 30.0000000  0  7  2  9 12 24  7  5  4
  23794515.429    11756079.34849   9157168.71049  23794514.9734   23794522.7014
  21183815.784   -11971973.55049  -9307729.43249  21183818.1064   21183822.3804
  23013697.805    10706545.069 9   8342975.765 9  23013698.389    23013704.602
  21504427.268   -16169116.23049 -12574501.85449  21504429.4644   21504435.1934
  22112967.481     8587935.63249   6702768.08249  22112967.9294   22112973.0234
  22794874.747   -16281206.81449 -12668709.61849  22794877.5034   22794882.5814
  20643141.274   -14922758.70949 -11610591.44149  20643143.0554   20643147.0284
 96  2 12  2 20  0.0000000  0  7  2  9 12 24  7  5  4
  23809623.306    11835473.98149   9219034.65549  23809624.3814   23809630.1724
  21184868.786   -11966444.04149  -9303420.72349  21184870.3664   21184874.6094
  23030500.347    10794853.358 9   8411787.400 9  23030502.613    23030509.921
  21489330.417   -16248454.28149 -12636323.68549  21489332.1444   21489337.3004
  22124391.959     8647972.92849   6749550.39449  22124392.6044   22124397.3474
  22778256.328   -16368540.80649 -12736762.06849  22778258.3864   22778263.1324
  20642285.154   -14927258.27249 -11614097.58749  20642286.8934   20642290.8204
 96  2 12  2 20 30.0000000  0  7  2  9 12 24  7  5  4
  23824774.348    11915096.89449   9281078.48249  23824775.6034   23824781.4574
  21186038.009   -11960303.98249  -9298636.25849  21186038.5234   21186043.1074
  23047359.920    10883450.514 9   8480824.129 9  23047362.170    23047369.086
  21474303.514   -16327418.34049 -12697854.08749  21474305.6634   21474311.0234
  22135834.400     8708104.84349   6796406.43849  22135835.4044   22135839.9064
  22761647.908   -16455813.57749 -12804766.79549  22761651.0954   22761655.3584
  20641542.279   -14931164.33049 -11617141.25949  20641543.5784   20641547.4974
 96  2 12  2 21  0.0000000  0  7  2  9 12 24  7  5  4
  23839967.723    11994938.08349   9343292.37849  23839968.9274   23839974.8274
  21187315.278   -11953587.93449  -9293402.97449  21187316.7824   21187321.1324
  23064271.466    10972321.649 9   8550074.337 9  23064273.947    23064281.492
  21459346.866   -16406013.64849 -12759097.15149  21459349.5204   21459354.6464
  22147293.312     8768325.72649   6843331.80449  22147294.8614   22147299.2964
  22745053.351   -16543019.47549 -12872719.42649  22745056.1354   22745061.2774
  20640912.399   -14934471.82749 -11619718.52249  20640914.1414   20640918.1084
 96  2 12  2 21 30.0000000  0  7  2  9 12 24  7  5  4
  23855203.237    12075006.62949   9405683.42449  23855205.8694   23855210.9264
  21188703.862   -11946294.49749  -9287719.77849  21188704.7244   21188709.0424
  23081237.414    11061470.939 9   8619541.288 9  23081238.686    23081245.808
  21444466.947   -16484214.42349 -12820032.79949  21444468.2794   21444473.7524
  22158774.364     8828650.80449   6890338.36149  22158774.6214   22158778.3294
  22728481.341   -16630114.68349 -12940585.79949  22728482.4124   22728487.2584
  20640399.439   -14937165.23949 -11621817.27549  20640401.4154   20640405.5854
 96  2 12  2 22  0.0000000  0  7  2  9 12 24  7  5  4
  23870484.685    12155307.54949   9468255.57249  23870486.0744   23870492.5754
  21190198.491   -11938436.64249  -9281596.78149  21190200.1464   21190204.1964
  23098254.812    11150902.719 9   8689228.370 9  23098256.719    23098264.133
  21429667.619   -16561985.69949 -12880633.76049  21429669.0764   21429674.1714
  22170269.440     8889070.13749   6937418.36149  22170272.2294   22170276.7774
  22711934.166   -16717075.86349 -13008347.73449  22711934.6124   22711939.4434
  20640008.100   -14939222.30149 -11623420.17449  20640010.3124   20640014.2634
 96  2 12  2 22 30.0000000  0  7  2  9 12 24  7  5  4
  23885808.734    12235830.35249   9531000.61149  23885809.0294   23885815.1404
  21191794.306   -11930046.63849  -9275059.11549  21191796.6944   21191800.8014
  23115323.580    11240594.804 9   8759118.292 9  23115324.823    23115332.007
  21414949.076   -16639325.64549 -12940898.62849  21414951.2544   21414956.9754
  22181782.317     8949570.53449   6984561.52949  22181784.6744   22181789.3084
  22695404.848   -16803923.13149 -13076020.91649  22695407.0594   22695412.5824
  20639732.868   -14940667.61149 -11624546.38249  20639735.1494   20639739.0604
 96  2 12  2 23  0.0000000  0  7  2  9 12 24  7  5  4
  23901178.615    12316598.33549   9593936.67749  23901178.6874   23901185.7364
  21193498.275   -11921096.04649  -9268084.62749  21193499.5904   21193504.0034
  23132443.364    11330563.019 9   8829223.360 9  23132445.166    23132452.532
  21400318.290   -16716213.37449 -13000811.10949  21400320.1614   21400325.9714
  22193315.967     9010185.32649   7031793.84449  22193319.5824   22193323.9784
  22678904.736   -16890636.78949 -13143589.98449  22678906.7304   22678911.9134
  20639573.356   -14941507.01749 -11625200.45249  20639575.3824   20639579.2014
 96  2 12  2 23 30.0000000  0  7  2  9 12 24  7  5  4
  23916588.424    12397590.00949   9657047.07949  23916591.1334   23916596.6484
  21195306.673   -11911592.37749  -9260679.17049  21195308.3744   21195312.5154
  23149611.681    11420788.145 9   8899528.633 9  23149614.115    23149621.810
  21385769.040   -16792673.07249 -13060390.07149  21385770.5584   21385775.7864
  22204869.778     9070894.23649   7079099.49349  22204871.5914   22204876.3934
  22662423.667   -16977252.23749 -13211082.51949  22662424.3304   22662429.4494
  20639523.546   -14941769.10949 -11625404.66849  20639525.6084   20639529.6344
 96  2 12  2 24  0.0000000  0  7  2  9 12 24  7  5  4
  23932045.792    12478819.70749   9720342.91949  23932047.6294   23932054.7994
  21197223.683   -11901519.81849  -9252830.42549  21197225.2844   21197229.2844
  23166831.853    11511280.756 9   8970042.313 9  23166834.381    23166841.749
  21371301.721   -16868696.58849 -13119629.15449  21371303.5074   21371308.7364
  22216443.652     9131715.76249   7126492.88849  22216445.9264   22216450.4794
  22645958.562   -17063774.17649 -13278502.18949  22645959.4684   22645964.5634
  20639585.656   -14941444.45149 -11625151.68149  20639587.2554   20639591.2484
 96  2 12  2 24 30.0000000  0  7  2  9 12 24  7  5  4
  23947549.357    12560290.32949   9783826.48049  23947551.4524   23947558.6754
  21199252.865   -11890856.09449  -9244521.02749  21199254.3954   21199258.5924
  23184105.443    11602053.430 9   9040774.273 9  23184107.737    23184115.567
  21356919.643   -16944275.64749 -13178521.90049  21356921.6384   21356926.8734
  22228043.620     9192672.10249   7173991.33649  22228045.3494   22228050.0354
  22629512.481   -17150189.47049 -13345838.76149  22629515.4544   22629520.1614
  20639759.611   -14940527.36149 -11624437.05749  20639761.7494   20639765.6494
 96  2 12  2 25  0.0000000  0  7  2  9 12 24  7  5  4
  23963097.409    12641992.28249   9847490.28849  23963097.6654   23963105.3434
  21201394.122   -11879600.69949  -9235750.58949  21201396.1114   21201400.5694
  23201430.541    11693100.701 9   9111720.172 9  23201434.320    23201440.009
  21342620.845   -17019414.53049 -13237071.66349  21342622.7844   21342628.0694
  22239665.913     9253745.21749   7221580.78149  22239667.3834   22239671.7314
  22613089.670   -17236497.76849 -13413091.95949  22613091.3764   22613096.4634
  20640045.624   -14939025.19449 -11623266.52749  20640047.7144   20640051.7694
 96  2 12  2 25 30.0000000  0  7  2  9 12 24  7  5  4
  23978683.959    12723891.65549   9911307.91849  23978682.7974   23978690.5774
  21203641.472   -11867791.60649  -9226548.69549  21203643.1904   21203647.5774
  23218805.493    11784395.351 9   9182858.838 9  23218807.294    23218814.517
  21328404.027   -17094125.74249 -13295288.17049  21328406.0484   21328411.0594
  22251302.387     9314896.85949   7269231.40449  22251304.2284   22251308.8334
  22596685.346   -17322718.47049 -13480276.90549  22596684.4784   22596689.0054
  20640439.771   -14936955.98149 -11621654.14849  20640441.2914   20640445.4924
 96  2 12  2 26  0.0000000  0  7  2  9 12 24  7  5  4
  23994305.422    12805996.64249   9975285.78149  23994308.3324   23994313.1194
  21205996.872   -11855413.90349  -9216903.73449  21205998.7354   21206003.1324
  23236228.943    11875958.703 9   9254206.870 9  23236231.461    23236238.045
  21314274.739   -17168375.48649 -13353145.08949  21314276.6404   21314282.0814
  22262959.285     9376150.12049   7316961.22349  22262960.1194   22262964.5894
  22580299.648   -17408820.14949 -13547369.10649  22580299.8044   22580304.6694
  20640944.249   -14934303.19449 -11619587.03349  20640946.1894   20640950.1064
 96  2 12  2 26 30.0000000  0  7  2  9 12 24  7  5  4
  24009970.563    12888296.71849  10039415.55549  24009969.1764   24009975.8274
  21208461.442   -11842468.92449  -9206816.73549  21208462.1574   21208466.4564
  23253705.422    11967791.309 9   9325764.727 9  23253706.292    23253712.861
  21300233.869   -17242159.39649 -13410639.02449  21300236.0944   21300241.5164
  22274631.120     9437493.25249   7364761.06149  22274633.2514   22274638.1094
  22563935.594   -17494805.64849 -13614370.77649  22563937.0204   22563941.8714
  20641560.711   -14931062.98749 -11617062.19349  20641562.7704   20641566.8134
 96  2 12  2 27  0.0000000  0  7  2  9 12 24  7  5  4
  24025667.597    12970795.33949  10103700.21849  24025669.4034   24025673.5104
  21211028.635   -11828976.98549  -9196303.53749  21211029.5754   21211033.6744
  23271227.921    12059877.904 9   9397520.495 9  23271228.798    23271236.523
  21286280.006   -17315489.18549 -13467779.11349  21286281.9204   21286287.1624
  22286318.930     9498916.71449   7412623.49849  22286321.7114   22286326.2554
  22547592.369   -17580680.39849 -13681286.12949  22547595.5034   22547601.0124
  20642286.198   -14927249.50449 -11614090.63949  20642288.5894   20642292.4854
 96  2 12  2 27 30.0000000  0  7  2  9 12 24  7  5  4
  24041405.509    13053497.55649  10168143.47249  24041407.2064   24041412.0474
  21213700.684   -11814927.62849  -9185355.98949  21213703.0454   21213707.4174
  23288799.275    12152223.178 9   9469477.811 9  23288801.751    23288809.211
  21272413.799   -17388357.95849 -13524559.95549  21272414.9324   21272420.7054
  22298025.355     9560437.75449   7460561.98149  22298028.9724   22298033.3944
  22531278.724   -17666428.36749 -13748102.72249  22531278.7384   22531283.2894
  20643122.864   -14922854.88449 -11610666.25149  20643124.9104   20643128.8144
 96  2 12  2 28  0.0000000  0  7  2  9 12 24  7  5  4
  24057184.005    13136413.43149  10232753.28049  24057184.1024   24057188.7204
  21216484.591   -11800307.91749  -9173964.00649  21216485.0094   21216489.3084
  23306417.342    12244819.797 9   9541630.989 9  23306422.665    23306429.766
  21258632.140   -17460778.00149 -13580991.14349  21258634.2084   21258639.8094
  22309752.497     9622048.02549   7508569.98849  22309753.5594   22309757.5074
  22514983.303   -17752051.38449 -13814821.93549  22514985.0944   22514989.8444
  20644067.473   -14917886.79349 -11606795.00449  20644070.2354   20644074.2784
 96  2 12  2 28 30.0000000  0  7  2  9 12 24  7  5  4
  24073002.649    13219541.99449  10297528.80449  24073003.4854   24073008.4974
  21219370.883   -11785136.14549  -9162141.84849  21219371.9244   21219376.5314
  23324083.826    12337641.626 9   9613959.685 9  23324085.104    23324095.090
  21244930.251   -17532785.34149 -13637100.74249  21244931.8534   21244937.0224
  22321488.670     9683726.29649   7556630.98449  22321490.0824   22321494.8384
  22498712.159   -17837565.49149 -13881456.29049  22498712.0584   22498716.5704
  20645120.406   -14912357.64649 -11602486.57049  20645122.5224   20645126.2674
 96  2 12  2 29  0.0000000  0  7  2  9 12 24  7  5  4
  24088866.910    13302911.91649  10362492.34449  24088869.0134   24088873.6934
  21222362.912   -11769412.64049  -9149889.76749  21222363.8764   21222368.6174
  23341791.687    12430697.153 9   9686470.437 9  23341794.267    23341799.921
  21231306.867   -17604372.58449 -13692882.99049  21231309.1394   21231314.2564
  22333244.475     9745500.27049   7604766.55449  22333244.7024   22333248.9734
  22482463.239   -17922949.34249 -13947989.13649  22482464.3114   22482468.8424
  20646279.827   -14906264.77349 -11597738.86849  20646281.9154   20646285.8384
 96  2 12  2 29 30.0000000  0  7  2  9 12 24  7  5  4
  24104780.753    13386534.17849  10427652.53449  24104781.7694   24104785.5514
  21225463.748   -11753111.76949  -9137187.79549  21225466.1034   21225470.4224
  23359547.842    12524006.873 9   9759179.305 9  23359549.998    23359557.780
  21217769.431   -17675515.44249 -13748318.97149  21217771.0114   21217776.2504
  22345019.367     9807385.65449   7652988.93949  22345020.9714   22345025.7484
  22466241.708   -18008192.48749 -14014412.35749  22466243.0074   22466247.2464
  20647551.800   -14899579.98449 -11592529.93449  20647554.0444   20647557.8254
 96  2 12  2 30  0.0000000  0  7  2  9 12 24  7  5  4
  24120738.404    13470396.85349  10493000.04549  24120739.9914   24120744.0284
  21228671.568   -11736254.81049  -9124052.50249  21228673.8604   21228678.1204
  23377350.043    12617555.621 9   9832074.442 9  23377352.109    23377358.489
  21204311.215   -17746233.42249 -13803423.87149  21204313.8994   21204319.1704
  22356813.141     9869359.00349   7701279.86349  22356814.6864   22356819.4304
  22450042.534   -18093321.10349 -14080746.32849  22450043.6834   22450048.4134
  20648934.772   -14892308.86149 -11586864.11749  20648937.6934   20648941.3614
 96  2 12  2 30 30.0000000  0  7  2  9 12 24  7  5  4
  24136746.657    13554505.93649  10558539.53849  24136744.1244   24136748.6934
  21231984.639   -11718847.64749  -9110488.48149  21231986.4064   21231990.5494
  23395200.676    12711360.745 9   9905169.338 9  23395202.240    23395210.196
  21190939.571   -17816506.03549 -13858181.73549  21190941.5824   21190946.8874
  22368625.463     9931437.97849   7749653.09449  22368627.6294   22368632.4284
  22433866.641   -18178323.24049 -14146981.72749  22433867.7074   22433872.7374
  20650435.109   -14884427.99649 -11580723.17849  20650437.3004   20650441.2104
 96  2 12  2 31  0.0000000  0  7  2  9 12 24  7  5  4
  24152790.410    13638818.02349                                  24152787.0894
  21235397.374   -11700914.65149  -9096514.72149  21235398.9504   21235403.2154
  23413093.911    12805397.055 9   9978444.349 9  23413097.634    23413103.126
  21177648.683   -17886350.65349 -13912606.09849  21177650.2974   21177655.8994
  22380451.391     9993581.66049   7798076.74649  22380453.4154   22380458.0194
  22417710.052   -18263215.84849 -14213131.80449  22417713.4904   22417718.5844
  20652045.156   -14875967.91849 -11574130.90549  20652046.9794   20652050.9874
 96  2 12  2 31 30.0000000  0  7  2  9 12 24  7  5  4
  24168870.323    13723339.47748                                  24168883.3434
  21238917.962   -11682412.11249  -9082097.16349  21238919.9054   21238924.1904
  23431035.775    12899684.782 9  10051915.287 9  23431040.562    23431046.062
  21164444.139   -17955737.90349 -13966674.07249  21164446.4464   21164451.9914
  22392287.874    10055786.42349   7846547.98649  22392290.4324   22392295.2644
  22401581.731   -18347976.75649 -14279179.24349  22401583.9924   22401589.0684
  20653770.557   -14866901.99749 -11567066.54349  20653772.1574   20653776.0234
 96  2 12  2 32  0.0000000  0  7  2  9 12 24  7  5  4
  24184993.942    13808039.08619
  21242542.916   -11663367.98649  -9067257.58649  21242543.9664   21242548.2754
  23449021.145    12994192.914 9  10125557.958 9  23449025.162    23449031.713
  21151323.391   -18024691.63249 -14020404.23549  21151324.8524   21151330.5004
  22404130.967    10118021.96149   7895043.21549  22404133.4054   22404138.2384
  22385473.859   -18432624.51949 -14345138.52949  22385475.8154   22385480.7394
  20655603.521   -14857265.92249 -11559557.90449  20655605.8514   20655609.7784
 96  2 12  2 32 30.0000000  0  7  2  9 12 24  7  5  4
  24201143.799    13892933.39019
  21246274.020   -11643757.96349  -9051977.05349  21246275.5204   21246280.0634
  23467053.500    13088944.475 9  10199390.347 9  23467055.051    23467061.133
  21138292.063   -18093170.36749 -14073764.26949  21138293.8514   21138299.0104
  22415987.984    10180323.89149   7943590.16949  22415989.3294   22415994.2954
  22369395.379   -18517116.59849 -14410976.49649  22369397.7514   22369402.4594
  20657547.692   -14847053.04749 -11551599.81549  20657549.2844   20657553.3684
 96  2 12  2 33  0.0000000  0  6  9 12 24  7  5  4
  21250115.993   -11623567.91949  -9036244.55249  21250117.7044   21250122.0904
  23485128.895    13183929.576 9  10273404.702 9  23485129.174    23485137.112
  21125350.758   -18161172.49349 -14126752.91349  21125353.5174   21125359.1464
  22427856.666    10242691.09349   7992187.99249  22427857.0894   22427862.0364
  22353349.145   -18601452.66349 -14476692.89949  22353349.2684   22353353.4034
  20659597.722   -14836278.64149 -11543204.16849  20659599.6174   20659603.4264
 96  2 12  2 33 30.0000000  0  6  9 12 24  7  5  4
  21254066.863   -11602806.47049  -9020066.80749  21254068.3994   21254072.7004
  23503246.061    13279136.237 9  10347591.682 9  23503246.440    23503254.246
  21112501.563   -18228700.20249 -14179371.89149  21112503.3864   21112508.8474
  22439738.995    10305134.37949   8040845.09849  22439739.6664   22439744.6724
  22337323.056   -18685657.89949 -14542307.35449  22337325.5244   22337329.9264
  20661753.529   -14824947.47349 -11534374.67649  20661755.9264   20661759.8094
 96  2 12  2 34  0.0000000  0  6  9 12 24  7  5  4
  21258126.328   -11581476.89349  -9003446.35349  21258127.2684   21258131.2484
  23521405.656    13374576.328 9  10421960.532 9  23521408.349    23521416.503
  21099744.022   -18295743.06749 -14231613.06149  21099745.5204   21099750.9964
  22451640.681    10367679.60749   8089581.64649  22451642.3364   22451646.8844
  22321329.614   -18769715.40149 -14607806.69049  22321329.4384   22321334.0134
  20664020.728   -14813038.94949 -11525095.29949  20664022.3094   20664026.1494
 96  2 12  2 34 30.0000000  0  6  9 12 24  7  5  4
  21262290.885   -11559589.91649  -8986391.57049  21262292.1974   21262296.1194
  23539607.730    13470234.962 9  10496499.725 9  23539611.581    23539617.965
  21087073.798   -18362324.22549 -14283494.47849  21087075.6174   21087081.0574
  22463557.097    10430312.65049   8138386.61249  22463560.5204   22463565.3144
  22305354.257   -18853642.22449 -14673204.19749  22305358.8274   22305363.3824
  20666394.993   -14800554.62749 -11515367.24849  20666397.7424   20666401.8054
 96  2 12  2 35  0.0000000  0  6  9 12 24  7  5  4
  21266564.508   -11537134.37149  -8968893.74849  21266565.4364   21266569.5854
  23557855.586    13566117.274 9  10571213.197 9  23557856.917    23557865.337
  21074491.103   -18428443.88249 -14335016.26849  21074493.1464   21074498.7704
  22475493.785    10493032.41849   8187259.15949  22475495.4944   22475500.6024
  22289411.382   -18937440.77749 -14738501.77049  22289412.3804   22289416.9664
  20668884.492   -14787478.60149 -11505178.12749  20668885.9244   20668889.9034
 96  2 12  2 35 30.0000000  0  6  9 12 24  7  5  4
  21270938.408   -11514142.26149  -8950977.82049  21270940.5074   21270944.7334
  23576142.755    13662209.186 9  10646090.020 9  23576143.449    23576148.775
  21061994.666   -18494116.90749 -14386190.03049  21061996.3824   21062001.4654
  22487442.961    10555822.58349   8236186.57349  22487444.2204   22487448.5594
  22273485.917   -19021123.57249 -14803709.12549  22273488.0884   22273492.7794
  20671482.697   -14773822.98649 -11494537.38349  20671484.6464   20671488.3504
 96  2 12  2 36  0.0000000  0  6  9 12 24  7  5  4
  21275420.182   -11490593.92849  -8932628.47149  21275421.5084   21275425.7344
  23594472.136    13758536.884 9  10721150.572 9  23594473.448    23594480.950
  21049587.912   -18559314.67449 -14436993.46449  21049589.4624   21049594.4724
  22499408.976    10618715.11749   8285193.74049  22499412.6934   22499416.4814
  22257588.823   -19104658.08049 -14868800.93549  22257592.3684   22257596.8774
  20674193.764   -14759576.02049 -11483435.84249  20674195.7124   20674199.4784
 96  2 12  2 36 30.0000000  0  6  9 12 24  7  5  4
  21280005.247   -11466507.39549  -8913859.74849  21280004.9224   21280009.0044
  23612842.324    13855086.948 9  10796384.350 9  23612845.085    23612853.656
  21037272.343   -18624032.91249 -14487423.25249  21037273.8394   21037279.1134
  22511400.205    10681711.25949   8334281.65149  22511399.9734   22511404.3734
  22241717.919   -19188065.25149 -14933793.53249  22241720.1704   22241724.7084
  20677010.777   -14744773.39649 -11471901.32549  20677012.6844   20677016.3214
 96  2 12  2 37  0.0000000  0  6  9 12 24  7  5  4
  21284683.393   -11441916.21949  -8894697.79649  21284684.7054   21284688.8004
  23631256.691    13951834.477 9  10871772.008 9  23631256.465    23631264.310
  21025046.504   -18688277.70149 -14537484.10449  21025048.5454   21025053.8204
  22523402.694    10744790.35549   8383434.18149  22523403.2104   22523407.8394
  22225867.985   -19271362.77249 -14998700.68049  22225869.3594   22225873.8474
  20679925.128   -14729458.28449 -11459967.46349  20679926.9004   20679930.6794
 96  2 12  2 37 30.0000000  0  6  9 12 24  7  5  4
  21289465.963   -11416790.64549  -8875119.43449  21289466.0744   21289470.1624
  23649708.826    14048809.796 9  10947337.185 9  23649710.247    23649718.464
  21012919.455   -18752005.57849 -14587142.16749  21012921.6914   21012926.8224
  22535426.864    10807977.67249   8432671.06149  22535427.9744   22535431.8094
  22210046.255   -19354513.32349 -15063493.32249  22210046.2554   22210051.0604
  20682943.813   -14713594.86449 -11447606.34949  20682945.5914   20682949.2784
 96  2 12  2 38  0.0000000  0  7  9 12 20 24  7  5  4
  21294345.307   -11391143.80449  -8855134.88549  21294346.4054   21294350.4904
  23668203.867    14145988.921 9  11023061.116 9  23668204.625    23668211.599
  24582378.920    -5502507.05359  -4270362.44259  24582381.1064   24582388.5174
  21000886.320   -18815236.17149 -14636412.74249  21000889.4484   21000894.3984
  22547465.011    10871237.33849   8481964.31049  22547465.5584   22547470.1694
  22194247.008   -19437525.13349 -15128177.84549  22194249.3764   22194253.6794
  20686063.289   -14697200.44349 -11434831.46949  20686065.3034   20686069.0844
 96  2 12  2 38 30.0000000  0  7  9 12 20 24  7  5  4
  21299328.548   -11364955.94649  -8834728.76649  21299329.8254   21299334.2204
  23686732.994    14243381.786 9  11098951.633 9  23686735.980    23686743.498
  24562666.980    -5606100.60449  -4351084.66149  24562668.7974   24562673.5774
  20988949.956   -18877963.70649 -14685291.31749  20988952.6914   20988957.8124
  22559514.329    10934559.80949   8531306.48849  22559516.0654   22559520.2724
  22178483.233   -19520368.48549 -15192731.08749  22178484.7404   22178489.7644
  20689289.706   -14680247.82449 -11421621.63049  20689291.4444   20689295.3874
 96  2 12  2 39  0.0000000  0  7  9 12 20 24  7  5  4
  21304418.261   -11338210.05349  -8813887.81949  21304419.3264   21304423.3174
  23705307.872    14340989.229 9  11175009.373 9  23705310.673    23705318.045
  24542954.888    -5709697.95249  -4431809.80049  24542954.7634   24542960.5574
  20977105.171   -18940210.26649 -14733795.11549  20977107.4164   20977112.2754
  22571574.087    10997934.74249   8580689.54449  22571575.5384   22571580.6364
  22162755.843   -19603014.52649 -15257130.59049  22162757.8644   22162762.6684
  20692625.482   -14662714.66749 -11407959.42249  20692627.6424   20692631.5684
 96  2 12  2 39 30.0000000  0  7  9 12 20 24  7  5  4
  21309613.176   -11310904.70049  -8792610.92549  21309615.4024   21309619.5174
  23723922.507    14438799.947 9  11251225.485 9  23723924.220    23723930.327
  24523233.299    -5813322.90449  -4512556.45749  24523235.6894   24523241.8454
  20965346.889   -19002001.45149 -14781944.07749  20965348.7264   20965353.8184
  22583642.273    11061350.64349   8630104.53649  22583643.0584   22583648.0524
  22147066.229   -19685472.90849 -15321383.86649  22147066.6494   22147071.3084
  20696073.295   -14644597.85449 -11393842.41749  20696075.1594   20696079.1634
 96  2 12  2 40  0.0000000  0  7  9 12 20 24  7  5  4
  21314917.755   -11283032.18149  -8770892.08649  21314919.3364   21314923.6804
  23742573.817    14536821.693 9  11327606.053 9  23742576.487    23742584.000
  24503510.036    -5916986.80249  -4593333.46349  24503508.7134   24503515.5084
  20953674.266   -19063343.66749 -14829743.19849  20953675.9504   20953680.9554
  22595720.773    11124830.89049   8679569.66849  22595722.7944   22595727.6784
  22131412.411   -19767733.37849 -15385482.92149  22131412.8674   22131417.6094
  20699632.413   -14625891.74449 -11379266.22449  20699634.9624   20699638.9524
 96  2 12  2 40 30.0000000  0  7  9 12 20 24  7  5  4
  21320323.761   -11254622.01149  -8748754.29249  21320325.4614   21320329.6124
  23761263.653    14635029.867 9  11404131.917 9  23761265.073    23761271.213
  24483771.838    -6020696.56049  -4674146.21249  24483773.5654   24483781.4484
  20942081.001   -19124267.58849 -14877216.37049  20942082.5924   20942087.5774
  22607813.568    11188373.14349   8729083.10449  22607814.5454   22607819.4084
  22115786.871   -19849839.57749 -15449461.76649  22115788.4334   22115793.4324
  20703298.578   -14606626.68649 -11364254.48549  20703301.0774   20703304.8784
 96  2 12  2 41  0.0000000  0  7  9 12 20 24  7  5  4
  21325832.837   -11225678.54249  -8726200.95149  21325833.4044   21325837.4084
  23779985.132    14733431.156 9  11480808.245 9  23779990.588    23779996.716
  24464033.214    -6124423.59549  -4754972.41849  24464033.5914   24464040.4594
  20930571.264   -19184746.86749 -14924343.06549  20930573.8264   20930578.6774
  22619919.238    11251990.94849   8778655.41349  22619920.7554   22619925.4584
  22100192.449   -19931797.42249 -15513325.01549  22100192.5174   22100197.3684
  20707072.218   -14586799.14849 -11348804.45449  20707074.0554   20707077.9834
 96  2 12  2 41 30.0000000  0  7  9 12 20 24  7  5  4
  21331444.995   -11196184.62749  -8703218.68349  21331445.9094   21331450.3324
  23798754.207    14832055.586 9  11557658.467 9  23798754.939    23798765.490
  24444300.895    -6228129.19449  -4835781.91249  24444299.9194   24444306.0324
  20919158.556   -19244724.16049 -14971078.60349  20919160.2334   20919165.6944
  22632045.501    11315715.39649   8828310.83649  22632047.1814   22632051.1324
  22084625.549   -20013588.28649 -15577058.13649  22084628.5104   22084633.2544
  20710957.813   -14566379.35349 -11332892.92249  20710959.7974   20710963.7064
 96  2 12  2 42  0.0000000  0  7  9 12 20 24  7  5  4
  21337152.857   -11166184.10149  -8679841.65449  21337154.8284   21337159.2244
  23817561.815    14930881.323 9  11634665.461 9  23817564.811    23817569.685
  24424566.884    -6331823.49449  -4916582.59249  24424567.5444   24424573.4154
  20907837.595   -19304210.95949 -15017431.93449  20907840.1904   20907845.3294
  22644190.624    11379530.98149   8878037.26249  22644190.2944   22644195.4784
  22069091.953   -20095220.36949 -15640667.53949  22069094.1904   22069099.2004
  20714950.870   -14545394.31049 -11316540.93549  20714953.2004   20714956.6514
 96  2 12  2 42 30.0000000  0  7  9 12 20 24  7  5  4
  21342953.209   -11135708.22149  -8656094.22049  21342954.2444   21342958.6264
  23836399.739    15029882.654 9  11711809.323 9  23836402.261    23836410.898
  24404835.035    -6435508.40049  -4997375.97849  24404836.2224   24404842.9394
  20896610.425   -19363210.65049 -15063405.70449  20896613.2234   20896618.5984
  22656343.942    11443410.34449   8927813.38549  22656347.1064   22656351.0414
  22053585.998   -20176712.93449 -15704168.23149  22053586.7474   22053591.5154
  20719047.023   -14523869.61049 -11299768.44049  20719048.9004   20719052.7174
 96  2 12  2 43  0.0000000  0  7  9 12 20 24  7  5  4
  21348844.558   -11104747.40449  -8631968.91249  21348845.8614   21348850.1734
  23855273.683    15129062.201 9  11789092.046 9  23855277.175    23855281.906
  24385105.778    -6539192.32249  -5078168.57849  24385107.6934   24385112.4434
  20885479.994   -19421703.17449 -15108984.27549  20885482.3124   20885487.3024
  22668510.770    11507336.40449   8977625.90349  22668510.8694   22668516.2394
  22038109.741   -20258040.14449 -15767540.07849  22038110.5354   22038115.5224
  20723245.522   -14501804.42349 -11282574.78349  20723247.8254   20723251.5024
 96  2 12  2 43 30.0000000  0  7  9 12 20 24  7  5  4
  21354836.825   -11073255.94249  -8607430.11849  21354838.4044   21354842.7274
  23874187.536    15228451.584 9  11866538.310 9  23874190.634    23874195.821
  24365379.222    -6642852.29449  -5158942.51149  24365381.4714   24365385.7594
  20874448.976   -19479675.34949 -15154157.38449  20874450.6024   20874455.7014
  22680688.881    11571346.33749   9027503.77049  22680691.6144   22680696.2294
  22022671.175   -20339168.45249 -15830756.92949  22022672.4834   22022677.2784
  20727552.780   -14479173.95849 -11264940.65049  20727554.5634   20727558.0644
 96  2 12  2 44  0.0000000  0  7  9 12 20 24  7  5  4
  21360925.666   -11041261.69049  -8582499.53649  21360926.7764   21360931.0744
  23893136.976    15328013.374 9  11944118.935 9  23893135.855    23893143.735
  24345651.844    -6746521.10249  -5239723.34749  24345654.5484   24345658.0774
  20863509.939   -19537159.50849 -15198950.21849  20863511.7084   20863516.6804
  22692881.181    11635403.83249   9077418.70549  22692882.0464   22692886.6204
  22007262.219   -20420141.03849 -15893852.43249  22007263.8484   22007268.8234
  20731956.854   -14456031.67049 -11246907.69649  20731958.0224   20731961.6274
 96  2 12  2 44 30.0000000  0  7  9 12 20 24  7  5  4
  21367118.449   -11008714.11349  -8557137.79249  21367120.2954   21367124.5244
  23912116.765    15427769.273 9  12021850.806 9  23912118.054    23912124.724
  24325927.492    -6850180.01949  -5320496.46849  24325929.4684   24325932.1374
  20852670.555   -19594120.45949 -15243335.36049  20852672.1474   20852677.6284
  22705081.707    11699526.77749   9127384.64149  22705082.9304   22705088.2684
  21991885.801   -20500941.49249 -15956813.82549  21991888.0514   21991892.7904
  20736461.388   -14432357.38849 -11228460.20049  20736463.2054   20736466.7494
 96  2 12  2 45  0.0000000  0  7  9 12 20 24  7  5  4
  21373417.115   -10975615.20349  -8531346.44449  21373418.7984   21373423.2774
  23931133.220    15527697.933 9  12099717.253 9  23931133.608    23931141.877
  24306198.700    -6953850.07549  -5401278.27249  24306199.9734   24306204.0384
  20841924.100   -19650589.91349 -15287337.51549  20841926.4894   20841931.8504
  22717292.516    11763695.30449   9177386.08249  22717294.7464   22717299.0904
  21976540.798   -20581584.50849 -16019652.53049  21976542.4364   21976546.8894
  20741062.144   -14408176.23849 -11209617.74349  20741064.6124   20741068.3654
 96  2 12  2 45 30.0000000  0  7  9 12 20 24  7  5  4
  21379817.796   -10941977.03049  -8505134.88249  21379820.0104   21379824.4254
  23950182.004    15627798.989 9  12177718.075 9  23950182.045    23950189.243
  24286469.399    -7057525.25649  -5482064.05649  24286471.2514   24286476.1674
  20831270.807   -19706575.02149 -15330962.26149  20831273.0334   20831278.0374
  22729517.810    11827935.84149   9227443.64749  22729519.3304   22729523.7334
  21961226.194   -20662070.08049 -16082368.55349  21961226.3434   21961231.1844
  20745761.064   -14383483.71849 -11190376.81249  20745763.2974   20745767.1144
 96  2 12  2 46  0.0000000  0  7  9 12 20 24  7  5  4
  21386324.424   -10907786.32549  -8478492.78349  21386325.9914   21386330.5194
  23969264.562    15728095.191 9  12255870.906 9  23969270.617    23969276.190
  24266747.510    -7161172.09249  -5562827.77349  24266748.2464   24266753.8114
  20820716.977   -19762036.47649 -15374178.96649  20820718.8334   20820724.1484
  22741759.799    11892268.02649   9277572.62349  22741761.6084   22741766.0734
  21945947.246   -20742355.53649 -16144928.63649  21945948.4014   21945953.2984
  20750563.858   -14358247.17349 -11170711.96749  20750565.9654   20750569.6854
 96  2 12  2 46 30.0000000  0  7  9 12 20 24  7  5  4
  21392934.468   -10873054.75549  -8451429.23049  21392935.5484   21392939.9894
  23988387.632    15828571.882 9  12334164.412 9  23988388.712    23988395.071
  24247026.917    -7264802.98149  -5643579.07849  24247027.1184   24247034.5994
  20810258.375   -19816999.24249 -15417007.08249  20810259.9394   20810265.0454
  22754019.176    11956687.09549   9327769.30449  22754020.0714   22754024.7814
  21930708.502   -20822437.35549 -16207330.04649  21930709.3384   21930714.1844
  20755469.083   -14332467.19749 -11150623.67249  20755471.7974   20755475.4644
 96  2 12  2 47  0.0000000  0  7  9 12 20 24  7  5  4
  21399642.572   -10837802.34349  -8423959.82449  21399643.8954   21399648.0964
  24007543.787    15929232.255 9  12412601.057 9  24007544.250    24007549.918
  24227313.717    -7368401.39949  -5724305.05249  24227314.4374   24227319.3914
  20799890.804   -19871478.89549 -15459458.74649  20799892.9194   20799897.9664
  22766295.814    12021201.21349   9378040.02749  22766296.8374   22766301.1774
  21915508.853   -20902317.14749 -16269574.02949  21915508.7204   21915513.5854
  20760479.376   -14306144.59849 -11130112.55049  20760480.5804   20760484.2114
 96  2 12  2 47 30.0000000  0  7  9 12 20 24  7  5  4
  21406442.234   -10802069.39949  -8396115.97949  21406443.6384   21406447.9864
  24026725.494    16030050.089 9  12491160.409 9  24026728.250    24026735.789
  24207598.975    -7471986.67749  -5805020.80349  24207602.5874   24207606.6784
  20789612.022   -19925494.02549 -15501548.44649  20789613.9214   20789619.1654
  22778583.410    12085778.57749   9428360.03849  22778584.5064   22778589.3694
  21900339.913   -20982024.12449 -16331683.35249  21900341.1744   21900345.7624
  20765587.697   -14279299.44049 -11109194.24349  20765589.2584   20765592.9874
 96  2 12  2 48  0.0000000  0  7  9 12 20 24  7  5  4
  21413339.260   -10765825.20549  -8367873.76049  21413340.8194   21413345.0884
  24045943.906    16131042.213 9  12569855.573 9  24045945.826    24045953.948
  24187896.396    -7575527.25149  -5885701.73549  24187898.5654   24187902.6244
  20779425.981   -19979021.18149 -15543257.90349  20779427.9454   20779433.1864
  22790884.154    12150419.91949   9478729.91449  22790885.9094   22790890.6214
  21885207.236   -21061540.33849 -16393644.02449  21885209.7064   21885214.0714
  20770797.416   -14251918.64149 -11087858.55249  20770799.3784   20770803.1454
 96  2 12  2 48 30.0000000  0  7  9 12 20 24  7  5  4
  21420334.693   -10729063.63049  -8339228.38349  21420336.2844   21420340.8774
  24065196.524    16232206.609 9  12648684.964 9  24065198.258    24065205.333
  24168200.189    -7679034.84849  -5966356.95249  24168203.4844   24168206.9874
  20769330.675   -20032071.39449 -15584595.71949  20769332.9214   20769338.1454
  22803195.702    12215125.08549   9529149.51349  22803198.5474   22803203.7234
  21870110.983   -21140875.53749 -16455463.64749  21870112.4664   21870117.2364
  20776108.079   -14224012.14449 -11066113.22749  20776109.7944   20776113.6634
 96  2 12  2 49  0.0000000  0  7  9 12 20 24  7  5  4
  21427424.635   -10691809.89049  -8310199.50249  21427425.2064   21427429.5254
  24084476.906    16333529.211 9  12727637.593 9  24084480.372    24084487.086
  24148505.096    -7782529.89049  -6047002.42849  24148506.2504   24148511.7854
  20759324.780   -20084653.44449 -15625568.73549  20759326.7364   20759332.2524
  22815516.496    12279863.71749   9579595.19349  22815518.4194   22815523.2474
  21855046.963   -21220043.24049 -16517152.76149  21855047.3234   21855051.8714
  20781517.187   -14195585.15949 -11043962.32749  20781519.3294   20781523.1004
 96  2 12  2 49 30.0000000  0  7  9 12 20 24  7  5  4
  21434609.463   -10654049.61149  -8280775.92149  21434610.9964   21434615.3514
  24103786.972    16435012.891 9  12806715.765 9  24103789.416    24103797.694
  24128813.541    -7886015.40549  -6127640.39749  24128815.5794   24128819.9704
  20749413.834   -20136737.99949 -15666154.08949  20749415.3834   20749420.6954
  22827843.139    12344633.17449   9630064.89149  22827844.1494   22827848.5524
  21840015.894   -21299027.06949 -16578698.59449  21840017.6384   21840022.0124
  20787030.824   -14166614.09349 -11021387.46649  20787032.5434   20787036.1604
 96  2 12  2 50  0.0000000  0  7  9 12 20 24  7  5  4
  21441889.056   -10615797.49649  -8250969.08149  21441890.1084   21441894.4784
  24123127.192    16536643.213 9  12885908.202 9  24123130.256    24123136.546
  24109117.889    -7989513.05749  -6208287.91149  24109121.0234   24109125.9564
  20739594.236   -20188336.15049 -15706360.42949  20739596.5284   20739601.6884
  22840171.706    12409426.01849   9680552.81949  22840173.5204   22840178.4294
  21825018.813   -21377832.95149 -16640105.76649  21825020.8974   21825025.5424
  20792645.481   -14137106.27149 -10998394.35649  20792647.4914   20792651.3264
 96  2 12  2 50 30.0000000  0  7  9 12 20 24  7  5  4
  21449265.344   -10577036.16849  -8220765.45849  21449265.9324   21449270.1304
  24142498.505    16638441.225 9  12965231.301 9  24142502.593    24142508.458
  24089424.407    -8093007.30349  -6288932.68849  24089425.7224   24089431.2904
  20729872.895   -20239421.60149 -15746167.26149  20729875.1864   20729880.5384
  22852509.862    12474266.27649   9731077.69349  22852511.6584   22852516.4384
  21810061.798   -21456436.42449 -16701355.21949  21810063.4004   21810068.0964
  20798369.986   -14107026.16449 -10974955.30949  20798371.5794   20798375.4014
 96  2 12  2 51  0.0000000  0  7  9 12 20 24  7  5  4
  21456731.148   -10537795.55049  -8190188.36649  21456733.2894   21456737.6224
  24161899.208    16740387.262 9  13044669.784 9  24161900.645    24161907.556
  24069733.042    -8196480.59849  -6369561.21849  24069734.6114   24069738.2274
  20720248.627   -20290001.18549 -15785579.91649  20720250.2914   20720255.2864
  22864858.514    12539152.36749   9781638.27349  22864859.3804   22864863.5514
  21795142.599   -21534845.15049 -16762452.92049  21795142.6404   21795147.1364
  20804199.696   -14076388.50949 -10951081.80849  20804201.8504   20804205.6224
 96  2 12  2 51 30.0000000  0  7  9 12 20 24  7  5  4
  21464294.644   -10498046.93249  -8159215.42649  21464297.0544   21464301.3454
  24181325.844    16842491.323 9  13124231.364 9  24181331.238    24181337.782
  24050052.301    -8299904.57849  -6450151.31049  24050054.4784   24050059.4704
  20710723.307   -20340054.52149 -15824582.49849  20710725.3944   20710730.5424
  22877219.543    12604114.67749   9832258.25149  22877221.5924   22877226.0424
  21780263.089   -21613033.66749 -16823379.03049  21780264.2354   21780268.2554
  20810131.943   -14045214.59649 -10926790.44749  20810134.0514   20810137.5654
 96  2 12  2 52  0.0000000  0  7  9 12 20 24  7  5  4
  21471957.448   -10457777.67949  -8127836.79349  21471959.8594   21471964.3454
  24200787.692    16944763.152 9  13203923.685 9  24200790.994    24200798.732
  24030386.039    -8403260.98049  -6530688.72249  24030386.0654   24030392.4474
  20701300.239   -20389574.00949 -15863169.10049  20701302.0074   20701307.1404
  22889600.313    12669170.04749   9882950.73349  22889601.0504   22889605.4034
  21765428.653   -21690981.56049 -16884117.64549  21765430.9024   21765435.3814
  20816163.859   -14013516.23749 -10902090.42449  20816166.0544   20816169.6954
 96  2 12  2 52 30.0000000  0  7  9 12 20 24  7  5  4
  21479717.582   -10417007.53649  -8096067.85449  21479718.0864   21479722.6944
  24220281.089    17047180.222 9  13283729.196 9  24220283.389    24220288.078
  24010728.109    -8506555.63249  -6611178.00749  24010729.9504   24010734.5914
  20691975.505   -20438578.38049 -15901354.31649  20691977.1654   20691982.0934
  22901994.583    12734305.55149   9933705.67649  22901995.2014   22902000.6584
  21750636.304   -21768715.02549 -16944689.16749  21750638.7524   21750643.2724
  20822289.367   -13981328.30749 -10877008.91949  20822291.1064   20822295.0254
 96  2 12  2 53  0.0000000  0  7  9 12 20 24  7  5  4
  21487568.715   -10375746.27149  -8063916.23549  21487570.2294   21487574.6944
  24239791.364    17149729.367 9  13363637.622 9  24239795.946    24239801.357
  23991082.166    -8609802.22749  -6691629.87249  23991082.6964   23991085.5484
  20682746.919   -20487070.56749 -15939140.41949  20682749.1324   20682754.2424
  22914402.087    12799514.91849   9984518.17149  22914403.9714   22914409.0094
  21735885.061   -21846240.36349 -17005098.51849  21735886.1194   21735890.4374
  20828501.963   -13948682.03249 -10851570.25849  20828503.7464   20828507.2514
 96  2 12  2 53 30.0000000  0  7  9 12 20 24  7  5  4
  21495520.035   -10333964.46049  -8031358.98549  21495520.8774   21495525.3924
  24259341.966    17252426.350 9  13443661.264 9  24259338.983    24259345.427
  23971439.122    -8713016.06449  -6772056.24849  23971441.8954   23971447.6804
  20673621.616   -20535027.37249 -15976509.34949  20673623.2094   20673628.3984
  22926824.460    12864788.55349  10035380.73549  22926825.9314   22926830.7104
  21721175.316   -21923545.94049 -17065336.62449  21721175.3854   21721179.7834
  20834806.264   -13915551.36949 -10825754.15249  20834808.0584   20834812.0904
 96  2 12  2 54  0.0000000  0  7  9 12 20 24  7  5  4
  21503564.986   -10291683.00549  -7998412.41349  21503566.8074   21503571.6164
  24278906.456    17355271.032 9  13523799.944 9  24278909.113    24278916.091
  23951805.389    -8816198.32649  -6852457.92749  23951806.8944   23951812.4074
  20664596.300   -20582458.11649 -16013468.35549  20664597.5994   20664602.7524
  22939254.817    12930117.71449  10086286.57649  22939258.0674   22939262.1024
  21706500.376   -22000652.16149 -17125419.38849  21706502.4924   21706506.9154
  20841209.870   -13881898.11349 -10799530.83249  20841211.9754   20841215.8154
 96  2 12  2 54 30.0000000  0  7  9 12 20 24  7  5  4
  21511703.341   -10248913.47149  -7965085.51349  21511705.7184   21511710.1564
  24298508.764    17458258.249 9  13604049.716 9  24298508.052    24298514.539
  23932172.371    -8919361.03249  -6932844.42449  23932175.5894   23932178.2114
  20655667.979   -20629376.20749 -16050027.88949  20655669.7374   20655674.6614
  22951696.211    12995493.20849  10137228.52049  22951698.5924   22951701.5234
  21691865.548   -22077567.20449 -17185353.19349  21691866.1064   21691870.3774
  20847715.120   -13847715.56749 -10772895.08149  20847716.9434   20847720.6484
 96  2 12  2 55  0.0000000  0  7  9 12 20 24  7  5  4
  21519934.282   -10205663.60549  -7931384.32649  21519935.5674   21519940.5434
  24318128.549    17561377.801 9  13684402.573 9  24318130.878    24318138.113
  23912541.781    -9022522.47849  -7013229.96749  23912542.3684   23912550.7714
  20646835.128   -20675787.68349 -16086192.66649  20646837.7554   20646842.6304
  22964142.991    13060891.79549  10188188.44849  22964142.8074   22964147.2394
  21677264.698   -22154292.51049 -17245139.13949  21677266.0114   21677270.2054
  20854320.400   -13813001.56449 -10745845.20749  20854322.4964   20854326.4474
 96  2 12  2 55 29.9990000  0  7  9 12 20 24  7  5  4
  21528255.763   -10161932.00549  -7897307.76949  21528257.6214   21528262.2694
  24337776.058    17664635.622 9  13764863.182 9  24337781.110    24337786.757
  23892916.585    -9125661.05049  -7093597.63649  23892917.8484   23892923.3164
  20638100.244   -20721693.32249 -16121963.28349  20638102.3034   20638107.3164
  22976591.265    13126324.01149  10239174.59849  22976593.8724   22976599.0824
  21662701.783   -22230816.91049 -17304768.54049  21662703.7444   21662707.9444
  20861031.906   -13777732.43449 -10718362.76549  20861034.1434   20861037.9514
 96  2 12  2 55 59.9990000  0  7  9 12 20 24  7  5  4
  21536671.000   -10117701.39349  -7862842.36849  21536674.5054   21536678.9504
  24357456.731    17768056.540 9  13845450.870 9  24357459.743    24357467.174
  23873299.834    -9228748.81949  -7173925.76849  23873301.4674   23873306.4474
  20629463.458   -20767077.52549 -16157327.58049  20629465.7364   20629470.8124
  22989059.805    13191833.66249  10290221.08049  22989060.6084   22989064.6194
  21648180.476   -22307116.02449 -17364222.39149  21648184.6564   21648188.9954
  20867849.563   -13741904.47949 -10690444.87549  20867851.9134   20867855.9644
 96  2 12  2 56 29.9990000  0  7  9 12 20 24  7  5  4
  21545185.227   -10072972.72249  -7827988.86649  21545186.1014   21545190.5524
  24377163.511    17871622.259 9  13926151.395 9  24377168.570    24377175.213
  23853689.305    -9331792.55549  -7254219.52549  23853692.9974   23853698.9004
  20620928.393   -20811932.00349 -16192279.10649  20620930.2144   20620935.4114
  23001537.868    13257418.11449  10341325.83349  23001540.4844   23001545.2584
  21633708.183   -22383180.98249 -17423493.78249  21633709.7444   21633714.0464
  20874766.528   -13705558.16449 -10662123.07049  20874768.5064   20874772.1594
 96  2 12  2 56 59.9990000  0  7  9 12 20 24  7  5  4
  21553786.862   -10027768.90849  -7792765.12449  21553788.2044   21553792.4914
  24396897.770    17975307.501 9  14006945.084 9  24396899.323    24396906.916
  23834089.580    -9434799.19849  -7334484.44949  23834090.8424   23834093.1884
  20612491.984   -20856266.06949 -16226825.12149  20612493.5924   20612499.2744
  23014033.463    13323064.64849  10392478.98649  23014033.4164   23014037.6104
  21619276.918   -22459020.78649 -17482589.72749  21619277.9624   21619282.1994
  20881775.110   -13668725.95149 -10633422.64349  20881777.3194   20881781.3834
 96  2 12  2 57 29.9990000  0  7  9 12 20 24  7  5  4
  21562481.253    -9982078.11349  -7757161.92049  21562482.7374   21562486.9904
  24416649.772    18079120.043 9  14087837.966 9  24416653.893    24416660.502
  23814498.026    -9537747.97149  -7414704.23349  23814498.6184   23814506.4064
  20604154.803   -20900072.81249 -16260960.23149  20604157.6804   20604163.0084
  23026540.970    13388796.06149  10443698.26649  23026542.3004   23026545.9524
  21604891.122   -22534618.15549 -17541496.76649  21604891.9124   21604896.6734
  20888875.104   -13631417.99949 -10604351.51149  20888876.7794   20888880.5244
 96  2 12  2 57 59.9990000  0  7  9 12 20 24  7  5  4
  21571267.871    -9935904.96849  -7721182.85749  21571269.1424   21571273.7824
  24436431.762    18183057.075 9  14168827.841 9  24436432.436    24436438.778
  23794922.212    -9640626.65449  -7494869.45249  23794922.2374   23794927.2904
  20595922.350   -20943338.78849 -16294673.97049  20595924.2674   20595929.3074
  23039063.832    13454608.20249  10494980.43949  23039064.7134   23039069.4934
  21590553.581   -22609966.68049 -17600209.89649  21590553.8844   21590558.2234
  20896060.536   -13593655.78249 -10574926.40649  20896062.8344   20896066.3764
 96  2 12  2 58 29.9990000  0  7  9 12 20 24  7  5  4
  21580145.004    -9889251.83349  -7684829.77749  21580146.9084   21580151.5024
  24456232.486    18287124.241 9  14249919.156 9  24456236.101    24456242.538
  23775356.611    -9743422.79449  -7574970.30849  23775360.9524   23775365.2904
  20587791.575   -20986067.76349 -16327969.26249  20587793.7564   20587798.4894
  23051601.443    13520497.34849  10546322.61449  23051603.8874   23051608.3524
  21576263.240   -22685058.14549 -17658722.72649  21576264.2794   21576268.7964
  20903336.072   -13555425.17449 -10545136.32149  20903337.7564   20903341.4904
 96  2 12  2 58 59.9990000  0  7  9 12 20 24  7  5  4
  21589114.659    -9842118.89549  -7648102.82049  21589116.0324   21589120.5734
  24476063.485    18391318.665 9  14331109.658 9  24476063.316    24476070.545
  23755817.555    -9846133.21349  -7655004.38849  23755816.1294   23755822.5464
  20579757.659   -21028284.75749 -16360865.61149  20579759.6924   20579764.7494
  23064148.210    13586440.82349  10597707.15349  23064152.4024   23064156.7564
  21562021.103   -22759905.38949 -17717045.24949  21562021.4884   21562025.8414
  20910703.078   -13516710.96849 -10514969.40149  20910705.0594   20910708.7804
 96  2 12  2 59 29.9990000  0  7  9 12 20 24  7  5  4
  21598173.051    -9794518.25449  -7611011.40849  21598174.2184   21598178.7354
  24495913.460    18495628.356 9  14412389.921 9  24495911.822    24495920.230
  23736281.902    -9948769.83149  -7734980.95649  23736284.8694   23736290.0424
  20571817.392   -21070013.63749 -16393381.61149  20571819.1494   20571824.2834
  23076707.727    13652424.95149  10649123.33949  23076708.0694   23076712.8374
  21547818.307   -22834536.84149 -17775199.62449  21547819.7044   21547823.9024
  20918160.611   -13477521.64349 -10484432.26549  20918162.4914   20918166.1444
 96  2 12  2 59 59.9990000  0  7  9 12 20 24  7  5  4
  21607319.197    -9746459.07949  -7573562.71449  21607319.6064   21607323.9024
  24515780.101    18600059.497 9  14493764.826 9  24515785.489    24515793.043
  23716768.015   -10051335.21349  -7814902.02349  23716766.4604   23716772.3554
  20563969.850   -21111251.58049 -16425515.06149  20563971.5994   20563976.8994
  23089269.855    13718441.82249  10700565.04649  23089270.7044   23089274.9534
  21533658.143   -22908954.67249 -17833187.54149  21533658.6624   21533662.6974
  20925714.260   -13437829.43649 -10453503.27249  20925715.4174   20925719.2784
 96  2 12  3  0 29.9990000  0  7  9 12 20 24  7  5  4
  21616552.248    -9697937.69449  -7535753.85449  21616552.8034   21616557.7444
  24535679.531    18704605.680 9  14575229.345 9  24535679.439    24535686.552
  23697256.790   -10153846.10949  -7894780.60849  23697260.1414   23697265.0724
  20556213.279   -21152012.70049 -16457276.96749  20556215.3254   20556220.4654
  23101838.374    13784488.08249  10752029.67049  23101839.3144   23101843.2814
  21519535.835   -22983165.14149 -17891013.87449  21519536.5484   21519540.9364
  20933364.435   -13397623.57849 -10422174.03149  20933366.5794   20933370.2814
 96  2 12  3  0 59.9990000  0  7  9 12 20 24  7  5  4
  21625876.597    -9648933.80249  -7497569.01449  21625878.2304   21625882.6534
  24555595.563    18809279.714 9  14656793.500 9  24555597.682    24555606.481
  23677766.323   -10256293.14549  -7974609.46149  23677765.7384   23677771.0594
  20548553.236   -21192263.65249 -16488641.32949  20548555.4794   20548560.5094
  23114416.097    13850593.09049  10803540.04449  23114418.5964   23114421.8274
  21505455.252   -23057148.29149 -17948663.07949  21505458.0464   21505462.5474
  20941114.313   -13356898.03449 -10390439.84149  20941116.3454   20941120.1164
 96  2 12  3  1 29.9990000  0  7  9 12 20 24  7  5  4
  21635285.433    -9599489.52349  -7459041.01449  21635287.1804   21635291.5064
  24575533.327    18914051.626 9  14738433.935 9  24575536.037    24575542.815
  23658273.643   -10358708.00649  -8054413.22149  23658276.9844   23658280.4214
  20540991.052   -21232008.41549 -16519611.26949  20540992.6354   20540997.4354
  23127006.304    13916749.78949  10855090.72349  23127007.2384   23127012.1584
  21491420.536   -23130912.79549 -18006141.90649  21491421.0614   21491425.5594
  20948954.694   -13315695.89549 -10358334.27449  20948956.7964   20948960.4834
 96  2 12  3  1 59.9990000  0  7  9 12 20 24  7  5  4
  21644779.854    -9549600.10149  -7420166.15149  21644780.5414   21644785.2854
  24595490.017    19018920.939 9  14820150.259 9  24595492.021    24595499.617
  23638792.824   -10461086.27949  -8134188.51149  23638794.6954   23638798.4554
  20533527.744   -21271225.92249 -16550170.35249  20533529.4704   20533534.4364
  23139605.972    13982959.10349  10906682.39349  23139606.8574   23139610.0914
  21477427.720   -23204438.25349 -18063434.46249  21477429.6724   21477434.2864
  20956887.169   -13274008.71949 -10325850.75649  20956889.6114   20956893.2624
 96  2 12  3  2 29.9990000  0  7  9 12 20 24  7  5  4
  21654363.761    -9499237.13249  -7380922.29149  21654364.4044   21654368.9264
  24615467.816    19123900.874 9  14901952.797 9  24615469.276    24615476.113
  23619325.693   -10563404.76049  -8213917.17549  23619321.7544   23619327.8904
  20526169.358   -21309891.33449 -16580299.24049  20526171.5674   20526176.8864
  23152217.535    14049252.60749  10958339.66249  23152221.2874   23152224.8174
  21463488.979   -23277690.14749 -18120513.85749  21463490.2464   21463494.7544
  20964912.536   -13231834.42249 -10292987.66849  20964914.9264   20964918.7614
 96  2 12  3  2 59.9990000  0  7  9 12 20 24  7  5  4
  21664034.683    -9448415.72349  -7341321.20549  21664035.3084   21664039.7714
  24635461.159    19228985.580 9  14983836.956 9  24635466.073    24635472.969
  23599864.237   -10665654.97549  -8293592.61849  23599866.4044   23599870.9754
  20518915.926   -21348008.40849 -16610000.84449  20518918.5084   20518923.4474
  23164851.653    14115625.66249  11010058.92749  23164852.6994   23164855.7394
  21449602.297   -23350670.21149 -18177381.43749  21449602.4254   21449606.9734
  20973029.123   -13189183.64549 -10259753.29549  20973031.0664   20973034.8244
 96  2 12  3  3 29.9990000  0  7  9 12 20 24  7  5  4
  21673789.798    -9397146.68049  -7301371.31749  21673791.4334   21673795.7054
  24655480.079    19334172.497 9  15065800.787 9  24655482.564    24655489.369
  23580420.627   -10767826.15849  -8373206.54449  23580424.7414   23580429.2454
  20511765.024   -21385590.59249 -16639285.65449  20511766.7094   20511771.7194
  23177492.286    14182056.94849  11061823.56849  23177493.9814   23177495.8264
  21435763.052   -23423387.35949 -18234044.14249  21435764.9284   21435769.5324
  20981237.985   -13146047.44049 -10226140.66849  20981239.7294   20981243.5954
 96  2 12  3  3 59.9990000  0  7  9 12 20 24  7  5  4
  21683634.834    -9345411.65249  -7261058.32349  21683636.3564   21683640.6664
  24675518.534    19439467.387 9  15147848.743 9  24675519.639    24675525.870
  23560995.193   -10869905.11949  -8452748.58849  23560998.5424   23561003.2624
  20504712.747   -21422644.94649 -16668159.17149  20504715.3454   20504720.5284
  23190143.714    14248537.53149  11113626.63549  23190144.6114   23190148.9824
  21421976.494   -23495843.65749 -18290503.59549  21421976.9534   21421981.2664
  20989539.889   -13102419.40649 -10192144.79549  20989541.9044   20989545.7744
 96  2 12  3  4 29.9990000  0  7  9 12 20 24  7  5  4
  21693562.039    -9293243.78849  -7220408.04949  21693563.2654   21693568.0154
  24695571.307    19544842.238 9  15229959.062 9  24695571.313    24695578.832
  23541583.508   -10971917.14349  -8532238.44149  23541586.6414   23541592.1634
  20497755.573   -21459209.89349 -16696651.32749  20497757.2084   20497762.4314
  23202797.106    14315038.51049  11165445.59549  23202799.0284   23202802.5594
  21408232.621   -23568071.44949 -18346784.98749  21408232.4594   21408236.9224
  20997927.409   -13058344.75849 -10157800.91449  20997929.1564   20997932.6314
 96  2 12  3  4 59.9990000  0  7  9 12 20 24  7  5  4
  21703573.183    -9240634.58749  -7179413.88349  21703575.0174   21703579.5474
  24715639.018    19650312.349 9  15312143.576 9  24715642.100    24715647.714
  23522189.857   -11073831.95449  -8611652.57749  23522192.8184   23522197.8064
  20490893.248   -21495269.69849 -16724749.86649  20490895.2084   20490900.2924
  23215458.128    14381567.81249  11217286.58349  23215460.2354   23215463.4884
  21394530.378   -23640063.34549 -18402882.56249  21394532.7494   21394537.2864
  21006402.190   -13013807.43849 -10123096.51149  21006404.3084   21006407.9644
 96  2 12  3  5 29.9990000  0  7  9 12 20 24  7  5  4
  21713671.122    -9187568.65249  -7138063.81449  21713673.0124   21713677.3814
  24735729.464    19755884.744 9  15394407.782 9  24735732.024    24735738.586
  23502817.538   -11175654.01149  -8690994.42849  23502816.2664   23502821.2804
  20484130.051   -21530810.11349 -16752443.68549  20484132.2114   20484137.2144
  23228124.033    14448132.86949  11269155.46649  23228125.8464   23228130.0634
  21380879.953   -23711799.69049 -18458781.00749  21380881.4924   21380886.0754
  21014965.929   -12968806.90549 -10088031.15949  21014967.4984   21014971.4264
 96  2 12  3  5 59.9990000  0  7  9 12 20 24  7  5  4
  21723856.450    -9134051.11349  -7096361.85049  21723857.3134   21723861.2454
  24755841.239    19861544.495 9  15476740.059 9  24755838.521    24755844.902
  23483456.753   -11277397.52449  -8770275.07649  23483457.2524   23483460.2974
  20477465.137   -21565835.60649 -16779736.26949  20477466.9364   20477472.1294
  23240803.528    14514737.56849  11321055.22449  23240800.4054   23240805.5104
  21367278.530   -23783274.56549 -18514475.71349  21367280.5864   21367285.0964
  21023612.467   -12923367.48449 -10052623.81849  21023614.1954   21023618.1354
 96  2 12  3  6 29.9990000  0  7  9 12 20 24  7  5  4
  21734123.146    -9080096.62349  -7054319.40349  21734124.1734   21734128.5514
  24775955.935    19967290.866 9  15559139.824 9  24775961.408    24775968.091
  23464110.490   -11379055.01249  -8849488.69549  23464110.1964   23464114.6664
  20470899.404   -21600336.00349 -16806619.68949  20470901.9354   20470906.7834
  23253482.741    14581395.35349  11372996.33749  23253485.4674   23253489.4994
  21353729.934   -23854472.61349 -18569954.71249  21353732.0994   21353736.3744
  21032344.577   -12877479.80749 -10016867.18849  21032346.4094   21032350.3464
 96  2 12  3  6 59.9990000  0  7  9 12 20 24  7  5  4
  21744473.464    -9025699.20849  -7011931.82149  21744475.6864   21744480.0764
  24796098.300    20073123.255 9  15641606.611 9  24796099.938    24796107.534
  23444782.548   -11480622.21949  -8928631.95549  23444784.0574   23444787.8364
  20464435.744   -21634305.44249 -16833089.37349  20464437.8224   20464442.5744
  23266174.562    14648109.68949  11424981.48449  23266180.7124   23266184.4194
  21340235.339   -23925389.37049 -18625214.51949  21340237.0294   21340241.4964
  21041164.959   -12831128.72149  -9980749.45949  21041166.7354   21041170.3444
 96  2 12  3  7 29.9990000  0  7  9 12 20 24  7  5  4
  21754910.783    -8970856.24149  -6969197.05249  21754912.3624   21754916.2924
  24816256.200    20179041.032 9  15724139.922 9  24816255.819    24816262.710
  23425472.870   -11582111.81149  -9007714.73849  23425468.8554   23425476.0474
  20458074.554   -21667734.74049 -16859138.16949  20458076.3574   20458081.4204
  23278888.163    14714893.04949  11477020.46849  23278889.6174   23278895.7454
  21326794.952   -23996017.65349 -18680249.54249  21326796.9374   21326801.3614
  21050072.895   -12784314.51349  -9944270.85549  21050075.1824   21050079.2094
 96  2 12  3  7 59.9990000  0  7  9 12 20 24  7  5  4
  21765431.502    -8915567.37149  -6926114.82849  21765432.8644   21765437.2584
  24836425.217    20285049.136 9  15806743.659 9  24836428.617    24836435.346
  23406172.662   -11683507.62749  -9086724.46749  23406176.3344   23406180.7004
  20451816.083   -21700620.37249 -16884763.32649  20451818.1784   20451823.2754
  23291613.067    14781757.88349  11529122.93649  23291615.1614   23291619.4274
  21313408.760   -24066356.98449 -18735059.40949  21313411.6564   21313416.1844
  21059071.950   -12737022.87749  -9907420.22549  21059074.3874   21059078.2324
 96  2 12  3  8 29.9990000  0  7  9 12 20 24  7  5  4
  21776032.826    -8859855.24349  -6882702.79349  21776034.5764   21776039.0584
  24856612.174    20391128.457 9  15889402.870 9  24856614.691    24856621.834
  23386893.108   -11784829.28149  -9165676.38749  23386895.0404   23386900.1754
  20445656.303   -21732993.08649 -16909988.81449  20445657.8784   20445662.8504
  23304344.706    14848677.19649  11581267.81249  23304348.3114   23304351.9064
  21300078.090   -24136426.95749 -18789659.39049  21300077.7454   21300082.3134
  21068159.301   -12689270.77649  -9870210.79649  21068161.5334   21068165.5274
 96  2 12  3  8 59.9990000  0  7  9 12 20 24  7  5  4
  21786716.131    -8803717.45949  -6838959.08449  21786717.3524   21786721.7164
  24876811.852    20497273.499 9  15972113.297 9  24876813.036    24876820.478
  23367626.623   -11886084.62449  -9244576.61849  23367625.6774   23367631.7984
  20439591.771   -21764863.18149 -16934822.64149  20439593.4194   20439598.2914
  23317088.501    14915641.05049  11633447.42849  23317089.8184   23317097.1424
  21286794.581   -24206230.02349 -18844051.38949  21286794.8874   21286799.3034
  21077331.931   -12641069.43249  -9832651.30749  21077333.9164   21077337.6514
 96  2 12  3  9 29.9990000  0  7  9 12 20 24  7  5  4
  21797480.495    -8747142.58449  -6794874.78049  21797483.2374   21797487.8044
  24897027.215    20603498.703 9  16054886.181 9  24897027.070    24897034.437
  23348372.218   -11987254.77049  -9323410.48449  23348374.1494   23348379.3444
  20433625.725   -21796212.11149 -16959250.36749  20433627.7294   20433632.6904
  23329843.605    14982669.31249  11685677.26049  23329843.7204   23329848.3354
  21273567.667   -24275740.67049 -18898215.52549  21273567.4694   21273571.5654
  21086592.745   -12592400.73349  -9794727.64149  21086595.1974   21086598.8204
 96  2 12  3  9 59.9990000  0  7  9 12 20 24  7  5  4
  21808329.431    -8690141.40949  -6750458.28749  21808330.1704   21808334.4274
  24917249.868    20709801.150 9  16137719.224 9  24917256.377    24917263.030
  23329142.055   -12088313.78449  -9402157.75849  23329142.8974   23329148.2404
  20427757.353   -21827051.99049 -16983281.43149  20427759.2624   20427764.3934
  23342609.092    15049739.91449  11737939.99049  23342605.8984   23342610.5024
  21260396.590   -24344948.89749 -18952144.01049  21260397.5884   21260402.1924
  21095943.882   -12543261.75049  -9756437.52549  21095945.9674   21095949.8854
 96  2 12  3 10 29.9990000  0  7  9 12 20 24  7  5  4
  21819253.941    -8632723.20149  -6705716.84049  21819256.5094   21819261.0554
  24937496.446    20816172.763 9  16220606.187 9  24937497.608    24937504.743
  23309931.726   -12189263.08649  -9480819.53749  23309932.9404   23309938.0744
  20421987.550   -21857371.64549 -17006907.13149  20421989.4974   20421994.6334
  23355377.410    15116846.11049  11790230.52049  23355376.9914   23355385.0514
  21247281.601   -24413861.22749 -19005841.92349  21247283.8474   21247288.4254
  21105382.898   -12493660.27449  -9717787.02349  21105384.9194   21105388.6774
 96  2 12  3 10 59.9990000  0  7  9 12 20 24  7  5  4
  21830260.916    -8574890.48149  -6660652.38849  21830261.6774   21830266.1054
  24957749.646    20922610.870 9  16303544.992 9  24957752.281    24957759.082
  23290745.003   -12290098.84749  -9559392.83349  23290745.2264   23290750.8404
  20416320.342   -21887152.25149 -17030112.78849  20416322.7144   20416327.2454
  23368155.174    15183994.68549  11842554.06049  23368154.9564   23368162.9844
  21234220.710   -24482498.47149 -19059325.48649  21234222.6124   21234227.1804
  21114910.097   -12443597.47149  -9678777.04349  21114911.4224   21114915.3594
 96  2 12  3 11 29.9990000  0  7  9 12 20 24  7  5  4
  21841347.645    -8516631.55449  -6615255.83849  21841348.1314   21841352.6694
  24978022.404    21029129.511 9  16386546.533 9  24978021.817    24978027.790
  23271580.781   -12390798.55449  -9637860.12449  23271581.6124   23271586.6274
  20410760.680   -21916371.69649 -17052881.17749  20410762.2684   20410767.2514
  23380942.964    15251200.52049  11894922.26949  23380941.7824   23380953.0034
  21221212.782   -24550854.38749 -19112589.83449  21221214.8264   21221219.4344
  21124524.981   -12393068.52449  -9639403.83449  21124526.6734   21124530.5304
 96  2 12  3 11 59.9990000  0  6  9 20 24  7  5  4
  21852506.031    -8457981.79049  -6569554.74249  21852508.6874   21852513.1654
  23252437.047   -12491393.19849  -9716245.54849  23252439.1394   23252444.2244
  20405302.165   -21945054.19649 -17075231.16449  20405303.9784   20405309.2764
  23393741.878    15318440.72649  11947317.21149  23393740.3254   23393743.2904
  21208250.918   -24618966.93849 -19165664.54649  21208253.5014   21208257.9914
  21134221.029   -12342113.34349  -9599698.49349  21134223.2784   21134227.0704
 96  2 12  3 12 29.9990000  0  6  9 20 24  7  5  4
  21863744.412    -8398932.55749  -6523542.36249  21863745.4854   21863749.9104
  23233312.857   -12591900.00549  -9794562.52449  23233313.6244   23233319.6074
  20399947.770   -21973190.19949 -17097155.31949  20399949.9554   20399954.9924
  23406543.901    15385731.43649  11999751.46249  23406546.5274   23406550.8604
  21195338.250   -24686837.73949 -19218550.88049  21195337.9534   21195342.6384
  21143998.201   -12290738.00149  -9559665.75849  21143999.7784   21144003.2684
 96  2 12  3 12 59.9990000  0  6  9 20 24  7  5  4
  21875057.043    -8339476.50949  -6477212.99349  21875059.1754   21875063.7004
  23214204.388   -12692311.45449  -9872805.20149  23214205.3774   23214211.3924
  20394694.684   -22000795.08049 -17118665.60949  20394697.0734   20394702.2544
  23419355.576    15453064.17449  12052218.54349  23419359.1494   23419364.0764
  21182470.168   -24754453.39249 -19271238.40049  21182471.3844   21182475.9804
  21153852.929   -12238948.58649  -9519310.36649  21153854.9084   21153858.5584
 96  2 12  3 13 29.9990000  0  6  9 20 24  7  5  4
  21886450.248    -8279615.31549  -6430567.91649  21886451.0024   21886455.0864
  23195114.627   -12792623.82849  -9950970.67549  23195117.2554   23195122.0734
  20389542.478   -22027874.94949 -17139766.79349  20389543.8114   20389549.0174
  23432176.160    15520441.33049  12104720.18249  23432179.7884   23432183.5144
  21169657.783   -24821782.77549 -19323702.84849  21169659.0874   21169663.7204
  21163787.260   -12186744.03749  -9478631.49149  21163789.2204   21163792.9944
 96  2 12  3 13 59.9990000  0  6  9 20 24  7  5  4
  21897919.601    -8219336.35349  -6383597.30749  21897921.2724   21897926.1954
  23176046.784   -12892834.32249 -10029056.75549  23176047.9554   23176052.4444
  20384489.998   -22054422.18249 -17160452.94249  20384492.2764   20384497.3774
  23445009.297    15587863.67349  12157257.11149  23445010.0974   23445017.0054
  21156904.280   -24888802.56649 -19375926.05449  21156905.3874   21156910.1534
  21173803.272   -12134107.92349  -9437616.34049  21173805.3944   21173809.2454
 96  2 12  3 14 29.9990000  0  6  9 20 24  7  5  4
  21909470.729    -8158638.78049  -6336300.52049  21909472.0454   21909476.1014
  23156994.711   -12992946.49049 -10107066.23149  23156996.7234   23157001.5684
  20379534.170   -22080463.40249 -17180744.79549  20379536.4654   20379541.6034
  23457841.438    15655305.94849  12209809.54149  23457844.2004   23457846.8624
  21144209.194   -24955516.40649 -19427910.86549  21144210.3184   21144214.8464
  21183898.797   -12081055.96249  -9396277.14949  21183900.7914   21183904.7284
 96  2 12  3 14 59.9990000  0  6  9 20 24  7  5  4
  21921099.965    -8097524.32449  -6288678.87349  21921101.5904   21921106.2884
  23137968.493   -13092946.85849 -10184988.58049  23137967.1124   23137972.3604
  20374675.725   -22105996.07649 -17200640.38349  20374677.8924   20374682.9464
  23470682.322    15722786.17549  12262391.48549  23470684.3274   23470689.1704
  21131571.519   -25021921.32949 -19479654.95549  21131573.8724   21131578.5544
  21194074.918   -12027578.23949  -9354606.19849  21194077.3484   21194081.1314
 96  2 12  3 15 29.9990000  0  6  9 20 24  7  5  4
  21932802.543    -8036024.52149  -6240756.96449  21932804.6924   21932809.1244
  23118952.969   -13192853.72349 -10262838.06849  23118955.4174   23118961.0004
  20369911.464   -22131034.82349 -17220151.08249  20369912.9394   20369918.2234
  23483527.403    15790286.64649  12314989.27549  23483529.4364   23483534.3964
  21118991.096   -25088034.26049 -19531171.51649  21118993.0894   21118997.5094
  21204329.376   -11973690.22349  -9312615.53849  21204331.8204   21204335.7664
 96  2 12  3 15 59.9990000  0  6  9 20 24  7  5  4
  21944586.441    -7974105.51949  -6192508.39349  21944587.2714   21944592.0724
  23099965.822   -13292620.77049 -10340578.59349  23099970.1594   23099977.1914
  20365246.901   -22155545.51849 -17239250.31949  20365249.2404   20365254.2584
  23496382.899    15857840.60749  12367628.69649  23496385.2224   23496390.4584
  21106470.312   -25153831.69149 -19582442.24049  21106472.1754   21106476.8084
  21214668.738   -11919359.73849  -9270280.09849  21214670.4034   21214674.4504
 96  2 12  3 16 29.9990000  0  6  9 20 24  7  5  4
  21956444.902    -7911783.05649  -6143945.45449  21956447.2204   21956451.3004
  23081012.466   -13392246.36249 -10418208.94249  23081011.9514   23081018.1214
  20360682.462   -22179529.71349 -17257939.30149  20360684.6924   20360690.2164
  23509251.871    15925461.02249  12420319.94249  23509253.0054   23509256.7194
  21094007.309   -25219325.98049 -19633476.74949  21094009.0144   21094013.6534
  21225087.969   -11864603.98449  -9227613.28349  21225090.4574   21225094.3074
 96  2 12  3 16 59.9990000  0  6  9 20 24  7  5  4
  21968376.400    -7849089.01949  -6095092.96749  21968377.1784   21968381.8224
  23062078.525   -13491746.19049 -10495741.26149  23062078.4864   23062084.0254
  20356219.169   -22202989.72749 -17276219.82149  20356220.6654   20356225.7914
  23522128.353    15993135.82149  12473053.52349  23522129.7774   23522134.4894
  21081601.404   -25284520.47349 -19684277.65049  21081603.0214   21081607.6554
  21235585.812   -11809438.65849  -9184627.31849  21235587.8634   21235591.8394
 96  2 12  3 17 29.9990000  0  6  9 20 24  7  5  4
  21980379.555    -7786008.89649  -6045939.63749  21980380.8864   21980385.3174
  23043167.543   -13591113.79949 -10573170.55949  23043169.3384   23043173.7354
  20351855.819   -22225916.84349 -17294085.10349  20351857.8474   20351862.7484
  23535018.261    16060860.03649  12525825.63549  23535019.0844   23535021.5824
  21069254.272   -25349400.95949 -19734833.87049  21069256.6714   21069261.1904
  21246161.572   -11753864.50749  -9141322.78449  21246163.3764   21246167.2944
 96  2 12  3 17 59.9990000  0  6  9 20 24  7  5  4
  21992456.756    -7722543.27249  -5996485.91849  21992458.3684   21992463.0734
  23024280.600   -13690359.08749 -10650504.54849  23024283.6124   23024288.3934
  20347594.201   -22248309.61649 -17311534.01049  20347596.6554   20347601.2674
  23547917.711    16128641.89949  12578642.65549  23547917.0184   23547920.7544
  21056967.298   -25413972.44649 -19785149.31049  21056968.8844   21056973.6024
  21256812.736   -11697890.45349  -9097706.63949  21256814.6784   21256818.6694
 96  2 12  3 18 29.9990000  0  6  9 20 24  7  5  4
  22004607.318    -7658695.40049  -5946734.34749  22004607.7454   22004612.5944
  23005416.277   -13789487.83149 -10727747.71549  23005419.8794   23005425.5374
  20343434.599   -22270168.62949 -17328567.00149  20343437.0454   20343441.9484
  23560824.272    16196480.82349  12631504.17149  23560826.4294   23560830.6114
  21044740.448   -25478225.96649 -19835216.98849  21044741.9944   21044746.6974
  21267541.312   -11641513.54149  -9053776.58049  21267542.9144   21267546.7264
 96  2 12  3 18 59.9990000  0  6  9 20 24  7  5  4
  22016828.181    -7594466.27149  -5896685.69049  22016830.4214   22016835.3594
  22986578.433   -13888492.18249 -10804893.94449  22986580.4154   22986586.2644
  20339376.183   -22291496.59849 -17345186.19149  20339378.6564   20339383.1484
  23573744.565    16264369.82649  12684404.64349  23573745.4924   23573750.2484
  21032574.533   -25542158.59949 -19885034.62449  21032576.0574   21032580.5584
  21278349.422   -11584712.80649  -9009516.26849  21278351.6844   21278355.4094
 96  2 12  3 19 29.9990000  0  7  9 20 24  7  5 16  4
  22029124.827    -7529847.34249  -5846333.28649  22029126.8764   22029131.4924
  22967767.060   -13987356.07449 -10881930.74649  22967767.8184   22967770.9354
  20335422.551   -22312273.93949 -17361376.31949  20335424.2774   20335429.4504
  23586676.500    16332325.44749  12737357.07749  23586676.8834   23586681.5914
  21020468.966   -25605769.33249 -19934601.42549  21020471.4554   21020475.9664
  24657041.290     -895447.13959   -681066.14359  24657042.2914   24657048.1384
  21289242.939   -11527472.63049  -8964913.53049  21289244.2844   21289247.9764
 96  2 12  3 19 59.9990000  0  7  9 20 24  7  5 16  4
  22041488.980    -7464874.85049  -5795705.38449  22041491.1734   22041494.9244
  22948975.162   -14086088.47849 -10958865.06749  22948978.9124   22948983.6144
  20331569.327   -22332524.38049 -17377155.88049  20331571.2984   20331575.9844
  23599615.938    16400324.10049  12790343.00049  23599616.6904   23599620.0884
  21008425.269   -25669070.77549 -19983927.22949  21008425.6264   21008430.1924
  24637786.538     -996631.68149   -759911.22349  24637787.2984   24637794.8054
  21300213.973   -11469816.04549  -8919986.32349  21300215.8564   21300219.8044
 96  2 12  3 20 29.9990000  0  7  9 20 24  7  5 16  4
  22053922.560    -7399539.72049  -5744794.89749  22053923.7844   22053928.3824
  22930222.658   -14184654.67449 -11035669.90749  22930222.5244   22930227.1114
  20327818.638   -22352235.45149 -17392515.15249  20327820.1844   20327825.2894
  23612565.238    16468379.29249  12843373.00649  23612567.1064   23612572.4254
  20996439.596   -25732042.39849 -20032996.02249  20996442.3284   20996446.9754
  24618518.776    -1097886.83949   -838811.32649  24618520.4484   24618526.5104
  21311267.318   -11411730.15049  -8874724.58449  21311269.1864   21311273.2404
 96  2 12  3 20 59.9990000  0  7  9 20 24  7  5 16  4
  22066422.305    -7333850.60749  -5693608.59549  22066423.5274   22066428.3774
  22911493.265   -14283066.03449 -11112354.07349  22911495.2824   22911500.5134
  20324167.945   -22371418.18949 -17407462.73449  20324169.7384   20324174.4854
  23625525.184    16536484.89449  12896442.30349  23625527.3704   23625531.5764
  20984517.672   -25794696.63549 -20081817.51049  20984519.7454   20984524.2224
  24599242.824    -1199188.68349   -917747.79949  24599242.4034   24599248.6484
  21322397.606   -11353237.35049  -8829145.78049  21322400.1774   21322404.0664
 96  2 12  3 21 29.9990000  0  7  9 20 24  7  5 16  4
  22078988.333    -7267818.74749  -5642155.19549  22078989.6924   22078994.1514
  22892792.392   -14381343.44249 -11188933.87649  22892793.7864   22892798.1254
  20320613.939   -22390094.24849 -17422015.50049  20320615.9594   20320620.8064
  23638490.655    16604617.86549  12949532.90549  23638491.8294   23638496.6974
  20972655.292   -25857036.49049 -20130394.01949  20972656.8554   20972661.1244
  24579955.720    -1300538.61949   -996721.71849  24579957.4564   24579964.4574
  21333599.467   -11294376.41649  -8783280.11749  21333601.1464   21333604.7674
 96  2 12  3 21 59.9990000  0  7  9 20 24  7  5 16  4
  22091625.025    -7201412.46449  -5590410.06049  22091626.4484   22091630.8324
  22874123.494   -14479463.22649 -11265390.83149  22874122.7194   22874127.5084
  20317155.625   -22408264.99249 -17436174.52449  20317157.7574   20317163.0064
  23651466.744    16672799.21349  13002661.21949  23651466.9204   23651471.4674
  20960858.808   -25919029.44049 -20178700.21349  20960859.8874   20960864.3064
  24560662.554    -1401917.58049  -1075718.25249  24560665.3664   24560671.3794
  21344872.626   -11235133.14549  -8737116.53349  21344874.7264   21344878.3974
 96  2 12  3 22 29.9990000  0  7  9 20 24  7  5 16  4
  22104330.282    -7134640.93949  -5538380.30849  22104332.4734   22104336.9624
  22855476.329   -14577446.62849 -11341741.53549  22855476.7984   22855481.2904
  20313792.158   -22425940.79949 -17449947.87049  20313794.3394   20313799.3814
  23664445.304    16741012.39549  13055814.32749  23664447.2294   23664453.1704
  20949123.052   -25980698.58749 -20226754.09349  20949124.8344   20949129.0854
  24541364.512    -1503338.79149  -1154747.69149  24541365.5674   24541371.6674
  21356217.108   -11175518.21749  -8690663.34249  21356219.0184   21356222.7784
 96  2 12  3 22 59.9990000  0  7  9 20 24  7  5 16  4
  22117110.059    -7067488.40249  -5486053.66649  22117110.8244   22117115.4804
  22836857.078   -14675292.07749 -11417984.74349  22836858.0234   22836862.5194
  20310524.777   -22443112.71649 -17463328.57849  20310526.6774   20310531.4344
  23677433.209    16809262.43249  13108996.20149  23677434.9524   23677439.2254
  20937454.374   -26042028.89649 -20274543.94249  20937454.0284   20937458.4594
  24522055.648    -1604813.91249  -1233819.17049  24522055.5314   24522060.9624
  21367633.849   -11115523.47449  -8643914.19049  21367635.6814   21367639.2464
 96  2 12  3 23 29.9990000  0  7  9 20 24  7  5 16  4
  22129960.313    -6999953.99049  -5433429.46449  22129962.2764   22129967.1064
  22818265.819   -14772985.44849 -11494109.44049  22818266.3464   22818272.0904
  20307355.338   -22459768.01449 -17476306.73149  20307357.5774   20307362.3584
  23690430.257    16877557.47549  13162213.08049  23690431.4804   23690436.0644
  20925850.811   -26102998.03349 -20322052.36349  20925851.8534   20925856.4994
  24502734.483    -1706340.69849  -1312930.91149  24502735.0304   24502740.9914
  21379124.021   -11055141.11549  -8596863.00149  21379126.0164   21379129.9724
 96  2 12  3 23 59.9990000  0  7  9 20 24  7  5 16  4
  22142880.300    -6932057.32949  -5380522.98249  22142882.6974   22142887.7114
  22799706.181   -14870532.80649 -11570120.36249  22799704.3034   22799708.7034
  20304283.561   -22475911.43349 -17488886.01049  20304284.8384   20304290.3684
  23703436.296    16945901.44249  13215468.08949  23703436.8334   23703441.3864
  20914312.737   -26163626.73549 -20369295.50649  20914314.6784   20914318.8694
  24483402.884    -1807921.21049  -1392084.53149  24483405.3134   24483411.2584
  21390688.781   -10994370.27049  -8549509.10149  21390690.5094   21390694.1154
 96  2 12  3 24 29.9990000  0  7  9 20 24  7  5 16  4
  22155866.504    -6863821.05949  -5327351.88449  22155867.5674   22155872.8154
  22781165.548   -14967947.20849 -11646027.66949  22781166.9694   22781171.1644
  20301308.865   -22491539.10249 -17501063.41149  20301311.5314   20301316.6084
  23716447.960    17014287.54749  13268755.92949  23716449.4424   23716453.5324
  20902836.201   -26223934.51849 -20416288.58549  20902838.5734   20902843.1244
  24464064.474    -1909554.45549  -1471279.22149  24464064.8704   24464070.6544
  21402324.311   -10933225.98849  -8501864.20849  21402325.4944   21402329.6324
 96  2 12  3 24 59.9990000  0  7  9 20 24  7  5 16  4
  22168917.640    -6795229.73849  -5273904.11649  22168919.9864   22168925.2694
  22762658.019   -15065205.50449 -11721813.34149  22762659.2814   22762664.2354
  20298435.022   -22506641.03049 -17512831.13749  20298437.5064   20298442.8304
  23729474.911    17082740.49249  13322095.88749  23729475.6604   23729482.3194
  20891426.984   -26283895.81249 -20463011.67249  20891428.2644   20891432.5134
  24444716.779    -2011218.68849  -1550498.06649  24444718.6574   24444724.3404
  21414031.739   -10871699.86749  -8453921.77649  21414033.7234   21414037.2984
 96  2 12  3 25 29.9990000  0  7  9 20 24  7  5 16  4
  22182033.582    -6726306.08749  -5220197.38849  22182035.9404   22182041.6914
  22744180.636   -15162308.53949 -11797478.04549  22744181.5764   22744185.2244
  20295660.523   -22521226.40449 -17524196.35249  20295661.8944   20295667.0854
  23742512.869    17151251.92449  13375481.40649  23742514.1384   23742517.0414
  20880080.524   -26343519.81249 -20509471.93049  20880082.1644   20880086.5824
  24425367.490    -2112912.26849  -1629739.75649  24425366.7834   24425373.0114
  21425810.906   -10809797.07849  -8405685.83249  21425813.3974   21425816.9964
 96  2 12  3 25 59.9990000  0  7  9 20 24  7  5 16  4
  22195215.445    -6657044.75949  -5166227.53849  22195215.4764   22195220.8284
  22725733.050   -15259242.04049 -11873010.64149  22725735.0934   22725739.6854
  20292983.649   -22535291.99649 -17535156.55149  20292985.7154   20292990.5674
  23755560.088    17219820.89949  13428911.74249  23755562.0204   23755564.9874
  20868796.355   -26402816.38949 -20555677.05649  20868798.5394   20868802.7324
  24406008.848    -2214636.19449  -1709005.11349  24406008.9264   24406016.1254
  21437661.808   -10747519.90049  -8357158.16249  21437664.1174   21437668.0824
 96  2 12  3 26 29.9990000  0  7  9 20 24  7  5 16  4
  22208461.028    -6587430.85249  -5111982.96349  22208463.0734   22208467.7244
  22707324.887   -15355986.42049 -11948395.86049  22707325.0714   22707329.8444
  20290408.574   -22548824.78149 -17545701.57349  20290410.2934   20290415.4354
  23768618.356    17288437.54249  13482379.23249  23768619.8094   23768625.0234
  20857580.108   -26461764.54949 -20601610.68749  20857581.2294   20857585.3924
  24386645.783    -2316384.58349  -1788289.53549  24386648.2024   24386653.4244
  21449584.567   -10684871.98349  -8308341.60049  21449585.8034   21449589.3014
 96  2 12  3 26 59.9990000  0  7  9 20 24  7  5 16  4
  22221772.275    -6517475.93049  -5057472.65449  22221775.0704   22221779.3344
  22688950.993   -15452546.13849 -12023637.19549  22688950.3634   22688955.7124
  20287932.046   -22561835.97449 -17555840.16149  20287934.2324   20287939.5534
  23781678.220    17357076.72349  13535864.28949  23781679.9964   23781682.8814
  20846427.492   -26520364.36749 -20647272.88249  20846429.7024   20846434.1534
  24367279.697    -2418163.89749  -1867598.06949  24367279.8004   24367285.6264
  21461573.620   -10621868.50549  -8259247.98749  21461574.8404   21461578.7224
 96  2 12  3 27 29.9990000  0  7  9 20 24  7  5 16  4
  22235147.266    -6447205.22049  -5002716.25949  22235146.3194   22235150.8894
  22670608.880   -15548939.43849 -12098748.85749  22670607.1664   22670612.3504
  20285553.978   -22574337.31949 -17565581.46049  20285555.4494   20285560.5954
  23794737.716    17425711.49549  13589345.89949  23794740.7574   23794745.3934
  20835339.891   -26578629.50149 -20692674.28649  20835342.0144   20835346.6894
  24347900.724    -2519986.89849  -1946940.65349  24347903.0064   24347910.2904
  21473627.410   -10558528.05749  -8209891.79549  21473628.4084   21473632.1204
 96  2 12  3 27 59.9990000  0  7  9 20 24  7  5 16  4
  22248581.419    -6376597.61149  -4947697.37649  22248583.9774   22248587.4994
  22652295.388   -15645168.95749 -12173732.89349  22652295.7034   22652300.3054
  20283272.687   -22586322.23449 -17574920.34949  20283274.5714   20283279.6424
  23807799.383    17494345.11349  13642826.66049  23807801.6174   23807807.6724
  20824318.370   -26636556.34749 -20737812.08749  20824319.1554   20824323.6074
  24328516.869    -2621846.81749  -2026312.04249  24328521.6484   24328525.8454
  21485743.204   -10494852.44549  -8160274.43549  21485745.1684   21485749.1184
 96  2 12  3 28 29.9990000  0  7  9 20 24  7  5 16  4
  22262078.383    -6305669.40449  -4892428.65049  22262080.4934   22262084.5814
  22634011.742   -15741245.17749 -12248597.48049  22634012.7454   22634018.0364
  20281089.251   -22597797.58249 -17583862.17349  20281091.1034   20281095.7504
  23820862.203    17562975.76049  13696305.06549  23820863.6604   23820865.3944
  20813360.560   -26694138.59449 -20782681.36849  20813361.4954   20813366.1144
  24309127.407    -2723752.11149  -2105718.76649  24309128.5024   24309134.6944
  21497924.461   -10430837.30549  -8110392.51349  21497926.9084   21497930.9054
 96  2 12  3 28 59.9990000  0  7  9 20 24  7  5 16  4
  22275636.505    -6234424.03249  -4836912.80649  22275637.6924   22275641.7554
  22615762.441   -15837152.11949 -12323330.16149  22615762.3904   22615767.3514
  20279004.990   -22608749.65249 -17592396.24549  20279007.0694   20279012.0254
  23833928.573    17631643.54149  13749812.42849  23833929.2114   23833933.2714
  20802472.832   -26751350.04449 -20827261.71849  20802474.6424   20802479.1064
  24289726.524    -2825691.70449  -2185152.21249  24289729.8124   24289735.1534
  21510175.128   -10366460.92549  -8060229.10349  21510177.5094   21510181.1504
 96  2 12  3 29 29.9990000  0  7  9 20 24  7  5 16  4
  22289251.287    -6162873.81349  -4781159.40649  22289254.2494   22289257.9014
  22597540.209   -15932896.03849 -12397935.79649  22597542.5804   22597548.3464
  20277018.710   -22619186.47749 -17600528.82849  20277020.8474   20277025.8214
  23847005.972    17700363.59149  13803360.49649  23847006.1944   23847009.3474
  20791656.792   -26808194.98249 -20871556.47549  20791657.4474   20791661.7994
  24270320.079    -2927669.25549  -2264615.25149  24270323.9564   24270329.7494
  21522495.649   -10301719.10749  -8009780.93349  21522497.3704   21522500.9964
 96  2 12  3 29 59.9990000  0  7  9 20 24  7  5 16  4
  22302930.079    -6090993.71749  -4725148.94649  22302931.6784   22302936.7604
  22579358.869   -16028442.75249 -12472387.77749  22579361.2114   22579365.9174
  20275136.502   -22629077.17149 -17608235.86049  20275138.6504   20275143.8784
  23860097.872    17769171.90149  13856977.30849  23860099.7724   23860104.9724
  20780912.475   -26864647.07849 -20915545.12349  20780914.7944   20780919.4744
  24250918.079    -3029642.52949  -2344074.97849  24250919.4614   24250924.7624
  21534890.393   -10236583.35349  -7959025.80149  21534892.1724   21534896.0384
 96  2 12  3 30 29.9990000  0  7  9 20 24  7  5 16  4
  22316659.057    -6018847.33849  -4668931.01549  22316660.4894   22316666.2874
  22561208.587   -16123825.68549 -12546712.12349  22561209.9834   22561215.4214
  20273350.028   -22638467.63349 -17615553.09949  20273352.1584   20273356.7254
  23873201.743    17838037.37249  13910638.72649  23873203.5374   23873208.1084
  20770238.875   -26920744.59749 -20959257.47349  20770239.7384   20770244.2284
  24231506.401    -3131641.31649  -2423554.55049  24231509.1044   24231515.3364
  21547352.903   -10171089.86649  -7907991.91449  21547355.2174   21547359.1454
 96  2 12  3 30 59.9990000  0  7  9 20 24  7  5 16  4
  22330444.568    -5946403.89849  -4612481.59749  22330446.6284   22330451.7214
  22543091.695   -16219035.29549 -12620901.42549  22543092.2004   22543097.4694
  20271659.480   -22647351.68249 -17622475.72949  20271661.1344   20271666.2804
  23886320.725    17906973.38749  13964355.04749  23886323.4464   23886327.8024
  20759632.178   -26976481.93349 -21002689.16249  20759633.2374   20759638.0154
  24212100.880    -3233630.19249  -2503026.37549  24212100.9534   24212107.1404
  21559885.439   -10105233.38049  -7856675.17549  21559887.5404   21559891.1874
 96  2 12  3 31 29.9990000  0  7  9 20 24  7  5 16  4
  22344293.110    -5873633.23849  -4555777.20949  22344294.0034   22344299.2704
  22525007.037   -16314072.69849 -12694956.53449  22525007.5864   22525012.5144
  20270064.141   -22655733.10349 -17629006.70149  20270066.2434   20270071.5774
  23899449.782    17975968.84549  14018117.75549  23899450.8124   23899456.4014
  20749093.297   -27031868.28449 -21045847.35649  20749093.5874   20749098.2694
  24192697.953    -3335596.50149  -2582480.66549  24192698.3144   24192704.0984
  21572485.692   -10039012.89549  -7805074.79949  21572488.6724   21572492.5354
 96  2 12  3 31 59.9990000  0  7  9 20 24  7  5 16  4
  22358204.189    -5800529.52149  -4498813.28749  22358205.3794   22358210.0814
  22506956.018   -16408925.42249 -12768867.73949  22506957.3994   22506962.9254
  20268565.611   -22663607.09749 -17635142.27549  20268567.9144   20268573.1224
  23912588.692    18045013.43449  14071918.69449  23912590.9214   23912593.0594
  20738619.464   -27086910.01249 -21088737.01649  20738619.4044   20738624.1114
  24173297.716    -3437548.92349  -2661924.08749  24173296.9104   24173302.4124
  21585156.771    -9972434.33549  -7753195.40249  21585158.1434   21585161.8684
 96  2 12  3 32 29.9990000  0  7  9 20 24  7  5 16  4
  22372178.266    -5727092.70049  -4441589.81149  22372180.1074   22372185.2824
  22488942.967   -16503589.26749 -12842631.76949  22488943.7084   22488948.0124
  20267163.644   -22670978.84949 -17640886.48849  20267165.3004   20267170.4184
  23925737.047    18114101.00549  14125753.18349  23925738.2064   23925742.2194
  20728210.754   -27141604.91849 -21131356.42249  20728211.4284   20728216.1714
  24153894.384    -3539509.18649  -2741373.60949  24153895.0364   24153901.2634
  21597892.851    -9905501.60449  -7701040.02949  21597895.1974   21597898.8804
 96  2 12  3 32 59.9990000  0  7  9 20 24  7  5 16  4
  22386216.819    -5653320.64649  -4384105.10949  22386218.5444   22386224.1414
  22470969.174   -16598053.63549 -12916240.36849  22470967.8484   22470973.0374
  20265857.722   -22677838.26449 -17646231.48149  20265860.1804   20265864.7894
  23938891.838    18183224.86149  14179615.89749  23938892.3214   23938894.0004
  20717871.392   -27195942.62449 -21173697.48949  20717871.3254   20717875.9684
  24134488.346    -3641483.67049  -2820834.25549  24134488.7364   24134495.4764
  21610696.456    -9838224.22449  -7648616.09349  21610697.5484   21610701.0704
 96  2 12  3 33 29.9990000  0  8  9 20 24  7  5  6 16  4
  22400314.509    -5579233.14949  -4326374.61649  22400316.8544   22400321.7434
  22453029.115   -16692304.03549 -12989682.22949  22453032.7004   22453037.0394
  20264653.410   -22684166.28949 -17651162.40649  20264655.6124   20264660.6354
  23952053.858    18252389.55249  14233510.46449  23952052.9554   23952056.8464
  20707601.266   -27249907.81649 -21215748.28849  20707602.0624   20707606.7244
  24792879.700    -5059592.92759  -3930423.67959  24792879.8684   24792883.9114
  24115080.823    -3743468.26149  -2900302.74649  24115081.6894   24115088.0884
  21623565.916    -9770595.40249  -7595918.30349  21623566.5874   21623570.7574
 96  2 12  3 33 59.9990000  0  8  9 20 24  7  5  6 16  4
  22414466.194    -5504867.50249  -4268427.37049  22414467.1234   22414472.7244
  22435134.694   -16786345.66349 -13062961.41449  22435137.2684   22435142.0104
  20263549.257   -22689969.11349 -17655684.07849  20263551.1714   20263556.6684
  23965218.726    18321580.07649  14287425.15349  23965220.2174   23965225.3924
  20697402.676   -27303496.37449 -21257505.60649  20697404.7144   20697409.3084
  24777508.614    -5140362.86349  -3993361.26649  24777509.6294   24777515.7124
  24095671.888    -3845463.27949  -2979779.35149  24095673.6414   24095678.6894
  21636499.243    -9702624.86249  -7542954.24649  21636501.1884   21636504.7954
 96  2 12  3 34 29.9990000  0  8  9 20 24  7  5  6 16  4
  22428667.764    -5430235.04349  -4210272.22849  22428670.2884   22428675.4134
  22417278.337   -16880194.34949 -13136090.25549  22417277.6414   22417283.2654
  20262541.935   -22695266.69449 -17659812.06049  20262543.2304   20262548.7274
  23978388.319    18390792.16149  14341356.57949  23978389.3114   23978394.9664
  20687279.337   -27356699.28049 -21298962.41849  20687280.3004   20687285.0694
  24762141.857    -5221113.42149  -4056283.72349  24762142.8214   24762148.7624
  24076264.101    -3947461.33249  -3059258.34549  24076262.8204   24076268.0654
  21649495.039    -9634332.41049  -7489739.34949  21649496.8544   21649500.4464
 96  2 12  3 34 59.9990000  0  8  9 20 24  7  5  6 16  4
  22442921.934    -5355334.25249  -4151907.99049  22442923.6374   22442927.7294
  22399453.975   -16973852.26349 -13209070.45049  22399455.5484   22399461.2344
  20261628.557   -22700062.53049 -17663549.07149  20261630.3754   20261635.6964
  23991562.487    18460028.69649  14395307.11349  23991565.2834   23991570.9844
  20677230.737   -27409505.58349 -21340110.18249  20677231.6784   20677236.2754
  24746775.629    -5301856.89649  -4119200.67549  24746777.4874   24746785.2204
  24056858.455    -4049436.86649  -3138719.79849  24056858.9434   24056864.3834
  21662550.521    -9565727.68549  -7436281.12049  21662551.8394   21662555.9164
 96  2 12  3 35 29.9990000  0  8  9 20 24  7  5  6 16  4
  22457226.625    -5280158.57949  -4093329.55149  22457228.3134   22457232.6134
  22381668.554   -17067327.23649 -13281908.08449  22381667.9794   22381672.9714
  20260807.517   -22704373.94749 -17666908.60849  20260809.9194   20260815.1784
  24004740.302    18529285.39149  14449273.33049  24004745.2024   24004747.6264
  20667256.565   -27461920.18149 -21380952.72549  20667257.5864   20667262.0834
  24731412.709    -5382588.66049  -4182108.51949  24731414.2464   24731419.2884
  24037458.544    -4151377.54249  -3218154.10849  24037459.5064   24037465.7474
  21675662.865    -9496819.49949  -7382586.43349  21675664.7734   21675668.4954
 96  2 12  3 35 59.9990000  0  8  9 20 24  7  5  6 16  4
  22471590.188    -5204681.93649  -4034516.60549  22471591.3324   22471595.5124
  22363918.524   -17160591.99449 -13354581.91749  22363920.0844   22363925.3584
  20260079.444   -22708201.29149 -17669890.95149  20260081.5114   20260086.9664
  24017925.257    18598572.04649  14503262.93649  24017929.4124   24017932.9004
  20657360.905   -27513925.95249 -21421476.69949  20657361.2424   20657365.6364
  24716053.582    -5463295.07849  -4244996.59649  24716057.3824   24716059.4854
  24018067.432    -4253282.19449  -3297560.30249  24018068.4074   24018072.9194
  21688832.917    -9427610.39949  -7328657.26449  21688834.6964   21688838.4474
 96  2 12  3 36 29.9990000  0  8  9 20 24  7  5  6 16  4
  22486011.766    -5128897.26349  -3975463.62449  22486013.3824   22486017.0054
  22346215.053   -17253631.70849 -13427080.38449  22346214.7164   22346220.2964
  20259444.845   -22711536.90949 -17672490.13149  20259447.4064   20259452.4704
  24031121.918    18667906.09849  14557289.38949  24031123.4904   24031128.1524
  20647540.825   -27565524.55649 -21461683.40249  20647542.3804   20647546.6944
  24700702.733    -5543974.79449  -4307863.80349  24700704.3404   24700709.4764
  23998685.494      -78114.15619
  21702057.886    -9358112.45249  -7274503.02149  21702059.8744   21702063.4334
 96  2 12  3 36 59.9990000  0  8  9 20 24  7  5  6 16  4
  22500489.978    -5052816.12949  -3916179.63049  22500490.6234   22500495.7494
  22328552.291   -17346443.07149 -13499400.91449  22328553.4234   22328558.7234
  20258904.741   -22714377.79049 -17674703.79949  20258906.3504   20258911.3744
  24044325.609    18737291.62649  14611356.06849  24044327.4004   24044331.5064
  20637797.963   -27616715.89149 -21501572.75249  20637800.9544   20637805.4854
  24685358.458    -5624611.39949  -4370697.52049  24685358.9554   24685365.5384
  23979301.649     -179951.678 9
  21715338.211    -9288324.53349  -7220122.82149  21715340.0604   21715343.6064
 96  2 12  3 37 29.9990000  0  8  9 20 24  7  5  6 16  4
  22515020.376    -4976454.33749  -3856676.96049  22515021.8254   22515026.0494
  22310932.470   -17439027.54149 -13571544.64549  22310934.8754   22310940.7844
  20258457.222   -22716727.95949 -17676535.09449  20258459.2534   20258464.4374
  24057538.093    18806728.27649  14665462.47449  24057540.5694   24057545.4674
  20628133.663   -27667514.13349 -21541155.79349  20628134.3174   20628138.7514
  24670024.084    -5705201.11049  -4433494.70249  24670024.1344   24670031.2614
  23959929.418     -281776.37259   -196479.63459  23959927.7184   23959933.7984
  21728673.127    -9218246.35149  -7165516.44649  21728675.2694   21728679.2054
 96  2 12  3 37 59.9990000  0  8  9 20 24  7  5  6 16  4
  22529602.868    -4899824.33849  -3796965.28649  22529604.4134   22529608.7384
  22293363.636   -17531370.45149 -13643500.15949  22293362.8864   22293368.6644
  20258106.258   -22718573.54749 -17677973.21249  20258108.1494   20258113.1404
  24070763.843    18876227.22349  14719617.52349  24070765.2584   24070770.7884
  20618543.875   -27717904.32449 -21580420.87549  20618545.2954   20618549.9124
  24654695.833    -5785736.93949  -4496249.87149  24654699.1074   24654702.8824
  23940552.291     -383588.68559   -275813.92059  23940552.3044   23940559.0734
  21742066.339    -9147866.89149  -7110675.31449  21742068.1504   21742071.9364
 96  2 12  3 38 29.9990000  0  8  9 20 24  7  5  6 16  4
  22544231.219    -4822947.63449  -3737061.37949  22544233.7404   22544236.8374
  22275831.829   -17623499.10849 -13715288.71949  22275831.5384   22275837.2004
  20257850.838   -22719917.06049 -17679020.10249  20257852.4354   20257857.4244
  24084002.806    18945791.07549  14773823.02249  24084003.5374   24084008.2194
  20609030.103   -27767896.84549 -21619376.08449  20609031.9214   20609036.7364
  24639379.520    -5866226.62949  -4558969.07949  24639383.0364   24639388.5484
  23921183.657     -485373.85349   -355126.99349  23921184.3254   23921189.8514
  21755517.032    -9077180.50649  -7055595.02049  21755519.4274   21755523.1614
 96  2 12  3 38 59.9990000  0  8  9 20 24  7  5  6 16  4
  22558910.556    -4745817.73949  -3676960.18449  22558911.1894   22558915.2324
  22258339.357   -17715412.06749 -13786909.19649  22258341.5834   22258346.7194
  20257690.923   -22720754.03049 -17679672.28249  20257693.1844   20257698.2004
  24097251.783    19015418.65949  14828078.29549  24097252.4874   24097257.7294
  20599594.129   -27817488.47849 -21658018.91349  20599595.2074   20599599.8954
  24624078.360    -5946650.69449  -4621637.20149  24624078.5824   24624080.8434
  23901821.922     -587112.91249   -434404.11949  23901824.8954   23901829.4734
  21769033.656    -9006154.53749  -7000250.11049  21769035.1524   21769038.9794
 96  2 12  3 39 29.9990000  0  8  9 20 24  7  5  6 16  4
  22573631.747    -4668451.47549  -3616674.79349  22573633.1534   22573637.7914
  22240890.231   -17807118.98849 -13858369.12349  22240889.9294   22240895.4664
  20257625.850   -22721096.59249 -17679939.20949  20257628.1804   20257632.9184
  24110506.181    19085076.04149  14882356.71449  24110508.9714   24110512.8604
  20590228.565   -27866704.85649 -21696369.33549  20590229.6314   20590234.3204
  24608780.281    -6027039.16049  -4684277.51449  24608780.9154   24608784.5784
  23882467.439     -688817.75549   -513654.58049  23882469.7894   23882475.9054
  21782613.048    -8934796.95649  -6944646.79749  21782614.0594   21782617.5744
 96  2 12  3 39 59.9990000  0  8  9 20 24  7  5  6 16  4
  22588399.321    -4590835.40149  -3556194.74749  22588402.3404   22588406.5934
  22223476.898   -17898609.15749 -13929660.16649  22223479.8604   22223484.9054
  20257658.053   -22720928.49749 -17679808.22049  20257660.1194   20257664.7454
  24123767.642    19154767.68849  14936661.89849  24123770.7744   24123774.1994
  20580936.548   -27915533.98449 -21734418.00349  20580937.7964   20580942.3394
  24593490.729    -6107383.29549  -4746883.35149  24593491.2684   24593493.8344
  23863126.811     -790463.21149   -592858.80649  23863126.3744   23863132.7514
  21796256.100    -8863096.41449  -6888776.24649  21796258.4414   21796262.0694
 96  2 12  3 40 29.9990000  0  8  9 20 24  7  5  6 16  4
  22603216.038    -4512978.33149  -3495526.91749  22603218.5764   22603222.1224
  22206108.512   -17989895.16449 -14000792.11349  22206108.7644   22206113.7194
  20257785.080   -22720260.49949 -17679287.69649  20257787.2454   20257791.7734
  24137035.135    19224482.51549  14990985.09149  24137037.3134   24137041.2784
  20571714.483   -27963997.12449 -21772181.49049  20571715.6204   20571720.2054
  24578207.197    -6187695.27649  -4809464.11749  24578209.6464   24578212.8464
  23843793.212     -892051.52949   -672018.51349  23843794.7084   23843801.3194
  21809961.782    -8791069.58149  -6832651.44249  21809964.4934   21809968.2164
 96  2 12  3 40 59.9990000  0  8  9 20 24  7  5  6 16  4
  22618079.369    -4434872.64649  -3434665.36749  22618081.9824   22618086.4204
  22188777.126   -18080965.43049 -14071755.95349  22188778.7414   22188783.4514
  20258005.303   -22719105.11449 -17678387.39649  20258006.9214   20258011.9484
  24150304.057    19294213.76849  15045321.14949  24150304.8704   24150308.4614
  20562562.839   -28012089.30249 -21809655.91149  20562563.8974   20562568.4624
  24562929.565    -6267976.03749  -4872020.50949  24562932.9224   24562937.6094
  23824469.314     -993602.45149   -751149.02849  23824471.2004   23824477.0784
  21823725.348    -8718746.55349  -6776295.83249  21823726.9044   21823730.6364
 96  2 12  3 41 29.9990000  0  8  9 20 24  7  5  6 16  4
  22632990.172    -4356517.72249  -3373609.59849  22632991.3204   22632997.0844
  22171487.204   -18171824.03849 -14142554.86749  22171489.0794   22171494.2084
  20258315.094   -22717475.62249 -17677117.65549  20258317.2074   20258322.0034
  24163577.165    19363959.50849  15099668.40449  24163578.7754   24163581.6514
  20553483.076   -28059801.86349 -21846834.53049  20553484.6854   20553489.1944
  24547656.730    -6348248.45649  -4934570.42249  24547655.8694   24547662.1274
  23805149.898    -1095135.61349   -830265.77249  23805150.8714   23805156.6714
  21837536.658    -8646171.41849  -6719743.77949  21837537.3194   21837541.3574
 96  2 12  3 41 59.9990000  0  8  9 20 24  7  5  6 16  4
  22647953.588    -4277877.71849  -3312331.69649  22647957.1394   22647962.3644
  22154242.383   -18262446.90949 -14213170.08549  22154243.8624   22154248.7884
  20258719.617   -22715349.95549 -17675461.29049  20258721.4494   20258726.2274
  24176858.762    19433753.38449  15154053.25749  24176859.1784   24176863.3914
  20544484.501   -28107093.88549 -21883685.45149  20544485.0884   20544489.7444
  24532387.894    -6428474.47149  -4997084.16049  24532389.3234   24532392.6124
  23785839.151    -1196621.54949   -909345.72049  23785839.0594   23785843.8914
  21851396.186    -8573334.32049  -6662987.59349  21851398.1844   21851401.9364
 96  2 12  3 42 29.9990000  0  8  9 20 24  7  5  6 16  4
  22662974.225    -4198955.39149  -3250833.78649  22662974.8904   22662979.6064
  22137046.029   -18352823.84849 -14283593.67149  22137045.8784   22137050.7864
  20259217.465   -22712736.44249 -17673424.78549  20259218.8434   20259223.5984
  24190147.171    19503596.10249  15208476.12249  24190149.9194   24190154.7664
  20535565.688   -28153956.80849 -21920202.01549  20535567.4054   20535572.0884
  24517130.224    -6508662.24749  -5059568.11649  24517129.5104   24517135.7024
  23766533.249    -1298072.00949   -988398.02349  23766532.0254   23766538.6534
  21865303.313    -8500243.64049  -6606033.82249  21865306.7454   21865310.5804
 96  2 12  3 42 59.9990000  0  8  9 20 24  7  5  6 16  4
  22678046.731    -4119739.93049  -3189107.47649  22678049.4554   22678054.1184
  22119894.844   -18442947.62249 -14353819.98649  22119895.8594   22119900.4034
  20259807.743   -22709630.58649 -17671004.63449  20259809.6124   20259814.4544
  24203448.977    19573488.99149  15262938.08049  24203450.6374   24203454.3834
  20526733.442   -28200372.68349 -21956370.22749  20526734.7744   20526739.2334
  24501877.805    -6588811.80849  -5122022.29749  24501878.3274   24501882.8074
  23747235.427    -1399479.10649  -1067416.53249  23747235.2004   23747242.2964
  21879265.319    -8426876.41149  -6548864.55449  21879268.0284   21879271.7264
 96  2 12  3 43 29.9990000  0  8  9 20 24  7  5  6 16  4
  22693168.501    -4040274.11549  -3127186.06749  22693170.7924   22693176.6304
  22102789.913   -18532836.36949 -14423863.16249  22102790.5684   22102795.2264
  20260491.965   -22706034.77149 -17668202.69649  20260494.1674   20260499.0624
  24216753.651    19643411.45349  15317423.07849  24216755.9924   24216762.3324
  20517982.228   -28246363.87149 -21992207.51349  20517983.0234   20517987.4774
  24486626.760    -6668948.52749  -5184466.43749  24486629.8684   24486633.9744
  23727943.882    -1500841.15749  -1146399.93349  23727946.3204   23727952.8384
  21893281.787    -8353230.77549  -6491478.34249  21893282.5374   21893285.9034
 96  2 12  3 43 59.9990000  0  8  9 20 24  7  5  6 16  4
  22708338.120    -3960562.79449  -3065073.37349  22708339.8204   22708345.2044
  22085734.118   -18622459.31749 -14493699.23449  22085735.9734   22085740.6864
  20261272.884   -22701931.60849 -17665005.42049  20261275.1294   20261279.9774
  24230069.249    19713386.87449  15371949.34849  24230072.5024   24230077.0584
  20509312.855   -28291914.19049 -22027701.26949  20509315.0384   20509319.5514
  24471386.663    -6749040.07749  -5246875.43049  24471388.2014   24471393.2194
  23708674.084    -1602111.03949  -1225311.50649  23708677.0704   23708681.3774
  21907356.857    -8279259.56749  -6433838.44049  21907358.5684   21907362.2054
 96  2 12  3 44 29.9990000  0  8  9 20 24  7  5  6 16  4
  22723549.668    -3880635.71749  -3002792.53349  22723549.8844   22723556.4764
  22068729.785   -18711825.41149 -14563335.14849  22068730.1724   22068734.9314
  20262146.563   -22697342.28249 -17661429.31849  20262148.3024   20262152.9034
  24243397.273    19783417.12149  15426518.36549  24243399.2074   24243404.0314
  20500726.065   -28337041.08949 -22062865.08449  20500727.6484   20500732.2124
  24456152.144    -6829106.95149  -5309265.15249  24456153.5294   24456155.7354
  23689423.988    -1703286.05949  -1304149.19249  23689424.4624   23689428.9324
  21921494.299    -8204967.03649  -6375948.15649  21921495.8674   21921499.4674
 96  2 12  3 44 59.9990000  0  8  9 20 24  7  5  6 16  4
  22738799.440    -3800486.68749  -2940338.77949  22738800.5704   22738805.9784
  22051773.905   -18800927.34949 -14632765.22349  22051774.7784   22051779.5134
  20263115.175   -22692250.38649 -17657461.60649  20263117.1454   20263122.2634
  24256737.171    19853521.02849  15481144.69249  24256739.2264   24256744.3664
  20492220.840   -28381736.11249 -22097692.37649  20492222.2284   20492227.0874
  24440922.474    -6909130.60149  -5371621.21549  24440922.4404   24440930.9494
  23670192.797    -1804333.60649  -1382887.50549  23670194.0124   23670199.7974
  21935694.036    -8130346.45849  -6317802.25549  21935695.8164   21935699.3974
 96  2 12  3 45 29.9990000  0  8  9 20 24  7  5  6 16  4
  22754087.472    -3720147.88349  -2877737.12349  22754089.8154   22754094.8864
  22034862.983   -18889783.62749 -14702003.87949  22034865.6614   22034870.8224
  20264172.262   -22686695.20149 -17653132.88349  20264174.5074   20264179.1774
  24270087.167    19923675.32349  15535810.34449  24270088.8524   24270093.4314
  20483791.056   -28426036.76049 -22132212.35949  20483792.3654   20483796.9454
  24425697.147    -6989133.32549  -5433960.96549  24425698.7064   24425704.0404
  23650986.745    -1905273.27149  -1461541.76649  23650987.7674   23650991.7204
  21949947.442    -8055448.65249  -6259440.32249  21949948.6094   21949952.2734
 96  2 12  3 45 59.9990000  0  8  9 20 24  7  5  6 16  4
  22769419.697    -3639578.09049  -2814955.47849  22769421.1704   22769425.7504
  22018008.128   -18978368.87049 -14771031.34849  22018008.7974   22018013.1804
  20265319.042   -22680668.14449 -17648436.47049  20265321.2294   20265325.8684
  24283450.344    19993891.66549  15590524.28749  24283450.2704   24283456.1064
  20475439.201   -28469922.12349 -22166408.74549  20475441.3294   20475445.7344
  24410482.771    -7069091.53149  -5496266.00549  24410483.4854   24410491.0164
  23631799.472    -2006088.66149  -1540099.19849  23631800.8564   23631807.0184
  21964254.929    -7980259.95249  -6200851.72949  21964256.5224   21964260.2084
 96  2 12  3 46 29.9990000  0  8  9 20 24  7  5  6 16  4
  22784794.982    -3558777.24349  -2751993.80849  22784796.6594   22784801.3344
  22001195.999   -19066711.10449 -14839869.44449  22001197.4054   22001202.0524
  20266556.762   -22674167.13349 -17643370.74549  20266558.3074   20266563.2794
  24296817.168    20064141.90949  15645264.69749  24296819.3774   24296824.1324
  20467163.594   -28513416.07149 -22200300.13049  20467164.8074   20467169.2184
  24395269.836    -7149037.03349  -5558561.24049  24395271.0954   24395277.3714
  23612633.718    -2106816.71849  -1618588.51249  23612632.1664   23612640.2654
  21978610.377    -7904820.07249  -6142067.41149  21978612.2234   21978615.8104
 96  2 12  3 46 59.9990000  0  7  9 20 24  5  6 16  4
  22800215.285    -3477746.37149  -2688852.87649  22800216.1974   22800220.6034
  21984435.876   -19154800.72949 -14908510.70649  21984434.7054   21984439.3724
  20267884.798   -22667183.83249 -17637929.20949  20267887.4894   20267891.9644
  20458960.716   -28556525.23849 -22233891.69049  20458961.3594   20458965.6784
  24380060.402    -7228960.56349  -5620839.28049  24380062.4194   24380068.2574
  23593479.403    -2207467.81049  -1697017.90049  23593480.2164   23593485.6204
  21993012.063    -7829144.05749  -6083099.08749  21993012.7414   21993016.3544
 96  2 12  3 47 29.9990000  0  7  9 20 24  5  6 16  4
  22815680.308    -3396477.21749  -2625526.29149  22815681.2504   22815684.3464
  21967723.017   -19242618.67949 -14976940.27349  21967723.6674   21967728.4344
  20269307.108   -22659713.76449 -17632108.37249  20269308.8344   20269313.6054
  20450834.564   -28599219.97549 -22267160.31549  20450836.7084   20450840.8644
  24364859.737    -7308843.46849  -5683085.62249  24364861.6444   24364868.3224
  23574342.907    -2308035.80249  -1775382.53249  23574340.1824   23574347.8964
  22007459.073    -7753216.47749  -6023934.73949  22007461.1164   22007465.0564
 96  2 12  3 47 59.9990000  0  7  9 20 24  5  6 16  4
  22831184.743    -3314998.68049  -2562036.53049  22831187.3584   22831191.5564
  21951060.827   -19330188.23649 -15045176.29549  21951059.7864   21951064.5844
  20270820.016   -22651761.17449 -17625911.54449  20270822.0764   20270827.2714
  20442789.291   -28641502.49849 -22300107.73449  20442790.6984   20442794.8114
  24349661.415    -7388697.03649  -5745309.22049  24349666.2154   24349670.5774
  23555213.754    -2408544.10949  -1853700.65449  23555217.9064   23555222.2514
  22021953.567    -7677051.30049  -5964585.25349  22021954.9534   22021958.5584
 96  2 12  3 48 29.9990000  0  7  9 20 24  5  6 16  4
  22846731.109    -3233309.05149  -2498382.28949  22846732.0234   22846735.4034
  21934444.835   -19417491.53549 -15113204.83349  21934446.1054   21934451.1164
  20272427.795   -22643311.13949 -17619327.10049  20272430.2094   20272434.8074
  20434829.108   -28683339.00949 -22332707.61549  20434829.4744   20434833.5314
  24334480.023    -7468495.96449  -5807490.15749  24334479.9814   24334485.2564
  23536105.328    -2508971.43049  -1931955.76249  23536106.8184   23536112.2194
  22036496.491    -7600626.98449  -5905033.84249  22036497.7024   22036501.4744
 96  2 12  3 48 59.9990000  0  7  9 20 24  5  6 16  4
  22862308.580    -3151435.89849  -2434585.05149  22862311.6124   22862318.7884
  21917879.423   -19504541.44349 -15181035.92349  21917881.2054   21917886.0674
  20274122.208   -22634407.26749 -17612389.01749  20274124.2484   20274129.1834
  20426953.226   -28724723.94749 -22364955.61749  20426953.9544   20426958.2614
  24319300.371    -7548248.89649  -5869635.22649  24319303.0744   24319308.7544
  23517009.785    -2609319.74949  -2010149.23149  23517008.8624   23517016.2574
  22051088.390    -7523953.21849  -5845288.04449  22051088.6284   22051092.3564
 96  2 12  3 49 29.9990000  0  7  9 20 24  5  6 16  4
  22877929.613    -3069361.12049  -2370630.68849  22877930.3964   22877933.6124
  21901364.737   -19591332.80249 -15248665.55249  21901365.6554   21901370.5184
  20275906.206   -22625032.19649 -17605083.76349  20275908.2614   20275913.4884
  20419171.095   -28765625.94249 -22396827.30149  20419170.6884   20419175.0234
  24304137.218    -7627947.08449  -5931737.78449  24304137.4004   24304142.8374
  23497931.753    -2709571.96049  -2088267.80749  23497934.5874   23497939.0684
  22065728.773    -7447005.00849  -5785328.40249  22065731.3204   22065734.6594
 96  2 12  3 49 59.9990000  0  7  9 20 24  5  6 16  4
  22893584.660    -2987089.76449  -2306523.13049  22893585.7344   22893592.0264
  21884898.612   -19677863.85749 -15316092.34949  21884899.1084   21884903.8834
  20277780.862   -22615181.16349 -17597407.62749  20277782.6994   20277787.7094
  20411473.873   -28806066.50749 -22428339.43149  20411475.2204   20411479.5024
  24288975.838    -7707608.42949  -5993811.49549  24288978.0674   24288984.0164
  23478870.707    -2809730.26849  -2166313.22649  23478871.4104   23478880.4134
  22080422.110    -7369791.81449  -5725162.27749  22080424.4774   22080427.8304
 96  2 12  3 50 29.9990000  0  7  9 20 24  5  6 16  4
  22909278.846    -2904607.14649  -2242250.99649  22909281.3854   22909286.4274
  21868484.371   -19764112.54649 -15383299.10949  21868486.7184   21868491.4294
  20279746.433   -22604851.18249 -17589358.28649  20279748.9114   20279753.7924
  20403866.496   -28846040.99049 -22459488.37649  20403868.2044   20403872.5134
  24273823.561    -7787230.84849  -6055854.92749  24273827.3014   24273831.0344
  23459836.010    -2909766.33749  -2244263.35849  23459839.2024   23459846.0464
  22095166.899    -7292313.17849  -5664789.31949  22095168.4204   22095171.8814
 96  2 12  3 50 59.9990000  0  7  9 20 24  5  6 16  4
  22925015.351    -2821920.24049  -2177819.65549  22925016.6644   22925021.8374
  21852129.228   -19850074.50849 -15450282.44349  21852128.4164   21852133.5694
  20281804.034   -22594040.52049 -17580934.39249  20281805.7644   20281810.6044
  20396346.084   -28885562.68749 -22490284.49949  20396347.5494   20396351.9594
  24258682.516    -7866815.17349  -6117868.67549  24258682.7454   24258686.6654
  23440825.606    -3009682.40949  -2322120.04049  23440822.5564   23440829.5384
  22109959.187    -7214582.49549  -5604219.95449  22109959.6884   22109963.8824
 96  2 12  3 51 29.9990000  0  7  9 20 24  5  6 16  4
  22940782.906    -2739062.18149  -2113254.96649  22940784.1724   22940787.9634
  21835822.514   -19935758.68849 -15517049.33649  21835823.0944   21835828.7054
  20283950.691   -22582762.63349 -17572146.42249  20283952.0494   20283957.1104
  20388905.550   -28924665.87449 -22520754.51249  20388906.3744   20388910.8434
  24243540.385    -7946380.42449  -6179867.53149  24243539.9104   24243546.5714
  23421824.749    -3109504.36949  -2399903.38349  23421827.6824   23421833.7134
  22124792.682    -7136620.85949  -5543470.63449  22124795.7564   22124798.8774
 96  2 12  3 51 59.9990000  0  7  9 20 24  5  6 16  4
  22956588.240    -2656001.15049  -2048532.10649  22956591.3044   22956593.3154
  21819575.437   -20021133.03449 -15583574.78949  21819577.4844   21819582.2204
  20286187.418   -22571004.77549 -17562984.45349  20286189.2014   20286194.5794
  20381550.008   -28963321.39149 -22550875.69349  20381550.6054   20381554.9834
  24228406.654    -8025900.44849  -6241831.19149  24228409.2814   24228414.9934
  23402854.686    -3209189.65249  -2477580.24349  23402858.2244   23402864.5954
  22139676.663    -7058408.99949  -5482526.33649  22139678.5664   22139682.8764
 96  2 12  3 52 29.9990000  0  7  9 20 24  5  6 16  4
  22972430.777    -2572746.82649  -1983658.62349  22972432.1224   22972439.9434
  21803385.547   -20106222.98549 -15649878.65249  21803385.0984   21803390.3454
  20288510.033   -22558799.91049 -17553474.16849  20288511.9284   20288516.7374
  20374279.172   -29001526.48749 -22580645.89649  20374280.4144   20374284.6734
  24213283.901    -8105383.46149  -6303766.00249  24213283.3164   24213291.7934
  23383914.637    -3308744.74449  -2555155.63049  23383914.3744   23383919.1114
  22154605.672    -6979962.79349  -5421399.42149  22154606.6094   22154610.6564
 96  2 12  3 52 59.9990000  0  7  9 20 24  5  6 16  4
  22988313.445    -2489299.61249  -1918634.79049  22988311.6644   22988317.8594
  21787245.370   -20191028.19249 -15715960.62449  21787247.3154   21787252.1394
  20290917.429   -22546146.14649 -17543614.08749  20290919.6934   20290924.5564
  20367098.573   -29039266.32549 -22610053.56049  20367098.7384   20367103.3254
  24198167.073    -8184818.86049  -6365663.68549  24198168.2764   24198175.8004
  23364993.303    -3408177.69749  -2632635.82849  23364991.0614   23365000.0334
  22169579.180    -6901275.55249  -5360084.68849  22169580.3844   22169584.1114
 96  2 12  3 53 29.9990000  0  7  9 20 24  5  6 16  4
  23004230.719    -2405643.46249  -1853448.21149  23004232.4734   23004236.1824
  21771162.550   -20275548.88349 -15781820.89049  21771163.4144   21771168.6054
  20293410.320   -22533044.38749 -17533404.91849  20293413.0074   20293417.7544
  20360004.597   -29076539.29549 -22639097.42949  20360005.9394   20360010.3864
  24183059.540    -8264210.22649  -6427527.02449  24183061.3534   24183066.5314
  23346094.308    -3507471.51349  -2710007.59049  23346097.7434   23346104.4634
  22184597.022    -6822348.43649  -5298583.03949  22184599.7074   22184603.4694
 96  2 12  3 53 59.9990000  0  7  9 20 24  5  6 16  4
  23020185.763    -2321779.96949  -1788100.06349  23020189.6104   23020194.6374
  21755130.297   -20359791.67649 -15847464.60949  21755132.4944   21755137.2654
  20295988.331   -22519497.58949 -17522848.97049  20295990.7944   20295995.7754
  20352998.426   -29113350.85249 -22667781.76049  20353000.9064   20353005.3774
  24167957.915    -8343567.72549  -6489364.04349  24167958.3214   24167963.4084
  23327227.200    -3606630.38549  -2787274.24449  23327226.5094   23327234.5264
  22199659.742    -6743195.00949  -5236905.04649  22199662.0934   22199665.6254
 96  2 12  3 54 29.9990000  0  7  9 20 24  5  6 16  4
  23036182.451    -2237723.89549  -1722601.82749  23036185.2584   23036191.2204
  21739156.786   -20443739.62249 -15912878.59749  21739157.6024   21739162.7634
  20298655.833   -22505483.62849 -17511928.99549  20298657.6344   20298662.6274
  20346080.132   -29149702.26349 -22696107.53549  20346083.3614   20346087.5474
  24152867.163    -8422874.32149  -6551161.35049  24152867.9564   24152871.9744
  23308384.085    -3705651.03849  -2864433.17849  23308386.0604   23308390.3474
  22214767.193    -6663806.97449  -5175044.24749  22214769.0704   22214773.1514
 96  2 12  3 54 59.9990000  0  7  9 20 24  5  6 16  4
  23052210.768    -2153511.52849  -1656981.82149  23052210.6094   23052215.5574
  21723234.073   -20527406.44849 -15978073.51549  21723236.1344   21723241.6564
  20301409.102   -22491016.95549 -17500656.26249  20301410.6964   20301415.5764
  20339245.856   -29185628.20449 -22724101.77449  20339246.9164   20339251.2774
  24137781.483    -8502148.59849  -6612933.51449  24137782.2164   24137784.2264
  23289559.932    -3804565.34649  -2941509.28049  23289563.5704   23289568.3844
  22229914.946    -6584205.33449  -5113016.99349  22229916.3604   22229920.7084
 96  2 12  3 55 29.9990000  0  7  9 20 24  5  6 16  4
  23068268.300    -2069116.87949  -1591219.75849  23068270.6524   23068274.2704
  21707371.826   -20610754.51049 -16043020.04649  21707375.7754   21707380.6564
  20304252.795   -22476071.37849 -17489010.35349  20304254.6984   20304259.3004
  20332494.178   -29221105.20149 -22751746.18349  20332495.6754   20332500.1284
  24122702.252    -8581373.13449  -6674666.87049  24122706.6294   24122710.0504
  23270763.659    -3903337.86249  -3018474.85449  23270766.3124   23270772.5584
  22245107.955    -6504353.90149  -5050795.09949  22245111.9894   22245115.7814
 96  2 12  3 55 59.9990000  0  7  9 20 24  5  6 16  4
  23084359.702    -1984560.61349  -1525331.79249  23084360.9564   23084364.0804
  21691574.619   -20693785.36349 -16107719.41649  21691575.9064   21691580.7894
  20307187.607   -22460649.95549 -17476993.65849  20307189.1794   20307194.1994
  20325831.589   -29256125.38149 -22779034.63749  20325831.6374   20325835.9104
  24107638.035    -8660556.30849  -6736368.05449  24107639.9364   24107644.2484
  23251994.046    -4001986.12649  -3095343.67249  23251994.3434   23252000.8544
  22260352.283    -6424254.78049  -4988380.20349  22260354.2394   22260357.9234
 96  2 12  3 56 29.9990000  0  7  9 20 24  5  6 16  4
  23100480.213    -1899846.32049  -1459320.67449  23100480.0374   23100485.3834
  21675836.435   -20776504.30449 -16172175.73149  21675835.1354   21675839.6374
  20310208.929   -22444771.48649 -17464620.82449  20310210.7414   20310215.4174
  20319253.339   -29290689.93549 -22805968.05849  20319254.2774   20319258.6844
  24092571.858    -8739710.66649  -6798046.72949  24092575.0264   24092578.0844
  23233244.310    -4100512.60349  -3172117.47249  23233245.6214   23233253.5394
  22275639.818    -6343921.03349  -4925782.48049  22275641.9834   22275645.4524
 96  2 12  3 56 59.9990000  0  7  9 20 24  5  6 16  4
  23116626.403    -1814990.75249  -1393199.46949  23116629.7544   23116633.2494
  21660147.102   -20858938.83049 -16236410.41749  21660148.0994   21660152.8294
  20313311.828   -22428468.23949 -17451916.99049  20313313.1644   20313318.0214
  20312758.935   -29324822.30849 -22832564.70949  20312759.1504   20312763.5064
  24077509.748    -8818875.00949  -6859733.21349  24077512.4884   24077513.7934
  23214515.704    -4198936.76849  -3248811.61849  23214515.1454   23214522.8734
  22290966.324    -6263372.14949  -4863017.11249  22290969.2534   22290973.0214
 96  2 12  3 57 29.9990000  0  7  9 20 24  5  6 16  4
  23132807.228    -1729968.31349  -1326948.22249  23132807.8394   23132813.3414
  21644520.685   -20941064.10849 -16300404.14649  21644519.9704   21644524.7524
  20316499.608   -22411713.42849 -17438861.29649  20316501.7924   20316506.3494
  20306350.162   -29358499.53049 -22858806.70749  20306350.6444   20306355.0714
  24062446.748    -8898037.55949  -6921418.30249  24062447.3644   24062453.3134
  23195812.447    -4297217.00249  -3325393.57949  23195815.7564   23195817.9264
  22306339.761    -6182596.28449  -4800074.87949  22306340.7244   22306343.9094
 96  2 12  3 57 59.9990000  0  7  9 20 24  5  6 16  4
  23149013.900    -1644798.90049  -1260582.46149  23149016.4264   23149020.0434
  21628946.229   -21022895.61349 -16364168.94249  21628947.8984   21628953.0504
  20319771.758   -22394519.63149 -17425463.53349  20319773.5134   20319778.0624
  20300024.763   -29391733.75549 -22884703.50549  20300026.3784   20300030.7154
  24047380.476    -8977200.73849  -6983103.86249  24047383.4174   24047388.6814
  23177135.304    -4395354.62549  -3401864.47849  23177137.8674   23177142.7424
  22321747.808    -6101619.91749  -4736976.41649  22321750.0054   22321753.1894
 96  2 12  3 58 29.9990000  0  7  9 20 24  5  6 16  4
  23165248.936    -1559483.12049  -1194102.64649  23165249.4054   23165254.5714
  21613431.678   -21104425.45449 -16427698.69349  21613433.6834   21613438.8384
  20323126.464   -22376892.74249 -17411728.29349  20323127.7534   20323132.6554
  20293785.189   -29424525.30649 -22910255.36849  20293786.4914   20293790.4864
  24032317.601    -9056352.10749  -7044780.22949  24032319.9084   24032327.2744
  23158494.268    -4493325.35549  -3478205.30549  23158496.3594   23158503.4154
  22337195.128    -6020443.20749  -4673721.83549  22337197.0874   22337200.9414
 96  2 12  3 58 59.9990000  0  7  9 20 24  5  6 16  4
  23181511.220    -1474018.38649  -1127506.76749  23181514.0574   23181519.1204
  21597974.037   -21185643.94649 -16490985.82149  21597977.8164   21597983.0084
  20326564.929   -22358818.78349 -17397644.68349  20326567.2924   20326571.7244
  20287633.034   -29456853.25549 -22935445.97949  20287634.3564   20287638.9774
  24017265.200    -9135461.27449  -7106423.69049  24017265.8354   24017267.9974
  23139889.753    -4591108.87649  -3554400.21049  23139889.0494   23139895.9104
  22352682.333    -5939057.04449  -4610304.05449  22352684.7304   22352688.0134
 96  2 12  3 59 29.9990000  0  7  9 20 24  5  6 16  4
  23197807.660    -1388387.94349  -1060781.74649  23197807.7644   23197813.7814
  21582586.597   -21266517.38649 -16554004.08649  21582588.1944   21582593.5234
  20330091.742   -22340285.51449 -17383203.17749  20330093.7274   20330098.4474
  20281576.137   -29488679.94549 -22960246.00049  20281578.1194   20281582.3844
  24002223.954    -9214499.65549  -7168012.03249  24002225.5434   24002230.1224
  23121319.394    -4688684.48549  -3630433.20449  23121319.8294   23121323.6644
  22368211.858    -5857455.81249  -4546718.67949  22368212.4834   22368216.3074
 96  2 12  3 59 59.9990000  0  7  9 20 24  5  6 16  4
  23214125.726    -1302620.46049   -993949.96149  23214129.3924   23214135.0834
  21567260.212   -21347066.63149 -16616769.72649  21567260.2034   21567265.3434
  20333699.752   -22321326.10049 -17368429.60449  20333701.7894   20333706.6634
  20275613.442   -29520016.55349 -22984664.13949  20275615.0594   20275619.4374
  23987193.860    -9293474.13149  -7229550.58349  23987198.9284   23987205.0564
  23102785.591    -4786083.71349  -3706328.70649  23102786.3074   23102791.0144
  22383773.811    -5775669.82149  -4482989.33449  22383776.1934   22383779.4084
 96  2 12  4  0 29.9990000  0  7  9 20 24  5  6 16  4
  23230475.336    -1216712.72849   -927008.88149  23230477.1354   23230482.5124
  21551991.539   -21427291.10149 -16679282.29749  21551993.9424   21551998.6774
  20337390.535   -22301934.20649 -17353319.03649  20337392.2144   20337396.5854
  20269744.075   -29550862.92749 -23008700.28049  20269744.9594   20269749.3674
  23972179.035    -9372380.29949  -7291035.86149  23972180.5724   23972189.0744
  23084285.330    -4883306.62749  -3782086.80049  23084284.7474   23084292.5834
  22399372.028    -5693699.33249  -4419116.22249  22399374.0264   22399378.2174
 96  2 12  4  0 59.9990000  0  7  9 20 24  5  6 16  4
  23246844.276    -1130693.38549   -859980.85249  23246846.7104   23246850.9494
  21536787.937   -21507207.68249 -16741554.95949  21536786.5744   21536791.7154
  20341159.415   -22282125.85249 -17337883.95449  20341161.3274   20341166.2674
  20263962.828   -29581241.52349 -23032371.91649  20263964.2094   20263968.5064
  23957171.280    -9451245.02349  -7352488.86349  23957173.0624   23957176.9854
  23065810.055    -4980378.52849  -3857727.20349  23065812.4424   23065819.0984
  22415003.094    -5611567.42549  -4355117.34249  22415003.9064   22415007.5514
 96  2 12  4  1 29.9990000  0  7  9 20 24  5  6 16  4
  23263233.794    -1044567.37049   -792869.68849  23263235.9944   23263240.2974
  21521636.975   -21586810.59049 -16803583.19649  21521638.6014   21521643.4464
  20345008.479   -22261897.55849 -17322121.64649  20345010.8884   20345015.4694
  20258267.287   -29611172.17949 -23055694.51049  20258268.8074   20258273.2404
  23942165.384    -9530093.03749  -7413928.85449  23942169.3034   23942176.2974
  23047368.520    -5077308.46249  -3933257.00649  23047368.1494   23047373.0634
  22430662.046    -5529271.86549  -4290990.93349  22430663.5234   22430667.4374
 96  2 12  4  1 59.9990000  0  7  9 20 24  5  6 16  4
  23279645.040     -958325.43349   -725668.17949  23279647.9144   23279651.4764
  21506549.433   -21666094.12049 -16865362.56549  21506551.4234   21506556.4064
  20348942.278   -22241230.03449 -17306017.08249  20348943.5444   20348948.4444
  20252656.898   -29640655.72049 -23078668.70149  20252658.2994   20252662.3124
  23927170.831    -9608908.32549  -7475343.37149  23927171.9084   23927179.1154
  23028952.808    -5174070.82649  -4008656.19549  23028954.8234   23028961.0754
  22446354.795    -5446796.62249  -4226724.52049  22446358.8394   22446362.6394
 96  2 12  4  2 29.9990000  0  7  9 20 24  5  6 16  4
  23296076.575     -871976.84849   -658383.58949  23296078.0744   23296082.9534
  21491525.404   -21745053.02149 -16926888.98849  21491525.8194   21491530.8954
  20352958.127   -22220125.31449 -17289571.84849  20352959.7314   20352964.2194
  20247133.098   -29669683.59149 -23101287.82649  20247134.2924   20247138.4684
  23912176.295    -9687710.72249  -7536747.81749  23912176.7294   23912180.5174
  23010573.313    -5270652.23849  -4083914.41849  23010574.9244   23010581.4554
  22462090.418    -5364126.86149  -4162306.52149  22462090.0764   22462093.1374
 96  2 12  4  2 59.9990000  0  7  9 20 24  5  6 16  4
  23312533.407     -785494.67049   -590994.88249  23312535.9154   23312540.4814
  21476567.712   -21823652.84849 -16988135.60249  21476568.9714   21476573.6524
  20357062.199   -22198556.95549 -17272765.33049  20357063.8924   20357068.7364
  20241703.874   -29698209.19649 -23123515.57349  20241706.1234   20241710.1244
  23897185.511    -9766479.88849  -7598126.37849  23897187.4894   23897191.9924
  22992235.221    -5367026.52149  -4159011.24749  22992235.1284   22992241.2094
  22477861.041    -5281231.29049  -4097712.57249  22477864.5984   22477868.0774
 96  2 12  4  3 29.9990000  0  7  9 20 24  5  6 16  4
  23329015.283     -698879.94349   -523502.90149  23329017.8174   23329022.4524
  21461676.911   -21901901.11149 -17049108.27049  21461678.9354   21461683.5034
  20361255.168   -22176522.37649 -17255595.53449  20361257.0604   20361262.0264
  20236375.161   -29726219.30649 -23145341.63349  20236376.0594   20236380.0844
  23882203.205    -9845214.25449  -7659477.81049  23882205.6414   23882208.8614
  22973937.254    -5463185.65749  -4233940.43049  22973937.3994   22973943.9364
  22493680.214    -5198117.28849  -4032948.41049  22493680.0004   22493683.8344
 96  2 12  4  3 59.9990000  0  7  9 20 24  5  6 16  4
  23345524.374     -612133.39849   -455908.21649  23345525.3034   23345529.7754
  21446856.795   -21979783.72249 -17109796.01749  21446858.3534   21446863.1304
  20365535.505   -22154026.09849 -17238065.96449  20365537.9014   20365542.8534
  20231149.108   -29753681.01949 -23166740.37249  20231150.1274   20231154.5294
  23867231.397    -9923890.33449  -7720783.84649  23867233.3494   23867237.1674
  22955683.479    -5559109.39949  -4308686.19049  22955683.0804   22955688.8604
  22509537.495    -5114780.61849  -3968010.74349  22509538.8964   22509542.5424
 96  2 12  4  4 29.9990000  0  7  9 20 24  5  6 16  4
  23362049.734     -525286.94749   -388235.66549  23362051.9294   23362056.9024
  21432100.077   -22057332.51049 -17170223.64149  21432101.1584   21432105.7254
  20369897.952   -22131107.28149 -17220207.14649  20369898.9794   20369903.8304
  20226023.543   -29780614.63349 -23187727.60649  20226024.6324   20226029.0634
  23852263.054   -10002552.93449  -7782079.36849  23852263.5184   23852270.7154
  22937464.926    -5654845.99849  -4383286.13249  22937465.4884   22937473.1674
  22525430.643    -5031262.92749  -3902932.02949  22525431.7104   22525436.1604
 96  2 12  4  4 59.9990000  0  7  9 20 24  5  6 16  4
  23378603.043     -438309.07449   -320460.68749  23378602.6754   23378607.7334
  21417409.852   -22134522.52049 -17230371.69849  21417412.4304   21417416.8994
  20374342.903   -22107741.25849 -17201999.85649  20374345.5134   20374350.4394
  20220998.166   -29807024.14149 -23208306.44549  20220999.2844   20221003.5964
  23837301.270   -10081176.46149  -7843344.41249  23837301.5064   23837308.2154
  22919284.801    -5750379.57749  -4457727.87149  22919286.4694   22919291.4594
  22541359.102    -4947553.63849  -3837704.01849  22541361.1194   22541364.9934
 96  2 12  4  5 29.9990000  0  7  9 20 24  5  6 16  4
  23395178.831     -351189.97649   -252575.72549  23395181.6334   23395185.5304
  21402795.252   -22211339.70349 -17290229.24949  21402794.6724   21402799.1904
  20378872.973   -22083942.11149 -17183455.06649  20378874.5224   20378879.1314
  20216068.545   -29832932.90449 -23228495.09749  20216068.8264   20216073.3454
  23822349.204   -10159753.86649  -7904573.54149  23822348.5854   23822353.5334
  22901146.722    -5845699.90449  -4532003.45849  22901145.6924   22901151.5834
  22557325.465    -4863648.88449  -3772323.69249  22557327.4394   22557331.0344
 96  2 12  4  5 59.9990000  0  7  9 20 24  5  6 16  4
  23411784.948     -263930.01549   -184580.94849  23411786.9294   23411791.5884
  21388245.930   -22287787.96749 -17349799.32349  21388247.3024   21388251.6454
  20383479.763   -22059732.59549 -17164590.50949  20383481.4264   20383486.0724
  20211227.207   -29858367.46649 -23248314.23849  20211228.8044   20211232.9514
  23807401.398   -10238291.38449  -7965771.58349  23807404.0374   23807411.5304
  22883046.523    -5940829.27549  -4606130.25249  22883044.6344   22883051.4954
  22573328.351    -4779563.85449  -3706802.89449  22573328.8724   22573332.2784
 96  2 12  4  6 29.9990000  0  7  9 20 24  5  6 16  4
  23428415.312     -176535.40349   -116481.26849  23428417.2364   23428422.3134
  21373766.660   -22363888.07049 -17409098.10449  21373765.7494   21373770.1294
  20388164.315   -22035114.14149 -17145407.29749  20388165.9784   20388170.9294
  20206474.089   -29883351.25849 -23267782.13249  20206474.7454   20206479.1244
  23792462.414   -10316800.34749  -8026947.36149  23792464.2824   23792470.6714
  22864977.537    -6035766.81149  -4680107.51649  22864979.1904   22864983.8124
  22589358.661    -4695312.62149  -3641152.58249  22589360.9754   22589364.4474
 96  2 12  4  6 59.9990000  0  7  9 20 24  5  6 16  4
  23445070.260      -89017.54749    -48285.55349  23445071.3984   23445075.4254
  21359351.128   -22439631.03849 -17468118.59849  21359352.2924   21359356.7894
  20392926.098   -22010089.45149 -17125907.53849  20392927.8704   20392932.7774
  20201805.158   -29907887.82149 -23286901.53649  20201805.5894   20201810.0744
  23777532.442   -10395263.06249  -8088087.15849  23777533.0114   23777538.8574
  22846948.921    -6130493.33849  -4753920.39149  22846952.5074   22846958.6214
  22605423.796    -4610890.96749  -3575369.49649  22605426.4944   22605429.4794
 96  2 12  4  7 29.9990000  0  7  9 20 24  5  6 16  4
  23461744.829       -1381.16749     20002.54749  23461746.0624   23461751.8634
  21345005.633   -22515009.86049 -17526855.34149  21345007.9804   21345012.6424
  20397763.433   -21984666.02549 -17106097.07449  20397766.1194   20397770.6454
  20197223.792   -29931950.35949 -23305651.56949  20197226.4684   20197230.8254
  23762612.122   -10473672.22049  -8149185.18449  23762612.4884   23762617.5264
  22828965.514    -6224997.37949  -4827559.85549  22828968.0944   22828977.1864
  22621520.585    -4526300.39749  -3509454.76349  22621522.2374   22621526.1124
 96  2 12  4  7 59.9990000  0  7  9 20 24  5  6 16  4
  23478436.294       86330.75349     88349.46449  23478438.0244   23478441.3394
  21330726.806   -22590051.90749 -17585329.66049  21330728.0594   21330732.6664
  20402677.560   -21958845.54749 -17085977.22349  20402679.5734   20402684.2584
  20192739.465   -29955527.61249 -23324023.45849  20192740.0064   20192744.3914
  23747698.654   -10552045.57949  -8210255.28549  23747700.4954   23747703.0494
  22811022.410    -6319292.36149  -4901036.44149  22811024.2774   22811030.1724
  22637644.260    -4441563.91149  -3443426.32449  22637647.6054   22637651.7134
 96  2 12  4  8 29.9990000  0  7  9 20 24  5  6 16  4
  23495135.494      174088.57649    156732.17749  23495138.4774   23495143.2034
  21316512.918   -22664761.75549 -17643545.12449  21316511.2364   21316516.1924
  20407664.882   -21932637.15549 -17065555.09549  20407666.8514   20407671.6424
  20188345.555   -29978616.55449 -23342014.84549  20188346.2434   20188350.7814
  23732784.094   -10630406.94649  -8271316.04749  23732787.3114   23732794.8784
  22793120.388    -6413382.10649  -4974353.12649  22793120.2264   22793127.3394
  22653799.131    -4356682.46449  -3377284.93749  22653800.4944   22653804.5624
 96  2 12  4  8 59.9990000  0  7  9 20 24  5  6 16  4
  23511844.536      261886.63349    225146.24149  23511846.7724   23511848.9874
  21302354.663   -22739137.61549 -17701500.33549  21302357.8294   21302362.8094
  20412723.783   -21906051.24349 -17044838.79949  20412725.8864   20412730.4674
  20184041.940   -30001225.85249 -23359632.48249  20184043.8554   20184048.3204
  23717872.190   -10708777.01349  -8332383.62849  23717874.2854   23717880.4924
  22775250.450    -6507291.80449  -5047529.52349  22775250.5304   22775256.3214
  22669977.538    -4271664.18349  -3311036.93749  22669978.1634   22669981.6304
 96  2 12  4  9 29.9990000  0  7  9 20 24  5  6 16  4
  23528571.018      349788.80149    293641.42749  23528572.5804   23528575.2494
  21288276.225   -22813128.69649 -17759155.72449  21288278.0084   21288282.4794
  20417867.554   -21879023.80049 -17023778.44949  20417869.1094   20417873.9254
  20179843.444   -30023294.69149 -23376828.98049  20179844.5484   20179848.8044
  23702968.728   -10787100.83449  -8393415.18149  23702969.9614   23702976.6424
  22757421.298    -6600968.73849  -5120524.53049  22757424.8834   22757431.1044
  22686191.254    -4186458.97649  -3244643.26549  22686193.1074   22686195.7794
 96  2 12  4  9 59.9990000  0  7  9 20 24  5  6 16  4
  23545314.434      437776.34249    362203.13549  23545316.9914   23545321.2884
  21274267.570   -22886750.96949 -17816523.72549  21274268.1924   21274272.7464
  20423092.601   -21851563.23449 -17002380.60349  20423094.5184   20423099.3964
  20175743.046   -30044835.82549 -23393614.28249  20175745.2604   20175749.8504
  23688069.987   -10865390.52249  -8454420.12149  23688073.0924   23688076.0264
  22739640.871    -6694416.13149  -5193340.67249  22739641.4684   22739647.1144
  22702439.125    -4101087.00949  -3178119.64949  22702438.1184   22702441.3354
 96  2 12  4 10 29.9990000  0  7  9 20 24  5  6 16  4
  23562079.888      525877.61149    430853.48149  23562080.8874   23562087.0494
  21260332.629   -22959977.88449 -17873583.65549  21260333.5644   21260338.2434
  20428400.234   -21823671.53949 -16980646.81849  20428402.3684   20428406.8304
  20171743.643   -30065858.45249 -23409995.55649  20171744.6864   20171749.2274
  23673180.738   -10943633.30449  -8515388.50549  23673183.6094   23673186.9124
  22721903.860    -6787617.73749  -5265965.30649  22721906.5834   22721912.0714
  22718713.983    -4015545.98449  -3111464.32249  22718716.1094   22718719.2074
 96  2 12  4 10 59.9990000  0  7  9 20 24  5  6 16  4
  23578869.660      614107.16949    499603.74349  23578871.3354   23578876.0544
  21246474.301   -23032798.85449 -17930327.26849  21246476.0924   21246481.0094
  20433790.392   -21795348.76249 -16958577.12049  20433792.0564   20433796.7204
  20167843.347   -30086354.98649 -23425966.88549  20167844.4814   20167848.9394
  23658304.969   -11021800.22049  -8576297.74649  23658307.8264   23658310.6884
  22704222.830    -6880548.58349  -5338378.95749  22704222.2894   22704227.7214
  22735024.899    -3929835.52949  -3044676.95549  22735025.9954   22735030.3694
 96  2 12  4 11 29.9990000  0  7  9 20 24  5  6 16  4
  23595674.045      702409.91749    568411.09349  23595675.1974   23595680.0064
  21232687.070   -23105247.70149 -17986780.91149  21232689.5154   21232694.3164
  20439252.892   -21766643.16449 -16936209.12049  20439254.4614   20439259.0264
  20164036.962   -30106357.30549 -23441553.10849  20164037.8444   20164042.2834
  23643442.433   -11099921.63249  -8637171.54849  23643442.9304   23643447.3894
  22686582.760    -6973227.15449  -5410595.99849  22686586.6664   22686591.8984
  22751360.256    -3843995.60749  -2977788.69549  22751361.6844   22751365.0634
 96  2 12  4 11 59.9990000  0  7  9 20 24  5  6 16  4
  23612490.137      790780.39649    637271.19349  23612490.5204   23612495.3754
  21218975.290   -23177309.56149 -18042933.01049  21218976.6654   21218981.4404
  20444786.631   -21737558.37549 -16913545.65049  20444789.2234   20444793.7954
  20160324.745   -30125862.90249 -23456752.28249  20160326.1214   20160330.8594
  23628582.077   -11177995.20049  -8698008.07549  23628585.2804   23628590.0014
  22668999.805    -7065642.76349  -5482608.18349  22669000.3854   22669004.3144
  22767721.237    -3758013.93349  -2910790.00749  22767723.8394   22767725.9034
 96  2 12  4 12 29.9990000  0  7  9 20 24  5  6 16  4
  23629320.125      879227.94649    706191.36049  23629321.6744   23629327.6974
  21205338.019   -23248968.91749 -18098771.46549  21205340.2874   21205345.1574
  20450398.358   -21708072.93149 -16890569.97949  20450399.9054   20450404.8124
  20156708.403   -30144866.74749 -23471560.47749  20156709.8304   20156714.3554
  23613739.147   -11256008.95749  -8758798.00049  23613740.2034   23613744.2934
  22651465.345    -7157791.50549  -5554412.38249  22651465.0614   22651470.3354
  22784114.401    -3671868.04349  -2843663.33249  22784115.8284   22784119.5604
 96  2 12  4 12 59.9990000  0  7  9 20 24  5  6 16  4
  23646162.104      967738.80649    775160.85549  23646164.4614   23646169.3864
  21191777.974   -23320230.44249 -18154299.92349  21191779.7054   21191784.5254
  20456086.918   -21678179.19749 -16867276.15749  20456088.3904   20456093.1694
  20153190.175   -30163355.29749 -23485967.14249  20153191.7134   20153196.0264
  23598899.150   -11333974.50649  -8819550.36049  23598903.6164   23598907.5824
  22633978.958    -7249673.19449  -5626008.49649  22633980.2564   22633985.5474
  22800535.164    -3585560.14149  -2776410.42349  22800539.8114   22800543.7454
 96  2 12  4 13 29.9990000  0  7  9 20 24  5  6 16  4
  23663016.750     1056300.80949    844170.17349  23663018.2514   23663022.6014
  21178291.411   -23391110.02549 -18209530.76749  21178291.6904   21178296.6994
  20461852.951   -21647879.19349 -16843665.76649  20461854.2604   20461859.0374
  20149768.183   -30181343.89549 -23499984.23449  20149768.3714   20149772.9464
  23584067.964   -11411922.05349  -8880288.69249  23584070.6304   23584075.0704
  22616539.489    -7341315.58249  -5697418.13349  22616540.7134   22616547.1724
  22816990.872    -3499109.96549  -2709046.64349  22816990.5004   22816994.2114
 96  2 12  4 13 59.9990000  0  7  9 20 24  5  6 16  4
  23679874.772     1144888.50849    913199.53549  23679874.0604   23679879.4114
  21164870.418   -23461633.86949 -18264484.41149  21164871.6034   21164876.3644
  20467692.481   -21617186.78749 -16819749.60449  20467695.0584   20467699.6834
  20146434.777   -30198855.14549 -23513629.37049  20146436.5114   20146440.6824
  23569236.099   -11489870.43349  -8941027.67049  23569237.8364   23569241.7904
  22599136.283    -7432756.59949  -5768670.84649  22599139.9134   22599146.5544
  22833461.096    -3412546.96449  -2641594.95449  22833464.1144   22833467.5474
 96  2 12  4 14 29.9990000  0  7  9 20 24  5  6 16  4
  23696744.162     1233536.43149    982275.82549  23696744.2014   23696749.8834
  21151525.002   -23531766.58749 -18319133.28449  21151525.8544   21151530.4624
  20473613.778   -21586072.51049 -16795504.71149  20473615.9404   20473620.6104
  20143200.675   -30215849.16749 -23526871.47049  20143202.5934   20143206.8884
  23554408.634   -11567787.16049  -9001741.97449  23554410.8954   23554414.2794
  22581784.623    -7523957.82749  -5839736.71749  22581786.2314   22581790.9934
  22849961.730    -3325839.32449  -2574030.57049  22849963.4354   22849965.3474
 96  2 12  4 14 59.9990000  0  7  9 20 24  5  6 16  4
  23713625.460     1322258.89649   1051410.22249  23713627.3384   23713633.0144
  21138254.700   -23601496.94149 -18373468.62449  21138256.6164   21138261.3314
  20479614.365   -21554541.71849 -16770935.26249  20479616.1784   20479620.6544
  20140068.417   -30232313.43449 -23539700.77149  20140069.4854   20140073.8954
  23539592.845   -11645655.96649  -9062418.96449  23539592.0734   23539597.8764
  22564478.515    -7614900.22249  -5910600.90149  22564480.1764   22564485.9494
  22866488.078    -3238981.33149  -2506349.00849  22866491.3774   22866495.4184
 96  2 12  4 15 29.9990000  0  7  9 20 24  5  6 16  4
  23730520.605     1411033.34349   1120585.11149  23730520.0954   23730527.1644
  21125057.689   -23670843.99849 -18427505.29549  21125060.1944   21125065.2884
  20485691.511   -21522607.07849 -16746051.12649  20485693.0264   20485697.4804
  20137030.483   -30248271.72449 -23552135.80649  20137032.6214   20137037.0634
  23524780.776   -11723482.98749  -9123063.37249  23524781.6594   23524786.4854
  22547222.459    -7705589.80549  -5981268.08949  22547221.7024   22547227.1004
  22883046.294    -3151980.26249  -2438555.97449  22883047.8524   22883051.4884
 96  2 12  4 15 59.9990000  0  7  9 20 24  5  6 16  4
  23747415.896     1499825.74149   1189773.97949  23747417.9224   23747422.3444
  21111930.643   -23739821.88649 -18481254.29349  21111933.9234   21111939.1174
  20491837.911   -21490301.60549 -16720878.03349  20491840.4634   20491845.2644
  20134088.029   -30263739.92449 -23564188.95249  20134089.1834   20134093.5414
  23509973.020   -11801294.86349  -9183695.98249  23509974.4554   23509981.3314
  22530012.794    -7796025.67849  -6051737.61049  22530012.9134   22530018.8464
  22899622.879    -3064862.98349  -2370672.39549  22899625.3954   22899628.1054
 96  2 12  4 16 29.9990000  0  7  9 20 24  5  6 16  4
  23764324.694     1588683.80849   1259013.99049  23764326.8844   23764331.5624
  21098885.556   -23808388.63149 -18534682.93349  21098886.3314   21098891.3454
  20498062.701   -21457596.30449 -16695393.38249  20498064.2394   20498068.7734
  20131245.107   -30278679.62249 -23575830.27749  20131246.5054   20131250.7494
  23495174.030   -11879065.22649  -9244296.24849  23495175.2164   23495179.9644
  22512861.464    -7886156.80249  -6121969.66549  22512862.3894   22512867.6354
  22916230.343    -2977593.70849  -2302670.34949  22916230.9904   22916235.4584
 96  2 12  4 16 59.9990000  0  7  9 20 24  5  6 16  4
  23781241.256     1677578.41649   1328282.50749  23781242.2864   23781248.7044
  21085911.033   -23876569.13449 -18587810.59849  21085911.9384   21085916.7924
  20504357.475   -21424514.31149 -16669615.20449  20504359.4354   20504364.1854
  20128499.696   -30293106.99749 -23587072.39449  20128500.8254   20128505.3014
  23480378.279   -11956817.80949  -9304882.65949  23480379.2724   23480384.7154
  22495759.493    -7976014.72649  -6191988.79349  22495760.9384   22495767.5694
  22932859.636    -2890213.31249  -2234581.72349  22932861.3564   22932864.6344
 96  2 12  4 17 29.9990000  0  7  9 20 24  5  6 16  4
  23798163.202     1766506.91649   1397577.44449  23798165.0684   23798170.9724
  21073013.314   -23944349.33749 -18640626.34149  21073013.6944   21073018.6124
  20510726.541   -21391044.01449 -16643534.45149  20510728.5084   20510733.3704
  20125853.294   -30307009.83649 -23597905.77849  20125854.9514   20125859.5894
  23465586.611   -12034537.40849  -9365443.37649  23465590.5674   23465594.5814
  22478714.971    -8065597.32849  -6261793.39649  22478714.0824   22478721.3524
  22949504.276    -2802722.05049  -2166406.75049  22949509.2614   22949515.0194
 96  2 12  4 17 59.9990000  0  7  9 20 24  5  6 16  4
  23815096.544     1855486.56349   1466912.19049  23815097.2534   23815102.4614
  21060193.452   -24011705.77049 -18693111.88049  21060196.1924   21060201.1504
  20517166.631   -21357204.04049 -16617165.63749  20517168.1944   20517172.8034
  20123311.994   -30320367.96449 -23608314.71449  20123313.3184   20123317.7314
  23450806.860   -12112203.77349  -9425962.58549  23450811.0784   23450814.5884
  22461718.477    -8154914.22049  -6331390.94849  22461718.3534   22461724.1234
  22966178.045    -2715120.03949  -2098145.43049  22966177.4064   22966182.8894
 96  2 12  4 18 29.9990000  0  7  9 20 24  5  6 16  4
  23832038.162     1944520.64849   1536289.40749  23832039.1254   23832045.8654
  21047459.994   -24078630.95349 -18745261.37049  21047460.6734   21047465.7164
  20523677.616   -21322989.21649 -16590504.73449  20523678.8654   20523683.4794
  20120873.982   -30333175.86349 -23618294.89849  20120875.9234   20120880.3844
  23436045.259   -12189794.91949  -9486423.19449  23436045.7054   23436050.4594
  22444767.657    -8243974.44049  -6400788.52449  22444769.7844   22444776.2514
  22982872.928    -2627387.06849  -2029782.08549  22982875.0244   22982875.1864
 96  2 12  4 18 59.9990000  0  7  9 20 24  5  6 16  4
  23848987.266     2033582.62649   1605688.33949  23848988.7534   23848993.7694
  21034803.827   -24145138.09249 -18797085.11349  21034804.8154   21034809.6904
  20530254.563   -21288426.24749 -16563572.54649  20530256.1644   20530261.1744
  20118538.248   -30345454.86849 -23627862.95949  20118539.5614   20118543.7954
  23421289.902   -12267324.19549  -9546835.59549  23421291.9464   23421296.2344
  22427869.953    -8332791.07249  -6469996.27349  22427869.2404   22427874.2784
  22999591.617    -2539532.66449  -1961324.07649  22999592.0964   22999597.3994
 96  2 12  4 19 29.9990000  0  7  9 20 24  5  6 16  4
  23865940.119     2122675.86749   1675111.60549  23865942.3734   23865947.2464
  21022228.668   -24211221.78149 -18848578.89849  21022229.5904   21022234.5514
  20536896.876   -21253519.19849 -16536372.24349  20536898.6874   20536903.4484
  20116300.143   -30357213.88049 -23637025.82649  20116301.6414   20116306.2154
  23406547.414   -12344797.62349  -9607204.48649  23406550.2654   23406554.0624
  22411016.998    -8421344.41549  -6538998.85549  22411017.6814   22411023.9474
  23016333.716    -2451542.22849  -1892760.12749  23016336.9014   23016343.1204
